GFSSGP_850_dewp_000.txt.gz
Dewpoint
2 0 -0 0 2 3 1 3 4 3 2 -1 -1 -0 -0 -1 -1 2 -1 -1 -1 -2 1 4 12 11 12 12 11 11 10 10 9 5 11 10 10 10 11 9 10 10 11 5 8 9 10 10 11
2 0 -2 2 -1 1 -1 3 5 3 -1 -1 -1 -0 -1 -1 -0 3 4 -0 -2 -2 0 10 13 13 12 12 9 9 10 9 9 5 11 11 11 11 10 9 11 7 7 5 2 6 10 10 10
3 -0 -1 -0 2 -0 2 3 -0 -2 -1 -1 -0 -2 -2 -1 -1 3 -1 -1 -2 -1 0 5 13 12 11 11 11 11 9 8 6 5 10 11 11 11 11 10 10 6 5 4 1 -1 6 7 9
3 1 -2 -2 -5 -3 1 0 -4 -1 -0 0 -1 -1 -2 -2 1 -1 -1 -2 -1 1 2 1 10 9 11 12 11 10 10 9 4 2 8 10 11 11 11 10 9 6 5 4 3 0 -0 2 4
3 0 2 2 2 -3 -5 -4 -4 -1 -0 0 1 1 -0 -1 -0 -1 -1 -3 -0 2 4 3 9 11 10 8 9 8 9 10 9 4 8 10 10 11 11 11 10 9 8 3 4 7 7 4 1
3 1 3 4 3 1 -0 -2 -2 -1 -0 0 0 -1 1 1 1 0 -1 -3 0 3 4 8 10 12 8 10 11 11 11 11 10 5 6 10 10 12 11 11 10 11 9 7 8 10 9 10 9
4 3 3 3 2 2 0 -3 -2 -1 -0 0 -1 -0 -1 2 -1 2 -0 -2 -1 2 4 7 12 10 11 12 12 12 11 12 11 9 3 6 10 11 10 10 10 10 10 9 5 9 9 10 9
4 3 4 3 2 3 -0 -3 2 0 -0 0 -1 -1 -0 3 -2 -0 2 -0 -2 2 4 7 12 13 14 13 9 11 12 11 8 4 -1 -0 3 4 5 5 6 4 5 4 -1 -1 1 4 8
4 4 4 4 3 2 -1 1 2 3 2 -0 -0 -1 0 -2 -2 -3 1 2 0 -0 3 4 8 13 13 13 12 7 9 6 4 -0 -4 -5 6 7 -0 1 -0 -1 0 1 1 1 2 3 3
5 5 4 2 1 2 1 3 3 3 1 0 -1 -1 -1 -1 0 -1 5 7 3 0 1 4 6 8 12 10 11 12 12 11 11 5 5 4 6 6 -2 -1 -0 1 2 3 4 4 4 4 8
5 5 3 3 2 2 3 3 4 4 4 1 -0 -1 -1 -1 -0 0 2 3 7 3 1 1 4 6 7 7 11 12 9 8 5 2 3 4 3 3 4 4 5 6 7 6 8 7 8 8 8
6 4 3 3 4 4 4 4 4 4 4 3 2 2 0 -1 -1 -1 -1 -1 2 2 4 3 2 3 5 6 5 7 6 4 5 4 3 4 5 5 6 7 8 9 10 10 10 11 11 10 10
6 4 4 4 4 4 5 5 5 4 3 3 3 2 0 -1 -2 -2 -4 -2 1 3 4 4 4 3 3 5 5 5 6 6 6 6 7 8 9 9 10 10 10 11 11 11 12 11 11 11 11
5 5 4 4 5 5 5 4 4 3 2 2 0 1 -0 -1 -3 -2 -3 -0 2 2 3 2 2 3 3 4 5 5 6 7 7 8 8 9 9 10 10 11 11 11 11 11 11 11 11 10 11
6 7 5 5 5 5 5 5 3 2 -2 -1 -1 -1 0 -2 -2 -1 -1 0 1 1 -1 -2 -2 -1 3 4 5 6 7 7 8 8 9 9 10 10 10 10 10 11 11 11 11 11 10 11 11
8 7 8 4 5 5 3 5 2 -1 -2 -2 -1 1 2 1 1 0 0 -0 -1 -2 -3 -4 -4 -1 1 5 6 7 7 8 8 9 9 10 10 10 10 10 11 10 10 10 10 10 10 10 10
9 10 8 5 4 4 4 4 -1 -1 -1 -1 -2 1 2 3 2 -0 -1 -1 -1 -1 -2 -2 -0 1 4 6 7 7 7 8 9 9 9 9 9 9 9 9 8 6 6 7 6 8 7 6 8
9 8 6 7 4 2 2 3 0 -1 -1 -1 -1 1 2 2 2 1 0 0 0 -0 -2 -3 -3 1 4 6 7 7 8 9 9 9 9 9 7 5 3 2 1 -1 -2 -2 -1 2 3 4 5
4 6 7 4 2 3 4 4 1 1 -0 -1 -1 1 2 2 1 1 1 1 0 -1 -2 -1 0 2 4 6 7 8 8 8 8 7 6 3 0 -2 -3 -3 -4 -5 -5 -5 -5 -1 0 1 1
6 6 6 3 2 3 4 5 3 1 -1 -1 -1 1 1 2 2 0 -0 -1 -2 -3 -3 -4 -3 -1 2 6 7 8 7 7 5 1 -1 -2 -2 -4 -5 -5 -4 -4 -4 -5 -6 -5 -3 -1 -0
6 6 5 5 4 4 3 5 3 -2 -3 -3 -1 1 1 2 2 2 -0 -1 -2 -3 -3 -3 -3 -3 -1 2 4 4 3 1 -0 -1 -3 -5 -5 -4 -3 -3 -4 -6 -9 -12 -16 -12 -8 -3 -3
8 5 5 6 9 9 3 7 3 -0 -1 -1 1 1 2 2 2 2 1 -1 -2 -2 -2 -2 -2 -2 -2 -1 -1 -1 -1 -2 -4 -5 -5 -4 -3 -2 -3 -5 -8 -13 -20 -27 -33 -33 -19 -5 -4
6 5 6 7 8 7 6 5 2 -1 -1 -0 1 1 2 2 2 3 0 -1 -2 -2 -2 -2 -2 -2 -2 -3 -3 -4 -4 -5 -5 -4 -3 -2 -2 -4 -7 -11 -16 -24 -34 -37 -32 -27 -23 -9 -7
5 5 5 4 6 9 5 5 3 -0 -2 -1 0 1 2 3 3 3 -0 -1 -1 -1 -1 -1 -1 -1 -2 -3 -4 -5 -5 -4 -3 -1 -1 -3 -5 -7 -8 -12 -22 -36 -34 -29 -26 -24 -23 -21 -20
6 8 12 12 10 9 2 3 2 -1 -3 -2 0 1 2 3 3 3 0 0 0 0 0 0 -0 -0 -1 -3 -4 -4 -3 -2 -1 -2 -3 -4 -5 -7 -12 -23 -35 -32 -29 -26 -24 -23 -23 -15 -17
7 7 7 9 9 6 2 5 0 -3 -3 -3 -1 1 2 3 2 3 2 1 1 1 1 1 0 -1 -2 -3 -3 -3 -2 -1 -2 -2 -3 -5 -10 -18 -30 -34 -32 -29 -27 -25 -25 -24 -20 -15 -13
8 9 3 4 4 5 4 3 0 -1 -1 -2 -2 1 2 3 3 3 2 1 1 2 1 1 0 -1 -3 -3 -3 -2 -1 -1 -1 -3 -5 -10 -18 -28 -33 -32 -30 -28 -26 -25 -23 -21 -19 -18 -13
7 5 8 6 8 7 4 4 2 -0 -1 -1 -1 1 2 3 2 3 3 2 2 2 1 1 -0 -2 -3 -4 -3 -1 -1 -1 -3 -6 -10 -16 -26 -30 -31 -30 -28 -27 -25 -22 -20 -19 -19 -16 -14
6 8 7 4 4 5 5 3 -1 -1 -2 -1 -2 -0 2 3 2 2 2 2 2 2 1 0 -1 -2 -4 -3 -2 -1 -1 -3 -5 -9 -14 -19 -24 -29 -29 -28 -27 -24 -21 -19 -19 -19 -18 -15 -13
4 5 5 7 6 3 3 2 -3 -3 -2 -2 -2 -0 2 2 2 2 3 2 2 1 1 0 -1 -3 -4 -3 -1 -2 -3 -5 -8 -11 -14 -24 -29 -29 -28 -26 -23 -20 -18 -18 -19 -18 -16 -14 -13

GFSSGP_850_dewp_003.txt.gz
Dewpoint
1 0 -1 2 1 -0 0 0 3 4 4 -0 -1 -0 1 -0 0 4 7 9 4 10 12 5 12 13 10 12 13 11 10 10 8 5 11 10 10 10 8 9 9 10 10 4 7 10 10 10 10
1 0 0 -1 -2 1 -2 -1 2 3 0 -1 -0 -0 0 -0 -0 5 8 5 5 10 12 14 12 11 12 12 11 9 8 8 7 5 11 10 10 10 10 9 10 9 7 5 2 -1 5 9 9
4 1 -0 1 -1 -1 2 1 2 -1 0 0 1 -1 -1 -0 1 4 6 1 6 10 11 13 12 13 13 12 10 10 8 7 4 4 10 10 11 11 10 10 11 9 8 5 4 -0 -5 -1 7
3 1 -0 2 1 -5 -2 -1 -3 -2 0 0 0 1 -1 2 3 7 5 3 10 10 12 3 14 12 10 11 11 10 9 9 4 1 9 10 11 12 10 11 10 10 9 4 2 3 2 1 -1
3 1 2 3 3 0 -7 -7 -3 -2 -0 -0 1 2 1 4 5 7 9 8 9 10 12 1 8 9 10 11 11 9 9 8 8 2 8 10 10 12 11 10 10 10 9 7 4 5 9 9 8
3 1 3 3 2 1 -1 -3 -4 -3 -1 -0 -0 0 2 4 5 7 7 9 9 11 12 9 4 9 8 9 12 10 11 10 10 4 3 9 9 10 12 11 11 10 10 9 7 4 8 9 9
4 3 4 2 1 2 0 -3 -5 -2 -1 -0 -0 -0 1 3 4 1 10 9 10 11 9 12 6 9 10 12 12 12 11 11 10 7 2 1 10 11 11 9 9 7 7 7 1 -2 -2 1 4
5 3 5 3 2 2 -0 -2 -3 -1 -1 -0 -1 0 1 2 3 -2 6 10 11 10 9 12 13 13 12 13 9 10 11 11 8 5 -2 -4 1 5 4 5 4 1 -1 0 0 1 1 1 2
5 5 5 3 3 1 -1 0 0 2 1 0 -1 -1 -1 0 2 5 7 9 11 9 10 11 12 13 13 13 13 8 7 7 2 1 -2 -7 2 10 8 6 -2 -1 0 2 3 3 3 3 3
5 5 4 1 0 1 -0 1 2 2 1 1 0 -1 -1 -1 -1 0 3 5 9 11 11 12 12 13 13 13 13 12 13 12 11 12 11 10 9 10 0 1 3 4 5 5 5 5 5 5 6
5 5 2 1 1 1 1 1 2 3 3 1 0 -0 -0 0 -1 -1 0 1 5 8 10 9 12 13 13 13 13 13 12 12 11 11 11 11 8 10 10 10 9 7 8 8 10 10 11 11 11
6 4 3 2 2 3 3 2 2 3 3 2 3 2 2 1 -2 -1 -1 0 4 7 9 10 7 7 13 13 11 13 12 12 11 11 11 11 11 11 12 12 12 11 12 12 12 12 12 12 12
6 4 3 3 2 3 3 3 3 3 3 3 2 2 2 1 -0 -2 -0 4 5 7 8 9 9 10 10 11 13 13 12 12 12 12 12 12 12 12 12 12 12 12 12 12 12 12 12 12 12
6 4 3 3 3 3 4 3 3 3 3 2 0 -2 -1 -0 0 1 3 4 7 7 8 8 8 9 11 12 13 13 13 12 12 12 12 12 11 12 12 12 13 12 12 12 12 12 11 12 11
6 6 5 3 3 3 3 5 4 3 2 -3 -4 -4 -2 1 2 2 4 5 4 5 2 1 -0 5 11 12 13 13 13 12 13 13 12 12 12 12 12 12 12 11 11 11 11 10 10 10 9
7 8 9 4 4 3 4 7 1 0 -3 -3 -2 -1 1 3 2 3 4 4 3 3 1 -2 -2 -0 9 12 13 12 12 12 12 12 12 12 11 10 11 12 11 9 9 8 7 6 6 6 6
10 11 9 7 3 3 5 5 1 -0 -2 -2 -2 -2 1 2 3 3 3 2 0 -0 -1 -1 2 6 10 12 12 12 11 11 12 12 11 10 9 8 7 4 0 2 3 2 1 1 2 2 2
10 10 8 9 4 4 5 4 2 -1 -1 -1 -2 -1 1 2 3 3 4 3 3 5 2 2 5 9 11 11 11 12 10 8 7 7 6 4 1 -3 -4 -4 -4 -3 -0 1 -0 1 2 1 2
7 9 7 6 3 4 5 3 1 0 -0 -0 -2 -0 1 2 3 3 4 4 5 7 8 8 9 10 11 11 10 8 7 6 7 5 -1 -3 -4 -5 -5 -2 -2 -2 -3 -1 -3 -2 -4 -3 -1
8 8 7 6 3 3 3 3 2 1 1 1 -2 -1 1 2 2 3 3 3 4 5 5 6 8 10 9 8 8 7 6 4 -1 -2 -4 -5 -4 -2 -2 -3 -5 -7 -9 -7 -11 -10 -12 -6 -6
8 9 8 6 4 3 4 6 4 3 0 -1 -2 -0 1 1 2 2 3 3 3 -0 -2 -3 -1 1 4 5 4 3 2 2 -1 -5 -5 -3 -2 -2 -5 -7 -9 -11 -14 -19 -23 -13 -10 -6 -6
10 7 4 5 6 7 4 5 2 1 -1 -2 -2 0 1 1 1 2 2 3 1 -2 -2 -3 -2 -1 2 3 2 2 -1 -4 -5 -4 -2 -1 -3 -5 -6 -8 -9 -14 -22 -27 -28 -18 -17 -8 -7
10 7 5 6 7 9 8 7 3 1 0 -1 -2 0 1 1 2 2 3 3 -0 -2 -2 -2 -2 -2 -2 -3 -4 -4 -4 -4 -3 -1 -2 -4 -4 -4 -6 -8 -11 -19 -28 -30 -27 -25 -22 -12 -7
7 7 7 6 6 8 5 6 3 2 -0 -2 -1 0 1 1 2 3 3 3 -1 -1 -1 -1 -2 -2 -2 -2 -3 -3 -3 -2 -2 -2 -2 -2 -4 -5 -6 -8 -18 -28 -30 -29 -26 -24 -20 -13 -8
9 10 11 10 10 7 3 5 3 -2 -3 -3 -1 0 1 2 2 2 3 3 1 -0 -1 -1 -1 -1 -1 -2 -2 -2 -2 -2 -2 -1 -0 -2 -3 -5 -6 -13 -23 -29 -29 -27 -25 -24 -19 -13 -11
9 9 6 8 7 5 2 5 2 -2 -3 -3 -1 0 1 2 2 2 3 3 4 1 0 0 -0 -1 -2 -2 -2 -2 -2 -2 -1 -0 -1 -3 -4 -7 -12 -20 -27 -29 -27 -26 -24 -21 -14 -13 -14
8 10 4 5 4 5 4 2 -1 -2 -2 -3 -1 0 1 2 2 2 3 4 4 2 1 1 0 -1 -2 -3 -3 -2 -1 -1 0 -1 -2 -4 -7 -10 -17 -25 -28 -28 -26 -24 -20 -17 -16 -14 -15
8 5 7 5 7 6 4 3 3 0 -1 -2 -2 0 1 2 2 2 3 3 3 2 1 1 1 -1 -2 -3 -2 -2 -1 -0 -1 -2 -3 -6 -10 -13 -22 -28 -28 -27 -24 -19 -17 -17 -16 -15 -15
9 9 6 3 4 5 6 4 -1 -2 -2 -1 -2 -1 1 2 2 2 3 3 3 1 1 1 1 -1 -2 -3 -2 -1 -1 -1 -2 -3 -6 -9 -15 -21 -27 -28 -27 -25 -19 -17 -17 -16 -16 -15 -15
7 8 5 6 6 4 4 3 -2 -3 -2 -2 -2 -1 1 2 2 2 2 3 2 1 1 1 0 -1 -2 -3 -3 -1 -1 -1 -3 -5 -9 -15 -21 -26 -28 -28 -25 -19 -17 -16 -16 -16 -16 -16 -15

GFSSGP_850_dewp_006.txt.gz
Dewpoint
-1 -1 1 1 5 4 5 0 3 4 3 -0 -0 -0 0 0 2 8 8 8 9 8 3 4 12 13 12 11 13 11 11 9 7 6 9 9 10 11 8 9 8 10 10 5 3 10 10 10 9
0 1 0 1 3 4 1 -1 3 2 -0 0 0 -0 0 1 4 7 10 6 9 9 7 5 12 12 11 13 12 9 8 8 7 5 11 10 10 10 10 10 9 8 7 4 2 1 0 4 8
4 3 1 5 4 1 1 2 1 -2 -1 0 0 0 -1 2 4 7 9 3 8 9 13 12 11 12 13 12 11 10 8 7 4 4 10 10 10 10 10 10 10 9 8 4 0 0 -3 -4 2
5 2 1 3 5 2 -5 -2 -3 -3 -2 0 0 1 2 4 6 8 7 7 10 10 9 5 9 13 12 12 11 11 8 8 4 1 10 10 10 11 10 10 10 10 7 5 2 2 2 4 3
4 3 4 4 4 2 -2 -8 -4 -2 -2 -0 -0 1 3 5 6 8 8 9 10 11 10 3 1 8 9 10 11 10 8 8 8 1 10 10 10 10 11 10 10 10 5 4 2 -3 -2 3 6
4 3 6 5 3 1 -0 -2 -4 -4 -3 -1 -0 -0 3 4 4 5 8 9 10 11 9 2 -1 3 6 7 9 10 9 10 9 3 5 9 10 10 11 12 10 10 3 -1 -1 -2 -3 -2 0
6 6 6 5 3 1 1 -2 -5 -5 -1 -1 -0 -0 3 4 0 6 8 9 10 11 10 5 3 5 2 5 6 11 11 11 10 5 1 -1 7 10 11 10 6 -1 -2 -2 -1 -0 0 0 1
5 5 6 5 5 4 -0 -0 -2 -3 -1 0 -0 0 1 2 -0 -0 5 10 9 12 11 11 6 7 5 6 5 6 8 10 8 2 -4 -5 2 4 2 2 -0 -1 -1 -0 1 1 2 2 2
6 8 7 6 5 3 -1 -0 -0 0 1 1 0 -0 -1 -0 -0 1 4 6 10 10 12 13 13 13 11 11 12 11 4 2 -1 -2 -1 -5 4 8 6 5 0 1 2 3 4 4 4 5 5
7 8 7 2 1 1 0 -0 0 1 2 1 0 0 -1 -1 -1 -0 1 4 6 9 9 12 13 13 13 13 12 10 7 8 7 7 8 8 9 9 8 4 5 5 6 6 7 7 8 8 8
7 8 5 2 1 1 1 1 1 2 3 2 1 1 2 1 1 -0 -1 1 2 6 10 11 12 13 13 13 12 13 12 11 12 12 11 11 8 9 9 9 10 8 8 9 10 10 11 11 11
7 6 5 4 2 2 2 2 2 2 2 3 3 2 2 2 2 -1 -1 -1 1 6 9 10 11 11 13 13 12 13 12 12 12 11 11 11 11 11 12 12 11 12 12 12 12 12 12 12 12
6 5 4 3 3 2 2 3 3 3 2 3 3 3 2 2 2 0 -2 -1 3 6 8 9 9 11 12 14 13 13 12 12 12 11 12 12 12 12 12 12 12 12 12 12 11 11 11 10 10
6 6 6 5 3 2 3 3 3 3 2 2 3 2 0 -1 0 0 -1 3 6 7 8 9 9 11 12 13 13 13 13 12 12 12 12 12 12 11 12 12 12 11 11 11 10 10 9 9 9
6 8 6 6 4 3 3 4 4 3 3 2 2 -2 -4 -2 0 0 2 4 5 6 7 7 9 10 12 12 13 13 13 13 13 12 12 12 12 12 12 11 11 10 9 8 8 3 2 2 3
9 8 10 6 4 4 3 6 3 3 2 2 -3 -3 -1 2 2 2 3 4 3 4 3 1 0 5 10 12 13 13 12 12 12 12 12 12 11 11 11 9 4 3 2 0 -2 -1 -2 -2 -2
9 10 10 9 5 4 4 5 3 3 1 -1 -3 -3 1 2 3 3 3 4 3 5 2 2 2 5 11 12 12 12 12 12 11 11 11 9 8 7 1 -4 -4 -3 -2 -2 -2 -3 -4 -5 -6
8 11 8 10 7 5 5 5 4 3 1 -2 -2 -3 1 2 3 3 4 4 6 6 5 5 7 10 12 12 12 11 11 11 10 8 6 1 -4 -5 -4 -3 -2 -3 -4 -5 -7 -8 -9 -11 -7
6 7 10 7 6 6 5 5 4 2 2 0 -1 -1 1 2 3 4 5 7 8 9 9 8 9 10 11 12 12 11 8 7 6 2 -3 -5 -4 -3 -2 -3 -5 -6 -8 -9 -12 -13 -16 -16 -16
6 8 9 7 6 6 5 5 3 2 1 1 0 -1 1 2 3 4 4 6 7 9 9 10 11 11 11 10 8 7 6 2 -2 -4 -5 -3 -2 -3 -4 -5 -6 -7 -8 -11 -16 -18 -22 -19 -18
6 8 9 9 6 6 5 5 3 1 0 1 1 -1 1 2 3 3 4 4 6 5 4 7 8 8 8 7 7 4 -0 -2 -5 -4 -3 -2 -3 -3 -4 -6 -7 -8 -11 -15 -22 -23 -23 -22 -19
6 5 7 9 9 10 4 8 4 3 3 1 -0 -0 1 1 2 3 4 4 3 3 2 2 3 4 4 3 2 -1 -4 -4 -4 -2 -2 -3 -3 -3 -3 -5 -7 -9 -14 -18 -21 -22 -23 -23 -21
5 4 7 9 10 9 6 7 4 3 4 -1 -2 0 1 1 2 3 3 3 3 2 1 0 0 1 2 2 -2 -4 -4 -3 -2 -2 -2 -2 -2 -1 -3 -4 -6 -8 -12 -17 -22 -24 -24 -24 -19
3 5 7 10 10 12 10 7 6 3 1 -1 -2 1 1 1 2 3 4 3 2 1 -1 -2 -2 -2 -3 -3 -3 -3 -3 -2 -2 -2 -1 -2 -2 -2 -2 -4 -6 -10 -15 -21 -24 -25 -25 -23 -18
6 8 10 12 11 10 5 8 3 -1 -2 -2 -1 1 1 2 2 3 3 3 1 -0 -1 -2 -2 -2 -2 -2 -3 -2 -2 -2 -2 -1 -1 -1 -1 -2 -3 -5 -7 -12 -18 -24 -26 -26 -24 -20 -17
7 8 10 12 12 7 3 6 4 -2 -3 -2 -1 1 2 2 3 3 3 3 1 0 -0 -1 -1 -1 -2 -2 -2 -2 -2 -2 -1 -0 -1 -1 -1 -3 -4 -7 -12 -19 -24 -26 -26 -24 -20 -18 -17
8 8 6 11 3 6 5 2 -1 -2 -2 -1 0 1 2 2 3 3 3 3 3 1 0 -0 -0 -1 -2 -2 -2 -2 -2 -1 -1 -1 -1 -2 -3 -4 -8 -13 -18 -23 -26 -27 -23 -19 -18 -17 -18
8 6 10 10 7 9 6 5 3 1 -0 -1 1 1 2 2 2 2 3 4 3 2 1 1 0 -1 -2 -2 -2 -2 -1 -1 -1 -1 -2 -3 -5 -8 -13 -18 -23 -26 -28 -24 -19 -18 -17 -18 -18
10 10 10 10 7 7 7 5 1 0 -0 -1 -0 1 2 2 2 3 3 4 3 2 1 1 1 -0 -1 -2 -2 -2 -2 -1 -1 -2 -3 -4 -7 -12 -19 -22 -25 -29 -25 -20 -18 -17 -17 -17 -17
8 9 9 7 8 5 6 4 -2 -1 -2 -1 -2 1 2 2 2 3 3 4 3 2 1 1 0 -0 -1 -2 -2 -2 -2 -1 -2 -3 -4 -7 -11 -18 -22 -26 -30 -26 -21 -18 -17 -17 -16 -17 -16

GFSSGP_850_dewp_009.txt.gz
Dewpoint
-1 -1 1 1 1 3 4 2 1 2 1 -0 0 -0 -0 1 2 8 10 9 5 4 0 4 11 11 11 12 12 12 10 8 6 4 9 9 10 10 9 9 9 8 6 2 0 9 9 10 10
-0 -0 2 1 1 2 3 -0 1 -1 -1 0 0 0 0 2 7 9 9 7 8 5 2 5 11 13 11 12 12 9 6 5 4 6 10 10 10 10 10 10 9 7 5 2 -0 -1 1 0 3
1 2 3 3 4 0 0 -1 -2 -3 -1 0 0 0 1 4 9 10 9 7 7 5 6 5 8 10 12 12 11 9 6 5 2 0 10 10 10 10 10 10 10 9 4 1 -3 -2 -3 -6 -7
4 3 2 3 4 2 0 -6 -4 -3 -2 -0 -0 1 4 4 6 8 5 8 7 5 5 5 8 9 10 10 10 8 6 4 -1 -2 9 10 10 11 10 10 10 10 5 -5 -7 -7 -7 -5 -1
5 4 4 4 4 2 -1 -3 -4 -3 -3 -1 -0 0 4 7 6 7 7 10 9 8 9 5 2 6 10 10 9 8 7 5 2 1 8 9 10 10 10 10 10 9 -0 -4 -3 -3 -3 -3 -2
6 4 6 6 4 2 -0 -1 -4 -4 -4 -2 -0 -0 5 7 6 9 9 10 10 9 9 5 0 4 8 8 8 6 7 8 6 -0 5 7 9 10 10 11 10 7 -2 -1 -1 -0 0 -0 0
7 6 7 6 5 4 1 -3 -5 -5 -2 -0 -0 0 4 3 1 7 8 9 10 10 9 6 2 2 4 3 5 6 9 8 5 3 -1 -2 6 9 10 10 3 -1 -1 -0 1 1 2 2 2
7 6 7 6 6 5 2 -0 -2 -4 -2 -0 -0 0 2 2 -0 1 6 9 10 11 9 8 6 5 3 4 4 5 6 6 5 0 -4 -5 2 3 -0 -1 -0 -0 0 2 3 4 5 5 6
8 8 9 8 6 4 2 -0 -1 -1 0 1 1 0 -0 -0 -0 -0 2 5 8 10 9 9 10 9 8 9 10 10 7 3 2 -2 -1 -4 4 7 3 2 3 4 6 7 8 8 9 9 9
8 9 8 5 3 3 2 1 -0 1 2 2 2 1 1 -0 -1 -0 -0 1 4 6 7 10 11 11 10 11 12 10 5 8 6 5 5 6 7 7 7 7 9 9 9 9 9 10 10 11 11
8 9 7 5 4 3 2 2 1 1 2 2 2 2 2 2 1 1 -1 -0 1 2 7 8 12 13 12 12 11 10 10 10 9 10 9 9 9 9 9 10 11 11 11 11 11 11 11 11 11
9 8 7 6 5 5 3 2 2 2 2 2 2 3 3 2 2 2 1 -1 0 3 6 8 9 13 13 13 12 11 12 11 11 11 10 11 11 11 11 12 12 12 11 10 10 10 10 10 10
8 6 7 6 6 5 4 3 3 3 2 2 2 2 3 3 2 2 1 -1 -1 3 6 8 10 12 13 14 13 13 13 12 11 12 12 12 11 12 12 12 11 11 10 10 10 10 9 8 7
5 6 6 5 5 4 4 3 3 3 3 3 3 2 3 3 -0 1 1 -0 -0 5 6 8 9 10 12 14 13 13 12 12 12 12 12 12 12 11 12 11 11 10 10 10 9 8 5 -1 -1
6 8 6 7 6 6 5 5 4 3 3 2 3 3 2 -3 -3 -1 1 -1 3 6 8 8 8 9 11 13 14 13 13 12 12 12 11 12 11 12 11 11 11 9 8 7 3 -2 -2 -2 -3
7 8 10 7 6 6 5 8 3 2 3 3 3 3 -0 -2 -1 -0 0 1 4 6 8 8 9 10 11 12 13 13 12 12 11 12 11 11 11 11 10 10 5 -0 -3 -3 -2 -3 -5 -7 -8
7 8 9 9 6 6 6 7 4 3 2 3 2 2 -1 -0 1 0 1 2 3 4 4 3 5 9 11 13 13 12 12 12 11 11 11 10 10 10 6 -4 -3 -2 -3 -5 -6 -8 -10 -11 -11
6 8 6 9 7 7 8 7 3 3 2 3 2 -2 0 1 2 2 2 3 4 4 3 4 3 9 11 13 12 11 11 11 10 10 9 3 -2 -4 -3 -3 -4 -5 -6 -7 -8 -10 -11 -13 -14
4 5 7 6 6 7 7 7 5 3 3 2 0 -1 2 2 3 2 3 6 7 7 7 8 8 11 12 12 12 11 11 11 10 5 -3 -4 -3 -3 -4 -5 -6 -8 -9 -9 -10 -11 -12 -13 -14
5 7 7 5 6 8 8 7 5 3 3 3 2 0 2 3 3 4 7 8 9 9 9 10 11 12 12 12 12 11 10 6 0 -4 -4 -3 -3 -4 -4 -4 -4 -5 -7 -9 -12 -14 -16 -16 -19
5 7 6 6 6 7 8 9 6 4 3 2 2 1 2 2 2 4 6 9 10 10 11 11 11 11 11 11 9 7 3 -2 -4 -4 -2 -3 -3 -3 -2 -2 -2 -4 -7 -10 -14 -17 -20 -19 -18
5 3 4 6 7 10 7 11 8 5 3 1 1 1 2 2 2 4 6 7 9 10 11 11 11 11 10 7 6 2 -2 -4 -3 -2 -3 -3 -2 -1 -1 -1 -3 -5 -8 -12 -15 -19 -21 -22 -21
4 1 3 5 8 8 8 10 6 4 4 2 1 2 2 2 2 4 4 6 5 6 9 8 7 6 5 2 -2 -4 -4 -3 -3 -3 -3 -2 -1 -1 -1 -2 -3 -6 -9 -12 -15 -18 -21 -23 -23
2 5 5 6 7 10 9 9 7 4 3 2 -1 2 2 3 3 4 4 4 4 4 4 3 2 3 3 1 -2 -4 -3 -3 -3 -2 -2 -1 -2 -1 -2 -3 -5 -8 -12 -15 -18 -21 -23 -25 -22
3 5 8 8 9 9 8 9 8 2 2 1 -1 2 2 3 3 3 4 4 3 3 2 2 1 1 1 -2 -3 -3 -2 -2 -2 -2 -1 -2 -2 -2 -3 -4 -7 -10 -14 -18 -20 -22 -26 -23 -19
4 4 6 8 8 6 9 10 8 2 -0 -0 1 1 2 3 3 3 3 3 2 -0 -1 -2 -2 -3 -2 -3 -3 -2 -2 -2 -1 -1 -1 -1 -2 -2 -4 -5 -9 -13 -17 -21 -25 -27 -23 -19 -18
4 6 3 8 9 10 10 8 4 -1 -1 -0 2 2 3 3 3 3 3 2 1 -0 -2 -2 -2 -2 -2 -2 -2 -2 -2 -2 -1 -1 -1 -2 -2 -3 -4 -8 -12 -16 -22 -28 -26 -22 -19 -18 -19
3 3 7 8 10 12 10 5 4 0 1 2 2 2 3 3 3 3 3 2 1 -0 -1 -1 -1 -2 -2 -2 -2 -2 -2 -1 -1 -1 -1 -2 -2 -4 -7 -11 -15 -23 -28 -25 -21 -19 -18 -19 -19
6 7 6 6 7 11 11 7 0 -0 0 2 2 2 3 3 3 3 3 2 1 1 0 -0 -1 -1 -2 -2 -2 -2 -2 -2 -1 -1 -2 -2 -3 -6 -10 -16 -24 -28 -25 -21 -18 -18 -19 -19 -19
5 7 5 6 8 9 5 3 -1 -1 -1 1 1 2 2 3 3 3 3 3 3 2 1 1 -0 -1 -2 -2 -3 -3 -2 -2 -2 -2 -2 -2 -4 -10 -17 -25 -27 -25 -20 -18 -19 -20 -20 -18 -16

GFSSGP_850_dewp_012.txt.gz
Dewpoint
1 -1 0 1 -0 3 4 2 -0 -0 1 -0 0 0 0 1 2 6 7 8 5 3 -0 3 10 13 12 12 12 11 11 6 3 1 7 10 10 10 9 10 10 5 1 -2 -1 6 6 9 9
1 -0 1 1 0 1 2 -1 -0 -2 -2 -0 0 0 0 6 8 8 8 6 6 2 -0 4 9 11 11 11 12 11 5 3 3 8 9 10 9 10 10 10 8 6 0 -2 -4 -3 -2 -2 1
2 1 2 3 3 2 1 -2 -2 -3 -1 0 0 2 3 6 9 8 9 4 6 4 1 3 9 12 11 10 10 8 4 3 2 3 10 10 10 10 10 10 8 8 4 -3 -4 -3 -2 -4 -4
3 3 2 3 4 2 1 0 -4 -4 -4 -0 0 2 4 5 7 8 4 5 6 6 5 5 7 10 11 11 10 8 4 2 -2 1 9 10 10 10 10 9 8 9 6 -3 -3 -4 -4 -2 1
5 5 5 4 4 2 1 -0 -4 -3 -3 -1 -1 1 5 6 6 6 3 6 7 6 7 5 7 8 8 9 9 8 5 3 -2 1 7 8 10 10 11 9 10 9 -1 -1 -0 0 0 -0 0
6 4 6 7 4 2 1 1 -2 -4 -4 -2 -0 2 5 7 8 7 8 8 9 8 9 9 5 6 7 9 9 7 6 7 1 0 5 6 9 10 10 11 11 5 -1 -0 1 1 2 2 2
7 6 7 6 5 5 3 2 -4 -5 -1 0 0 2 4 4 5 8 9 10 10 9 9 9 3 4 6 8 8 7 8 8 4 2 -1 0 5 9 10 9 2 1 1 1 2 3 5 5 7
7 6 7 6 6 6 2 1 -1 -4 -3 -1 -1 3 3 3 2 7 7 9 10 10 10 8 4 3 3 3 5 6 8 7 3 0 -4 -4 3 6 2 -0 2 3 4 5 8 8 9 9 10
9 9 9 7 6 5 2 2 1 -0 -1 0 0 1 1 1 4 7 8 8 10 10 9 8 7 5 5 6 8 9 8 4 2 -1 -3 -3 0 3 2 4 5 7 8 8 9 9 9 10 11
9 10 9 6 5 4 3 2 1 1 2 2 2 2 2 1 2 3 3 3 5 6 7 7 7 8 8 9 10 10 8 8 4 1 4 5 5 6 6 8 9 10 10 10 11 11 11 10 10
9 10 7 6 5 4 4 3 3 1 2 2 2 2 3 0 1 3 1 1 -0 1 6 7 7 9 9 10 11 10 9 9 9 9 8 8 8 8 10 11 11 12 11 11 11 10 10 10 10
8 8 7 7 6 6 6 5 4 3 1 1 2 1 2 3 2 2 2 1 -1 2 4 7 8 9 11 12 12 11 11 10 9 10 10 10 10 11 11 11 12 11 11 10 10 10 10 9 9
7 6 7 8 7 7 6 6 4 4 3 2 2 2 1 2 3 3 3 2 -1 -0 2 6 9 10 11 12 12 12 12 12 11 11 11 11 11 11 11 12 11 11 10 9 9 10 10 8 3
4 4 5 6 6 6 6 6 5 4 3 2 3 2 1 2 2 3 2 2 0 -1 1 7 9 11 12 13 14 13 12 12 12 11 11 11 12 12 12 11 11 10 9 9 9 7 1 -3 -2
5 7 6 6 6 7 6 7 7 5 4 3 3 2 2 2 2 2 -1 1 1 -0 0 7 10 11 12 13 14 13 12 11 11 11 11 11 11 11 11 11 10 9 9 6 1 -2 -2 -3 -5
6 6 8 5 6 6 6 9 5 4 3 3 3 2 2 2 3 1 -1 0 0 3 3 8 10 10 12 13 13 12 12 11 11 11 11 11 11 11 10 10 9 3 -3 -3 -3 -5 -7 -9 -10
7 8 7 7 5 7 7 8 4 4 4 3 3 2 3 2 1 0 0 1 2 6 7 8 9 9 11 13 13 12 11 11 11 11 10 10 11 11 10 3 -3 -3 -5 -6 -8 -9 -10 -10 -11
6 7 6 5 6 6 7 8 6 4 4 3 3 2 2 1 0 -0 0 1 2 4 6 8 8 10 11 12 13 12 11 11 11 10 10 10 8 -1 -3 -4 -5 -6 -7 -8 -9 -10 -11 -12 -12
5 5 5 4 3 5 5 7 6 5 4 3 3 3 2 -0 1 2 2 1 2 3 4 3 4 8 10 12 12 11 11 10 10 10 8 -3 -3 -3 -4 -5 -4 -4 -4 -7 -9 -10 -11 -13 -14
4 5 6 4 3 4 6 8 6 4 5 4 3 3 2 1 2 2 2 2 4 5 6 6 5 9 11 12 12 11 10 10 10 4 -4 -3 -3 -4 -3 -2 -1 -2 -4 -7 -10 -12 -14 -16 -19
5 5 4 4 4 4 4 4 5 6 4 4 3 3 2 2 2 2 4 6 7 7 9 8 8 10 12 13 12 11 11 9 1 -4 -3 -3 -4 -2 -2 -1 -1 -2 -5 -8 -11 -14 -17 -19 -20
5 3 4 5 6 7 5 8 6 6 6 4 3 2 2 2 3 4 6 8 8 9 10 10 11 12 12 12 12 11 9 2 -4 -3 -3 -4 -2 -1 -1 -1 -2 -4 -8 -11 -15 -18 -20 -20 -21
4 2 3 4 5 6 6 8 6 6 6 6 3 2 2 2 2 4 7 8 9 10 11 11 11 11 11 10 8 6 -0 -4 -3 -3 -3 -3 -1 -1 -1 -2 -3 -6 -10 -13 -18 -20 -21 -23 -24
2 4 4 4 6 8 4 7 5 6 5 5 2 1 2 3 3 5 7 9 10 10 11 11 11 11 9 6 1 -3 -4 -3 -3 -3 -2 -1 -1 -1 -1 -3 -4 -8 -12 -15 -18 -21 -24 -25 -22
2 3 5 6 7 6 3 7 5 3 2 2 2 1 2 3 4 6 7 7 9 10 10 10 9 7 3 -0 -3 -4 -3 -3 -3 -2 -1 -1 -1 -2 -2 -3 -6 -10 -14 -18 -21 -25 -25 -23 -20
3 3 5 5 6 4 6 8 7 4 2 2 3 1 2 3 4 5 5 6 5 6 7 5 4 2 2 0 -3 -3 -2 -2 -2 -2 -1 -2 -2 -2 -3 -5 -9 -13 -16 -21 -26 -26 -23 -20 -19
4 5 1 4 5 7 8 8 7 6 4 -0 1 2 3 4 4 4 4 4 4 4 3 3 3 2 2 -1 -3 -2 -2 -2 -2 -1 -2 -2 -2 -2 -3 -6 -10 -14 -21 -27 -25 -22 -19 -19 -20
2 2 5 4 6 7 8 9 9 6 3 2 2 2 3 4 5 4 4 4 3 3 2 2 1 -1 -2 -2 -2 -2 -2 -2 -2 -2 -2 -2 -2 -3 -4 -8 -13 -20 -26 -25 -21 -18 -19 -21 -22
4 4 3 2 5 9 9 8 4 5 2 3 3 2 3 4 4 4 4 3 1 0 -0 -1 -1 -2 -2 -2 -2 -2 -2 -2 -2 -2 -2 -2 -2 -3 -7 -12 -20 -25 -24 -19 -18 -20 -21 -21 -20
2 2 2 4 3 5 8 6 -1 2 1 2 2 2 3 4 4 4 3 2 1 0 -0 -1 -1 -2 -2 -3 -3 -3 -3 -3 -3 -3 -2 -2 -3 -6 -12 -19 -24 -23 -18 -17 -20 -21 -21 -20 -19

GFSSGP_850_dewp_015.txt.gz
Dewpoint
1 1 -1 1 -1 2 4 3 -1 -0 1 -0 0 0 0 2 2 5 7 7 4 4 0 4 14 14 13 12 12 11 11 9 3 2 12 11 10 10 8 10 6 2 -0 -2 2 6 6 9 9
2 1 -0 1 2 1 1 -1 -0 -2 -2 -0 0 2 1 6 8 6 6 4 3 0 -2 2 10 13 13 12 12 12 11 4 2 2 9 9 10 10 10 8 7 7 1 -2 -3 -2 0 0 3
3 1 2 3 3 3 0 -1 -1 -3 -4 -0 0 3 4 8 8 5 6 3 3 1 -0 3 7 12 11 11 11 10 6 3 2 9 10 11 10 10 9 7 8 9 3 -3 -4 -3 -2 -3 -3
4 3 2 4 5 2 -2 0 -2 -4 -4 -1 0 2 5 5 8 8 5 4 3 3 1 2 7 9 10 10 8 8 5 3 1 4 10 10 10 10 10 10 9 8 1 -2 -1 -1 -2 -1 -0
4 4 5 5 5 2 0 0 -1 -2 -3 -2 -1 2 5 5 6 7 4 4 4 4 3 3 6 9 8 9 8 8 5 1 -3 1 8 10 10 11 11 10 10 9 0 -0 1 1 1 1 2
6 4 6 6 4 2 1 1 -0 -3 -4 -1 -0 3 5 6 5 4 4 6 8 6 6 5 5 7 8 8 9 9 5 3 -2 1 5 7 10 10 10 11 11 6 0 1 1 2 3 4 6
6 5 7 6 5 4 3 2 1 -3 -2 0 -0 3 4 6 4 6 6 8 9 9 8 8 6 5 8 8 8 8 6 6 2 -1 1 3 7 9 10 10 3 1 1 3 5 6 8 9 9
7 6 7 6 6 5 2 2 1 -4 -3 -1 -0 3 3 3 4 8 9 9 9 10 10 9 7 4 6 6 6 6 7 7 3 1 -2 -2 5 8 4 0 2 4 6 8 8 9 9 10 11
8 8 9 7 6 4 2 2 1 1 -0 -0 -0 1 1 1 2 8 8 9 10 10 10 10 8 4 5 5 5 7 7 6 5 1 -2 -2 2 2 3 4 7 8 9 10 11 10 11 10 10
9 9 8 6 4 4 3 3 2 2 2 2 2 2 2 1 1 3 6 7 8 9 9 10 9 6 6 5 7 10 10 6 5 2 -1 4 6 6 6 8 9 10 10 11 11 11 10 10 10
8 9 7 6 6 5 4 4 4 3 2 1 2 2 3 1 2 3 3 2 1 2 7 8 8 8 8 7 10 11 10 9 7 5 7 7 7 8 9 11 11 11 11 11 11 10 10 10 9
7 7 7 7 7 7 7 6 4 3 2 3 2 2 2 2 1 2 2 2 3 1 3 5 8 9 9 10 11 11 10 10 9 10 10 10 10 11 11 10 11 10 10 10 9 9 9 9 9
6 6 6 6 7 7 7 7 7 5 5 4 4 3 2 2 2 2 3 3 2 2 3 4 7 9 10 11 12 12 11 11 10 11 11 11 11 11 10 11 11 10 10 9 9 9 9 9 4
5 5 5 5 6 6 6 6 6 6 5 5 4 3 2 2 1 2 2 2 2 2 1 1 6 9 10 12 13 13 12 12 11 11 11 11 11 11 11 11 10 10 9 9 9 9 3 -1 -2
5 6 5 5 5 6 6 7 7 6 6 6 5 4 3 2 2 2 2 2 1 2 1 -1 3 9 11 12 13 13 13 12 11 11 11 10 11 11 11 10 10 9 9 9 2 -2 -2 -4 -7
6 6 8 4 5 5 6 7 5 5 5 5 5 4 3 2 2 2 2 3 2 1 1 0 4 9 11 13 13 12 12 11 11 11 11 11 10 10 10 10 9 9 -1 -3 -4 -6 -8 -10 -11
7 7 7 5 4 6 7 7 4 3 4 4 4 4 3 3 2 2 2 2 2 0 2 1 7 10 12 13 13 13 12 11 11 11 11 10 10 10 10 9 1 -4 -6 -7 -8 -9 -10 -10 -11
6 7 6 6 5 5 6 6 4 4 5 4 4 3 3 3 2 2 2 1 2 3 4 6 9 11 13 13 13 12 12 12 11 11 10 10 10 10 4 -3 -5 -5 -5 -5 -6 -8 -10 -11 -12
5 6 6 4 3 4 5 5 4 4 5 5 5 4 4 3 3 2 1 1 2 3 6 8 11 12 11 12 13 12 12 12 11 10 10 9 6 -3 -4 -4 -3 -2 -2 -4 -7 -9 -11 -13 -13
4 5 5 4 3 4 4 4 3 3 3 5 5 4 4 4 3 1 1 2 2 2 3 6 8 9 11 12 12 11 11 11 10 10 9 -2 -3 -4 -4 -2 -1 -1 -3 -6 -9 -11 -13 -16 -17
4 5 4 4 2 2 2 2 -2 -1 1 3 5 4 4 4 3 1 1 2 2 2 3 4 5 6 11 13 12 11 10 10 10 9 -1 -3 -3 -3 -2 -1 -1 -2 -4 -8 -10 -13 -16 -18 -20
4 3 4 4 5 5 3 3 -1 1 1 2 4 5 4 4 3 2 2 2 3 4 5 7 6 8 12 12 11 11 10 9 9 2 -3 -3 -4 -2 -1 -1 -1 -2 -5 -9 -11 -15 -18 -20 -22
3 2 3 4 6 5 4 6 3 2 3 4 5 4 4 4 3 2 2 2 4 7 7 8 8 12 12 12 11 10 10 10 5 -3 -3 -4 -2 -1 -1 -1 -2 -3 -6 -10 -13 -16 -19 -22 -24
2 3 4 4 5 6 3 5 1 -1 3 4 3 4 4 3 3 2 3 5 7 8 9 10 11 12 12 12 12 11 11 7 -3 -3 -4 -2 -1 -1 -1 -2 -2 -4 -8 -12 -14 -18 -23 -24 -22
1 4 6 7 7 5 2 4 2 -0 0 1 3 3 3 3 3 3 4 7 8 9 10 11 12 12 11 11 10 8 5 -3 -3 -3 -2 -2 -1 -1 -2 -2 -3 -6 -10 -14 -18 -24 -25 -22 -20
3 3 5 5 5 4 0 5 2 1 -2 -2 -1 1 2 2 3 3 5 7 8 9 11 11 11 11 10 7 5 0 -4 -3 -3 -3 -2 -1 -2 -2 -2 -3 -5 -8 -13 -19 -24 -24 -22 -19 -19
5 6 2 3 3 7 5 5 5 5 5 3 2 2 2 3 3 3 6 8 9 9 10 11 11 11 8 3 -1 -3 -3 -2 -3 -2 -2 -2 -2 -2 -3 -4 -7 -12 -19 -23 -24 -22 -19 -19 -21
2 1 5 6 6 5 3 6 5 5 3 2 2 1 2 3 4 5 7 8 9 10 9 9 9 7 2 1 -1 -3 -2 -3 -3 -2 -2 -2 -2 -3 -4 -6 -10 -17 -22 -23 -20 -18 -19 -20 -21
4 4 3 3 3 4 4 1 4 3 2 2 2 2 3 4 5 6 6 7 7 8 8 6 5 3 3 2 -2 -3 -2 -3 -3 -2 -2 -2 -2 -3 -4 -8 -14 -19 -22 -20 -17 -18 -19 -20 -21
1 2 2 6 2 1 4 4 0 2 0 2 2 3 4 5 5 5 6 6 5 5 4 4 3 3 2 -1 -2 -3 -3 -3 -3 -3 -3 -3 -3 -4 -7 -13 -18 -22 -19 -16 -17 -18 -19 -21 -20

GFSSGP_850_dewp_018.txt.gz
Dewpoint
1 1 0 0 1 2 3 2 -1 -0 1 -0 -1 0 1 2 4 5 6 5 2 1 2 13 14 13 13 12 11 11 11 10 3 11 11 11 10 10 10 9 4 2 0 -1 4 6 6 10 10
1 1 -0 1 3 2 1 -1 -0 -1 -2 -2 1 3 2 5 7 6 6 3 1 -0 0 6 14 13 13 12 11 11 11 5 1 11 11 10 11 10 10 6 7 5 -1 -3 -3 -1 1 3 4
2 2 1 2 2 4 0 -2 -1 -1 -3 -2 0 3 4 7 7 5 4 3 1 -1 0 4 14 14 11 10 11 11 7 4 2 5 10 9 10 8 8 8 8 5 -2 -3 -4 -4 -3 -4 -4
3 3 2 3 4 2 -2 -2 -0 -1 -2 -1 1 2 4 6 7 7 6 3 2 -1 1 2 8 10 9 9 8 8 5 3 2 6 10 10 10 11 11 10 9 6 -1 -1 -1 -0 -0 -0 1
4 4 4 5 5 2 0 -0 0 0 -2 -3 -1 1 4 4 6 6 5 4 4 1 2 2 5 7 9 9 7 7 4 -0 -2 3 9 11 10 11 10 10 10 8 1 1 2 2 3 3 4
6 4 6 6 4 2 1 1 0 -2 -2 -3 -0 3 3 5 5 6 4 5 6 5 4 3 4 7 8 9 8 8 5 1 -4 1 7 10 10 10 10 10 10 6 2 2 4 5 6 8 8
6 5 6 5 4 3 2 1 1 1 -3 -2 0 2 2 5 4 5 5 7 9 9 8 6 4 4 8 8 9 9 6 4 -1 2 5 7 9 10 10 10 6 2 3 6 8 9 10 10 11
7 5 7 5 5 5 1 2 1 -3 -3 -3 0 2 2 3 2 6 7 8 9 10 10 9 8 5 5 7 9 8 7 6 3 2 1 2 6 9 9 3 3 6 8 9 10 10 10 10 10
8 8 8 7 6 4 2 2 2 1 1 1 0 1 1 1 2 3 6 8 9 9 10 10 9 7 5 6 7 8 8 7 6 4 0 -1 3 5 4 5 8 9 9 10 11 10 10 10 10
8 9 7 5 4 4 3 3 3 2 3 2 2 2 1 1 1 1 2 4 6 7 8 9 10 9 6 7 6 7 9 7 6 3 -0 -1 3 5 7 8 9 10 10 11 11 11 10 10 10
8 9 6 6 6 6 5 4 4 3 4 3 2 2 2 2 1 2 3 3 3 4 6 7 8 9 8 7 6 8 11 9 7 4 4 5 6 7 9 10 11 11 10 10 10 9 8 9 9
7 7 7 7 7 7 7 7 6 5 4 3 3 4 3 2 4 2 2 2 2 3 5 7 8 9 9 9 8 10 11 9 7 6 8 8 9 10 11 10 10 10 10 10 9 8 8 9 10
6 6 6 6 6 6 6 7 7 7 7 6 5 5 4 3 2 2 2 2 3 3 3 3 5 8 10 10 11 12 11 11 10 10 11 11 11 11 11 10 10 10 9 8 9 9 9 8 4
4 5 5 5 4 5 6 6 6 5 6 6 5 5 3 4 3 2 2 2 2 2 3 3 2 6 9 10 12 12 12 12 11 11 11 11 10 10 10 10 10 9 9 8 9 8 1 -2 -3
5 6 5 5 5 5 4 6 6 4 4 5 4 5 4 3 3 3 2 2 2 2 2 2 2 2 8 11 12 13 13 12 12 11 11 10 10 10 10 10 10 9 9 9 0 -3 -5 -7 -9
6 6 7 4 4 4 5 6 3 2 3 4 4 4 4 2 3 3 2 2 2 2 2 1 2 0 7 11 13 13 12 12 11 11 10 10 11 10 10 9 9 9 2 -4 -6 -7 -8 -9 -10
5 6 6 5 3 4 7 7 5 4 4 5 5 5 4 4 3 3 3 2 2 2 2 2 1 1 8 12 13 13 12 11 11 10 10 11 11 10 9 9 8 -3 -5 -5 -5 -6 -8 -10 -11
5 6 6 6 3 4 5 6 4 3 3 4 4 4 4 4 3 3 3 3 2 2 1 -0 2 3 10 12 13 12 12 12 11 11 11 11 10 9 8 6 -4 -4 -3 -3 -5 -9 -10 -10 -11
4 5 6 4 3 4 4 4 3 2 2 3 4 4 4 4 4 3 3 3 2 2 0 0 2 6 11 12 13 12 13 12 12 12 11 10 9 9 -1 -4 -4 -2 -2 -3 -7 -10 -10 -11 -12
3 4 4 2 2 3 3 3 1 0 1 2 4 4 5 4 4 3 4 3 2 2 1 1 4 9 12 12 13 12 10 12 12 11 10 9 8 -3 -4 -3 -2 -1 -2 -3 -6 -9 -11 -12 -13
3 4 3 3 2 1 2 1 -4 -5 -4 -2 -1 -0 1 4 4 3 4 2 2 1 2 2 6 11 12 13 13 12 11 12 11 10 9 9 -3 -4 -3 -1 -1 -1 -2 -3 -5 -9 -11 -13 -16
4 1 3 4 4 4 1 2 -2 -2 -2 -6 -4 -2 1 2 2 4 3 3 2 1 2 3 5 9 12 13 13 11 10 10 9 8 8 0 -3 -3 -1 -1 -1 -1 -2 -3 -6 -10 -13 -16 -20
2 1 3 4 5 5 4 6 1 -0 0 -1 1 1 1 1 -0 2 3 3 2 2 2 4 5 6 8 12 13 10 10 9 8 8 4 -3 -3 -2 -1 -1 -1 -1 -2 -4 -7 -11 -15 -20 -23
1 2 3 4 5 6 3 4 0 -2 -3 -3 -1 -2 -0 1 3 3 3 3 2 3 4 6 7 7 9 12 10 10 10 9 8 7 -2 -3 -3 -1 -1 -1 -2 -2 -3 -5 -9 -14 -20 -23 -22
2 6 6 6 6 4 1 3 1 -3 -3 -3 -2 -1 -0 -0 2 4 3 3 3 4 6 8 7 7 11 10 10 10 9 9 10 5 -3 -4 -2 -1 -1 -2 -2 -3 -4 -7 -12 -19 -22 -22 -20
3 3 5 6 4 3 1 4 2 -1 -3 -3 -4 -3 -0 1 2 3 3 3 3 4 7 8 9 11 11 10 10 10 10 10 5 -3 -3 -3 -2 -2 -2 -2 -2 -4 -6 -11 -17 -21 -21 -19 -19
5 5 2 4 4 6 3 2 -0 2 2 2 0 -1 -2 -0 2 3 3 3 4 6 8 9 11 12 11 11 11 10 7 1 -3 -3 -3 -3 -2 -2 -2 -2 -3 -5 -9 -15 -19 -21 -18 -18 -19
4 3 6 5 5 5 3 1 1 0 2 1 1 3 1 -0 1 3 3 4 6 7 9 11 11 12 11 10 7 5 -2 -3 -3 -3 -3 -3 -3 -2 -2 -3 -4 -8 -13 -19 -20 -18 -17 -18 -19
4 5 5 4 5 4 2 -1 1 3 2 2 2 1 1 2 2 3 4 6 7 9 10 11 11 10 10 6 3 -2 -3 -3 -3 -4 -3 -3 -3 -2 -3 -4 -6 -12 -18 -19 -17 -16 -16 -17 -18
0 2 2 3 2 3 2 -0 -1 2 2 2 4 2 2 2 3 4 5 7 9 9 10 11 10 10 8 3 -1 -2 -3 -3 -4 -4 -3 -3 -3 -3 -3 -5 -10 -16 -19 -17 -15 -15 -16 -17 -18

GFSSGP_850_dewp_021.txt.gz
Dewpoint
1 1 1 -0 3 2 3 2 0 1 1 -0 -1 0 1 1 4 6 6 7 4 2 4 13 14 14 13 12 11 10 10 8 4 10 11 10 10 9 10 9 2 1 -2 -2 4 8 10 10 11
1 1 0 -0 4 4 3 -0 1 -0 -1 -3 1 2 1 5 6 7 8 5 4 1 3 9 14 13 12 12 11 10 9 3 5 11 11 11 10 8 6 7 5 1 -2 -3 -2 1 2 7 7
1 1 1 3 3 4 3 -1 -1 -0 -1 -3 0 2 2 6 7 7 6 4 2 1 4 9 14 13 12 11 10 10 6 2 -1 12 11 7 7 7 9 9 7 0 -2 -3 -3 -2 -2 -3 -3
2 3 1 4 4 3 -0 -3 -0 0 -1 -1 -0 2 4 6 7 7 4 3 4 0 4 9 15 14 11 9 9 8 4 2 0 8 10 10 10 10 11 10 9 4 0 1 1 1 1 1 2
4 3 4 5 4 2 1 -0 0 1 -1 -2 -2 1 3 4 6 7 6 4 2 0 5 8 15 14 9 8 7 7 4 1 -0 8 10 10 10 10 10 9 10 5 2 2 3 3 4 5 6
5 3 5 6 4 2 1 1 1 -0 -1 -2 -1 2 3 5 5 6 4 4 4 1 3 7 13 11 10 9 7 7 5 1 -2 5 10 10 10 10 10 10 9 4 3 4 5 7 8 9 10
6 5 6 5 4 3 2 1 0 0 -0 -2 -0 2 2 5 5 5 5 7 6 5 5 5 7 10 10 9 8 7 5 1 -2 3 7 10 10 10 10 9 8 2 4 8 8 10 10 10 9
7 5 6 5 4 3 1 1 1 -1 -3 -2 0 1 2 4 4 4 6 8 9 8 8 8 7 8 11 10 9 8 6 4 1 1 3 6 9 10 10 8 3 7 8 9 10 10 9 10 10
7 8 8 6 5 3 2 2 2 2 1 2 1 0 1 1 4 4 5 7 8 9 10 10 10 9 8 10 9 9 8 7 4 2 -0 0 5 8 6 3 8 9 9 10 11 10 10 9 10
8 9 8 5 4 4 3 3 3 3 2 3 2 1 2 2 2 3 2 3 5 7 9 10 11 10 9 8 9 8 8 7 6 3 1 -1 3 4 5 7 9 10 10 11 10 10 10 9 9
8 8 6 6 6 6 6 6 5 4 5 3 3 2 2 2 3 4 5 3 3 5 7 9 10 11 11 7 9 8 9 9 6 4 0 1 5 7 8 9 10 11 10 9 9 9 8 8 9
7 6 7 7 6 6 7 7 7 6 5 4 3 3 4 4 3 4 6 5 3 3 5 7 8 10 11 10 8 8 9 11 8 4 4 7 7 8 10 11 9 10 9 9 9 8 8 9 9
6 6 6 6 5 5 5 6 6 6 6 5 6 5 5 4 3 3 3 5 5 3 3 3 5 6 9 10 9 9 10 11 9 6 8 9 10 10 10 10 10 9 9 8 8 8 9 5 -1
4 5 5 5 4 4 5 5 6 4 3 2 3 4 4 4 4 3 3 2 2 3 3 3 3 4 6 9 10 10 12 11 10 10 10 10 10 10 10 9 10 9 8 8 8 8 -1 -4 -6
6 6 5 5 5 5 4 5 6 4 4 4 3 2 1 2 2 3 3 2 2 2 2 2 2 2 3 7 11 12 12 12 11 11 11 10 10 10 10 9 9 9 8 9 2 -4 -6 -8 -9
6 6 6 3 4 4 4 4 2 1 3 4 4 3 2 -2 -2 1 2 3 3 2 2 2 2 2 2 5 11 12 13 12 11 11 10 10 10 10 10 9 9 9 8 -3 -5 -5 -6 -7 -10
5 6 7 4 3 4 6 6 4 4 4 4 4 4 4 4 2 -2 -2 2 3 3 2 2 2 1 2 4 12 12 13 12 11 11 10 10 10 11 10 9 9 7 -4 -5 -4 -5 -9 -11 -12
5 6 5 4 3 3 4 4 2 2 2 2 2 2 2 3 4 4 3 2 3 3 2 2 2 2 2 3 11 12 13 12 12 11 11 11 11 10 9 8 7 -4 -4 -3 -4 -7 -10 -12 -12
4 5 5 4 2 3 3 3 1 0 1 1 1 1 1 2 1 2 3 4 3 3 3 2 2 1 2 5 11 12 13 12 12 11 11 11 11 9 9 6 -4 -4 -2 -2 -4 -6 -9 -11 -12
4 5 5 3 1 2 2 2 0 -0 -0 -1 -1 -0 1 -1 -1 0 1 2 4 3 3 2 2 3 4 7 10 12 12 12 11 12 11 10 10 9 5 -4 -4 -1 -1 -2 -3 -4 -7 -10 -12
3 4 4 3 2 1 2 2 -3 -5 -3 -3 -2 -2 -2 -0 -1 -3 0 2 3 3 3 2 2 3 6 9 12 12 12 11 12 11 11 9 8 6 -3 -4 -1 -1 -1 -2 -2 -3 -7 -10 -14
4 2 3 3 3 3 1 3 -3 -4 -5 -5 -6 -6 -4 -3 -2 -5 -2 1 3 3 2 2 3 5 8 11 12 12 11 11 11 11 10 8 4 -3 -3 -2 -1 -1 -1 -2 -2 -4 -7 -11 -16
3 1 2 3 4 4 3 5 1 -1 -1 -2 -2 -3 -4 -5 -4 -4 -5 -1 3 3 2 2 3 6 10 12 13 13 11 11 11 10 7 6 1 -3 -3 -1 -1 -1 -1 -2 -3 -5 -9 -14 -18
2 3 3 4 4 6 2 3 1 -2 -3 -5 -5 -5 -5 -3 -2 1 0 -2 3 3 3 2 3 4 10 13 13 12 11 10 10 8 7 5 -3 -3 -2 -1 -1 -2 -2 -2 -4 -7 -12 -16 -19
2 6 6 6 6 5 1 4 1 -3 -3 -3 -4 -4 -5 -4 -4 -2 1 2 3 3 3 3 3 5 8 12 12 12 11 10 9 8 7 1 -3 -3 -1 -1 -2 -2 -2 -3 -5 -9 -14 -18 -19
4 4 5 5 4 3 1 4 1 -2 -3 -4 -4 -4 -4 -4 -3 -1 -0 3 3 3 3 3 5 7 7 11 12 12 10 9 8 8 6 -3 -4 -2 -1 -2 -2 -2 -2 -4 -8 -13 -17 -18 -18
5 5 2 4 3 5 2 1 -1 -2 -1 0 0 1 1 0 -2 -3 1 3 4 3 3 3 6 7 8 10 12 11 9 9 9 6 -3 -4 -3 -2 -2 -2 -2 -2 -3 -6 -11 -16 -18 -17 -17
4 2 5 5 5 5 3 3 2 -2 -3 1 1 2 2 2 1 -2 2 3 3 3 4 6 7 7 9 11 10 10 9 8 6 -0 -4 -4 -3 -2 -2 -2 -2 -3 -6 -9 -14 -17 -17 -15 -16
4 5 5 4 5 4 3 -1 -5 -5 -1 2 2 3 3 3 1 0 -1 2 4 5 7 8 9 10 10 10 10 9 8 5 -2 -4 -4 -3 -3 -2 -2 -3 -3 -5 -9 -13 -17 -16 -15 -15 -15
1 2 3 5 3 4 3 1 -1 2 2 2 2 3 3 4 3 3 2 4 5 7 9 10 10 10 10 9 8 6 3 -3 -3 -4 -4 -3 -3 -3 -3 -3 -5 -8 -13 -17 -17 -14 -14 -15 -16

GFSSGP_850_dewp_024.txt.gz
Dewpoint
1 1 0 1 2 2 2 -3 -1 0 1 0 -1 0 1 1 5 6 5 8 5 5 15 15 14 13 13 11 9 8 9 3 6 8 8 9 10 10 10 9 1 -1 -0 5 3 10 11 11 11
1 1 1 1 2 3 0 -2 -1 -0 -1 -1 -1 1 1 2 6 9 9 6 6 9 15 15 15 14 13 11 10 9 7 2 11 12 10 10 9 8 6 5 2 -2 -3 -3 0 5 5 10 9
1 1 1 1 2 2 1 -1 -3 -0 -1 -3 1 2 2 4 8 9 8 4 7 10 14 14 14 14 13 11 10 9 4 -0 11 12 10 6 6 8 9 8 5 -0 -1 -3 -3 -2 -3 -4 -4
4 3 1 2 2 1 1 -2 -0 -0 -1 -1 -1 1 3 5 8 9 5 6 5 13 14 11 14 13 13 11 10 9 3 -1 8 12 8 9 10 10 11 10 9 3 2 2 2 1 1 2 3
4 2 1 2 1 -0 -0 -1 -1 -0 -0 -1 -2 1 2 6 6 7 5 5 11 13 14 9 14 14 14 10 9 7 3 0 2 8 9 10 10 10 11 10 9 4 3 3 3 3 4 7 8
3 2 2 2 0 0 -0 -1 -0 -1 -1 -1 -2 -1 2 5 6 6 6 6 6 11 13 13 15 15 13 10 8 7 4 -1 1 9 10 10 10 11 10 10 9 4 3 4 6 7 9 9 9
2 2 -0 -0 -0 -0 -0 -1 -1 -1 -2 -1 -1 -0 2 5 7 6 5 6 6 12 7 12 14 14 13 10 9 8 5 -1 -2 8 10 10 10 11 11 9 9 3 4 7 8 9 9 9 10
4 2 0 1 0 0 -1 -0 -0 -0 -1 -1 -0 -0 1 4 7 7 6 7 8 6 8 10 14 14 13 11 10 9 7 2 -2 3 8 10 10 10 10 8 5 5 8 9 9 9 10 10 10
7 3 3 2 1 -0 1 0 1 2 1 2 1 1 2 2 6 9 10 8 9 8 7 9 14 14 14 14 10 10 8 6 2 0 2 5 10 9 10 5 4 8 9 9 10 10 10 9 9
5 4 2 0 0 1 0 2 2 2 1 1 2 2 3 3 6 11 11 11 12 10 9 10 13 14 14 13 12 11 10 7 6 2 -1 5 6 8 5 4 8 10 10 10 10 10 9 8 8
4 5 1 4 3 4 3 4 4 2 2 1 1 2 3 4 5 8 9 10 11 12 12 9 10 13 14 13 13 13 12 12 12 8 2 -0 3 4 7 9 10 11 10 10 9 8 8 8 8
5 3 4 3 5 6 5 4 5 3 1 0 3 3 4 4 4 4 7 8 10 11 11 8 8 9 11 13 13 13 12 12 12 10 6 6 8 7 10 11 11 9 9 9 9 8 8 9 8
4 2 4 4 5 4 4 4 3 3 3 3 4 4 5 4 4 4 4 6 9 9 8 6 7 7 8 11 13 13 13 12 12 11 6 9 10 11 10 10 9 9 9 8 8 8 8 6 -3
3 4 4 4 3 3 3 2 2 2 2 1 2 2 2 3 3 4 4 4 4 7 8 9 5 6 8 9 11 13 13 13 12 11 8 9 10 10 9 9 9 9 9 8 8 8 1 -5 -6
5 5 3 2 2 2 3 3 3 1 1 1 1 0 1 1 1 3 4 4 4 3 4 7 6 7 7 10 13 13 13 13 12 12 11 10 10 10 9 9 9 9 8 8 8 -4 -6 -6 -7
4 4 5 2 3 3 3 2 -1 0 1 2 1 1 0 0 1 -0 2 3 4 4 3 2 2 2 6 12 13 14 13 13 13 12 10 10 10 9 9 10 9 9 8 7 -4 -4 -5 -9 -11
3 4 4 3 1 1 3 4 1 4 3 2 2 2 2 3 3 2 1 2 3 3 3 2 2 2 3 10 13 14 13 13 12 11 10 10 9 10 10 10 9 8 6 -4 -4 -5 -7 -10 -12
3 5 3 2 1 2 2 3 1 1 1 1 1 2 2 2 3 3 3 3 2 2 1 3 2 2 2 9 13 13 13 13 12 11 11 10 10 10 10 9 8 8 -4 -4 -3 -5 -6 -8 -11
2 3 3 2 1 2 1 1 -1 -1 -1 -1 -1 -1 -1 -0 1 2 3 3 4 2 0 3 2 2 2 8 10 12 12 13 12 12 11 10 11 11 9 8 8 -3 -3 -2 -3 -3 -4 -6 -9
3 3 3 1 0 1 1 1 -1 -2 -2 -3 -3 -4 -4 -4 -2 -2 1 2 3 4 3 3 3 2 3 7 7 11 12 11 12 13 12 11 11 11 8 8 -2 -3 -1 -1 -1 -2 -3 -5 -8
2 3 3 3 1 0 1 1 -3 -6 -6 -5 -4 -4 -4 -4 -4 -4 -2 0 2 3 4 3 3 3 3 5 10 11 12 12 13 13 12 11 10 9 5 -1 -3 -2 -1 -1 -1 -1 -3 -6 -9
4 -0 1 2 2 4 -0 3 -2 -4 -4 -5 -6 -6 -5 -5 -4 -4 -4 -2 -0 2 1 3 3 3 4 5 6 8 10 12 12 12 12 10 9 3 0 -3 -3 -1 -1 -1 -1 -1 -3 -6 -11
2 -0 1 1 2 3 2 4 -1 -3 -2 -4 -5 -6 -6 -5 -5 -4 -3 -3 -2 1 1 3 3 4 4 4 7 11 12 12 12 11 11 10 6 -1 -3 -3 -1 -1 -1 -1 -1 -2 -4 -7 -12
1 2 2 2 4 6 2 4 -0 -3 -4 -5 -6 -6 -6 -7 -4 -3 -3 -1 -1 2 0 3 3 4 5 7 9 12 13 12 11 10 10 9 3 -2 -3 -2 -1 -1 -1 -1 -2 -3 -5 -9 -14
2 4 4 5 6 3 -2 1 0 -5 -5 -5 -6 -7 -5 -5 -5 -3 -1 0 3 3 0 4 3 4 5 9 11 12 13 12 11 10 10 7 3 -0 -3 -2 -1 -1 -1 -2 -2 -4 -7 -12 -16
3 3 3 3 1 -1 -1 3 -2 -6 -6 -6 -5 -4 -0 1 1 -2 -2 1 3 2 -0 4 4 4 6 9 12 12 12 12 10 10 7 6 6 -2 -3 -2 -2 -2 -2 -2 -4 -6 -10 -15 -17
3 5 1 4 2 4 -0 -3 -5 -6 -6 -5 -5 -1 1 2 3 2 -0 1 3 5 1 3 4 5 7 10 11 10 12 11 10 7 6 5 3 -3 -2 -2 -2 -2 -3 -4 -5 -9 -13 -16 -16
3 1 5 5 4 3 -1 -3 -3 -5 -5 -4 -2 -1 1 2 2 2 1 2 4 6 4 5 6 6 7 9 11 11 11 10 9 6 5 4 -2 -3 -2 -2 -3 -3 -4 -5 -8 -12 -15 -16 -14
4 5 6 3 4 3 0 -3 -8 -6 -7 -5 -2 -0 2 3 3 4 2 4 6 7 7 6 7 7 7 9 10 10 10 9 6 3 1 -1 -4 -3 -3 -3 -3 -4 -5 -7 -11 -15 -16 -15 -14
-2 1 2 5 5 5 5 3 -6 -5 -2 -0 -2 -0 2 4 4 4 5 6 7 8 7 6 7 7 8 9 10 10 9 6 5 2 -3 -5 -4 -3 -3 -3 -4 -5 -7 -10 -15 -16 -15 -15 -15

GFSSGP_850_dewp_027.txt.gz
Dewpoint
2 5 3 2 2 2 2 0 -4 -1 -2 -2 -1 -0 1 2 4 6 10 12 11 14 15 12 13 10 10 10 8 7 8 2 -1 5 10 10 10 10 10 8 0 -2 3 7 7 11 11 11 11
1 3 3 1 3 3 2 -2 -3 -5 -2 -1 -1 -1 0 2 4 10 11 11 12 14 15 14 14 13 11 11 10 9 5 6 11 11 9 10 9 9 4 2 -2 -4 -4 -3 -0 6 8 9 8
2 3 1 2 2 2 1 -2 -3 -3 -2 -2 -1 0 1 4 7 9 11 7 12 14 15 15 14 14 13 11 10 9 2 6 12 12 10 5 5 7 8 6 2 -1 -3 -5 -4 -2 -3 -2 -2
4 2 0 2 2 -0 -1 -2 -3 -2 -2 -1 -0 0 3 6 7 9 11 10 12 14 14 15 14 14 13 12 10 8 1 2 12 10 4 7 9 10 9 8 5 1 1 1 0 0 1 2 3
4 1 2 1 -0 -2 -3 -2 -2 -2 -2 -1 -1 0 2 7 9 10 12 11 12 13 15 13 14 14 13 12 9 7 1 -2 10 10 7 9 10 10 10 10 8 3 2 3 3 3 5 7 8
2 0 2 1 -0 -2 -4 -2 -2 -2 -3 -2 -1 -0 2 8 9 11 11 11 12 13 14 14 14 14 13 11 9 6 2 -2 3 8 9 10 10 11 10 10 9 4 3 5 7 8 8 9 9
3 2 1 -0 -2 -3 -3 -2 -2 -2 -3 -3 -2 -1 2 6 11 11 12 11 12 13 14 15 14 14 13 11 9 8 4 -2 5 8 10 10 10 11 10 10 9 3 4 7 9 9 9 10 10
2 1 2 -0 -2 -2 -4 -2 -2 -2 -2 -2 -1 -1 1 5 11 11 11 12 12 13 13 14 16 14 12 12 10 9 6 -1 -0 8 9 10 10 11 11 9 7 3 7 8 9 10 10 10 9
5 4 3 1 -2 -2 -4 -2 -2 -1 -1 -1 -1 -1 3 5 11 11 11 12 12 13 13 13 14 15 14 13 10 9 7 2 -1 3 6 9 11 10 10 9 4 6 8 9 10 10 10 9 8
5 4 1 -3 -4 -2 -2 -1 -1 -0 -0 -2 0 1 3 5 8 10 11 11 12 12 13 13 13 14 14 14 13 11 10 6 3 1 1 5 11 11 11 4 4 8 9 9 9 9 9 8 7
3 4 -1 -2 1 1 0 -1 1 1 1 -2 -1 0 2 3 6 8 9 9 11 12 12 13 13 13 14 14 14 13 13 12 11 10 9 9 9 7 6 4 6 9 10 9 9 9 8 8 8
3 1 1 0 2 4 3 1 1 1 1 -1 -1 1 2 3 3 4 6 8 9 10 12 13 14 14 14 15 14 13 12 12 12 12 10 9 8 8 9 10 11 10 9 9 9 8 8 8 7
3 2 0 1 3 3 4 3 2 2 2 1 1 1 3 3 3 3 4 5 7 9 11 12 13 14 14 14 14 13 12 12 12 12 11 8 9 10 10 11 9 9 9 9 8 8 8 7 -3
2 2 1 2 2 2 2 1 1 0 0 1 1 1 1 2 3 3 3 4 4 7 9 11 13 14 14 14 14 13 12 12 12 12 11 10 10 10 11 9 9 9 9 8 8 8 7 -4 -6
4 5 3 3 2 2 2 3 3 1 -0 -1 -1 -1 -1 -0 -0 1 2 3 4 3 6 8 11 13 14 14 13 13 13 12 13 12 11 11 11 11 9 9 9 9 9 8 8 6 -5 -6 -9
4 3 5 1 1 1 1 3 -2 -2 -1 -0 -0 -1 -1 -2 -2 -1 0 2 4 4 3 4 8 11 13 13 13 13 13 12 13 12 11 11 11 10 9 9 9 8 8 8 7 -4 -5 -8 -10
4 5 4 2 1 1 3 4 -0 1 2 -1 -1 -0 -0 -1 -1 -2 -1 0 2 3 4 4 4 7 10 12 13 13 13 12 12 12 12 12 10 9 9 9 9 8 8 8 -4 -4 -6 -6 -9
4 4 3 2 -1 1 2 2 -0 -1 -0 1 1 1 0 0 1 1 1 1 -0 1 3 3 4 4 6 10 12 12 13 12 13 13 12 10 10 9 9 10 9 8 8 -3 -3 -3 -3 -4 -6
1 2 2 0 -1 0 0 0 -1 -2 -3 -2 -2 -1 -1 -1 -1 0 1 2 2 1 2 3 3 4 6 8 11 12 12 12 13 13 11 10 10 9 10 10 9 8 -0 -4 -2 -2 -2 -3 -4
2 3 2 0 -1 -0 0 0 -2 -3 -3 -3 -3 -3 -3 -2 -2 -3 -1 0 2 2 3 3 3 5 6 8 10 13 13 13 13 12 11 11 10 10 11 10 8 5 -4 -2 -1 -1 -1 -2 -4
2 3 2 2 -0 -1 -0 0 -3 -5 -5 -5 -4 -3 -3 -4 -4 -5 -5 -3 -1 2 2 3 3 5 7 9 12 13 13 13 12 12 12 11 11 11 11 9 7 -3 -3 -1 -1 -1 -1 -3 -4
3 -0 0 1 2 3 -1 3 -2 -5 -6 -6 -6 -6 -6 -5 -5 -5 -5 -5 -3 -1 2 3 4 6 8 10 12 9 7 9 11 12 12 12 11 11 10 6 -0 -3 -1 -1 -1 -1 -1 -2 -5
2 -0 1 1 2 3 2 4 -1 -4 -4 -5 -6 -6 -6 -5 -5 -5 -5 -5 -5 -4 0 3 5 8 10 10 11 10 9 9 11 12 12 12 11 10 9 2 -3 -2 -1 -1 -1 -1 -1 -2 -6
1 1 1 1 2 5 0 -0 -2 -5 -7 -8 -7 -6 -7 -8 -7 -6 -4 -4 -4 -3 -1 3 6 9 11 10 10 9 8 9 11 12 11 11 10 9 8 -3 -3 -2 -1 -1 -1 -1 -2 -3 -6
1 3 4 6 6 4 -4 -0 -2 -6 -7 -7 -7 -7 -7 -6 -3 -2 -4 -3 -3 -2 -2 4 6 10 10 11 9 8 10 9 10 12 11 11 10 8 3 -3 -2 -2 -1 -1 -1 -2 -2 -4 -9
3 2 3 3 2 0 -3 -0 -2 -8 -8 -7 -7 -7 -7 -6 -1 2 2 -1 -2 -1 0 5 8 10 10 8 9 10 10 9 11 11 11 10 9 6 2 -3 -2 -2 -1 -1 -2 -2 -3 -6 -11
3 5 1 3 1 3 -1 -4 -6 -7 -8 -9 -8 -7 -6 -3 1 2 3 2 -2 1 3 5 8 9 9 9 10 10 9 11 11 11 10 8 4 1 -2 -3 -2 -2 -2 -2 -2 -3 -5 -9 -14
1 1 4 5 5 3 -1 -3 -3 -6 -7 -8 -8 -8 -5 -1 1 2 3 2 -0 1 4 6 8 8 9 9 9 8 10 11 11 9 8 5 2 1 -2 -3 -2 -2 -2 -3 -3 -5 -7 -13 -15
3 4 3 1 5 4 3 -0 -7 -6 -6 -7 -6 -4 -2 1 1 2 4 2 2 2 5 7 7 8 8 8 7 9 10 10 9 9 7 5 1 -1 -4 -3 -3 -3 -3 -4 -5 -7 -11 -14 -15
-2 1 1 6 3 4 5 4 -5 -6 -6 -6 -6 -3 -1 -1 0 2 4 5 5 6 7 7 7 7 8 5 6 9 10 10 9 8 4 1 -3 -4 -4 -3 -3 -3 -4 -5 -6 -10 -15 -16 -15

GFSSGP_850_dewp_030.txt.gz
Dewpoint
1 5 3 3 6 5 5 3 -3 -2 -2 -4 -1 -1 -1 0 7 12 11 12 11 9 8 8 5 6 6 5 5 6 5 0 -1 9 9 11 11 10 9 -0 -3 -0 6 6 7 11 11 10 10
1 4 2 3 6 6 4 1 -0 -4 -4 -1 -1 -2 -2 2 8 9 12 12 14 12 9 9 6 6 8 8 8 8 1 5 7 12 10 10 10 9 3 -3 -5 -5 -5 -1 1 8 10 10 8
2 4 2 5 5 5 4 -0 -2 -4 -2 -2 -2 -2 -2 6 8 10 11 12 15 16 10 9 10 8 9 8 8 6 2 12 12 10 8 3 5 3 2 1 -1 -3 -6 -5 -3 -2 -5 -4 -4
6 4 2 3 4 2 1 -1 -3 -3 -3 -2 -1 -0 2 7 8 10 10 12 14 15 15 12 11 12 12 9 8 4 -1 11 12 7 3 7 8 8 7 5 1 0 -0 -1 -1 -1 0 2 3
5 4 4 3 2 1 -2 -3 -3 -2 -3 -2 -1 -0 6 7 8 10 9 12 14 14 15 15 11 14 12 11 8 3 -2 9 12 4 5 8 9 9 9 7 3 2 2 2 2 3 5 6 7
5 2 4 5 3 -1 -3 -4 -2 -2 -2 -3 -2 -1 7 8 9 11 10 12 13 14 15 14 12 13 12 10 7 2 -2 -2 9 8 7 8 9 10 10 8 4 1 2 3 5 6 8 8 9
4 5 4 2 1 -1 -3 -4 -2 -2 -2 -3 -3 -1 6 9 10 12 11 11 13 14 14 11 12 10 11 8 5 3 -2 -3 3 6 8 9 10 10 9 8 6 1 4 5 7 8 9 10 10
3 4 5 3 1 0 -3 -5 -2 -2 -2 -3 -2 -1 5 11 11 12 11 11 12 14 14 12 12 10 11 9 6 4 1 -3 3 6 9 9 10 11 10 9 5 1 5 7 8 9 9 9 7
3 6 6 4 2 0 -4 -4 -2 -2 -2 -2 -1 -2 3 10 11 11 11 12 12 13 13 14 12 13 13 11 7 5 3 -2 -1 4 7 9 10 10 10 7 3 4 6 8 9 9 9 8 7
5 7 6 1 -1 -1 -3 -3 -2 -2 -2 -1 -1 1 3 5 11 11 11 12 12 13 13 14 14 13 14 13 9 8 6 2 -2 0 4 8 11 11 10 9 3 6 8 8 9 9 8 8 7
4 6 1 -0 -2 0 2 1 -1 0 1 -0 -2 -0 1 4 7 10 11 11 12 12 13 13 14 14 14 13 13 11 7 6 2 -1 -0 5 11 11 10 6 4 7 8 9 9 8 8 8 8
3 2 2 1 0 2 3 2 2 1 0 0 0 -0 2 2 4 6 8 9 10 11 12 13 13 13 14 13 14 12 11 11 10 9 7 4 9 8 8 8 10 10 10 9 9 7 8 7 6
3 2 1 1 1 2 2 3 3 3 1 0 0 1 1 3 3 3 4 5 8 10 11 12 13 13 14 13 13 13 13 12 12 12 10 9 8 6 9 11 11 10 9 9 8 8 8 7 -2
0 2 2 1 0 1 2 2 3 1 1 1 1 1 1 1 3 3 3 4 4 7 10 11 13 14 14 14 13 12 13 12 12 12 11 9 8 9 10 10 10 9 9 9 8 8 8 -1 -6
3 5 3 3 2 2 2 3 3 2 1 -0 -0 -0 0 0 1 1 2 3 4 4 7 10 12 13 14 15 13 13 13 12 12 12 12 9 10 10 10 10 8 8 9 9 8 8 1 -6 -8
5 5 7 2 2 2 2 5 1 0 1 1 0 -0 -1 -1 -1 -0 -0 1 2 3 4 8 10 12 13 14 14 14 13 13 12 12 12 10 10 10 10 9 9 8 8 8 8 6 -5 -6 -7
4 6 5 3 1 1 2 4 1 0 0 1 0 -0 -1 -1 -1 -2 -2 -1 0 1 4 4 7 10 11 13 14 13 13 12 12 12 12 11 11 10 9 9 9 9 8 8 8 -4 -4 -4 -5
6 5 4 3 1 1 2 2 0 -1 -1 -1 1 1 0 0 -0 -1 -1 -2 -1 0 2 4 4 8 10 12 13 13 13 12 12 12 12 11 11 10 9 9 9 9 8 8 -2 -4 -3 -3 -3
4 3 2 1 -1 0 1 0 -1 -2 -2 -2 -2 -1 -0 -0 0 0 0 0 -1 -1 -0 1 4 4 5 10 13 13 13 12 12 12 11 11 11 10 9 9 9 8 8 4 -4 -2 -2 -1 -2
2 3 3 1 -1 -1 -0 0 -2 -2 -3 -3 -3 -3 -3 -2 -2 -1 -1 0 1 1 1 -0 3 4 4 4 10 12 12 12 12 11 12 12 11 10 9 10 10 9 8 -3 -2 -1 -1 -1 -1
2 3 3 2 0 -1 -0 0 -1 -3 -3 -3 -3 -3 -3 -3 -3 -3 -2 -2 -1 1 1 2 1 3 4 4 6 11 13 12 12 12 12 12 11 10 10 10 10 9 5 -4 -1 -1 -1 -1 -1
4 0 1 2 2 4 0 5 -0 -3 -4 -6 -6 -6 -4 -4 -3 -3 -3 -4 -3 -3 -0 0 2 3 3 5 7 11 12 12 12 12 12 12 11 11 11 11 10 8 0 -2 -1 -0 -1 -1 -1
2 1 1 2 3 3 2 4 1 -4 -3 -5 -6 -6 -6 -6 -6 -5 -5 -5 -5 -4 -3 -1 0 3 3 5 8 11 12 11 11 12 12 12 11 11 11 11 9 6 -3 -1 -1 -0 -1 -1 -1
1 1 1 2 3 5 3 2 1 -5 -6 -6 -7 -6 -6 -6 -7 -6 -6 -4 -4 -4 -5 -4 -0 2 3 6 10 12 10 10 11 12 11 11 11 10 10 10 8 3 -2 -1 -1 -1 -1 -1 -2
2 3 5 6 6 4 -2 2 -1 -6 -7 -6 -7 -7 -7 -7 -7 -5 -2 -0 0 -4 -4 -4 -3 3 4 8 10 12 11 11 9 10 11 10 10 10 9 9 6 2 -2 -1 -1 -1 -1 -1 -2
3 3 5 5 5 3 -1 3 -2 -6 -7 -8 -8 -7 -7 -7 -7 -1 1 2 3 2 -3 -3 -3 5 5 9 12 12 11 10 8 8 10 10 10 9 8 8 2 -2 -2 -1 -1 -1 -1 -2 -3
2 4 1 3 1 3 -0 -4 -6 -6 -7 -7 -8 -8 -7 -7 -6 -0 1 2 2 2 -0 -2 -2 5 7 10 11 12 10 9 8 8 10 10 10 8 8 5 1 -2 -2 -2 -2 -2 -2 -3 -5
0 0 5 4 3 4 -0 -2 -2 -4 -6 -7 -8 -7 -6 -6 -1 1 1 2 2 1 -0 -0 1 4 8 11 11 10 9 10 9 8 10 10 8 8 5 4 -1 -3 -2 -2 -2 -2 -3 -4 -7
2 3 3 2 4 4 3 0 -5 -4 -5 -5 -6 -4 -2 -0 1 1 1 1 3 2 1 1 3 6 9 10 10 9 9 9 9 8 8 7 7 5 4 0 -3 -3 -3 -3 -3 -3 -4 -6 -10
0 2 1 3 2 3 4 3 -4 -4 -5 -6 -6 -5 -4 -2 -1 -1 1 2 3 5 4 4 5 7 8 9 9 9 9 9 8 7 5 4 6 2 0 -3 -4 -3 -3 -3 -3 -4 -5 -9 -14

GFSSGP_850_dewp_036.txt.gz
Dewpoint
3 1 3 3 3 5 6 6 3 2 -2 -1 -2 -2 -1 4 5 7 10 10 11 11 9 7 7 6 5 4 3 3 4 7 11 12 10 8 10 9 -6 -5 8 8 11 11 11 11 10 9 7
3 1 4 3 6 6 5 3 2 1 -1 -2 -2 -2 -0 9 10 10 10 10 11 9 8 5 4 3 2 0 -2 -4 -3 -2 1 6 10 10 9 0 -8 -8 2 5 7 10 10 10 10 9 8
3 1 4 4 5 7 5 2 -0 -2 -2 -2 -3 -2 4 8 8 7 10 11 11 9 6 4 3 1 -1 -1 -2 -5 -2 6 12 11 9 7 2 -6 -6 -8 -8 -3 3 9 10 9 9 1 -4
3 3 5 4 6 4 3 0 -1 -1 -2 -3 -1 -0 8 9 8 8 10 10 11 10 7 4 5 3 2 -0 -4 1 4 8 9 5 0 -3 -4 -3 -3 -4 -7 -7 -6 -5 -2 -4 -3 -0 3
4 5 4 5 4 2 0 -0 -0 -1 -2 -3 -2 1 7 9 10 9 9 9 10 10 7 4 6 6 4 1 -3 1 3 6 4 -3 -2 -1 -1 -1 -2 -1 -2 -2 -2 -2 -1 1 4 6 8
6 5 6 5 4 1 -1 -1 -2 -3 -3 -2 -1 5 8 9 10 9 10 11 12 10 9 7 7 8 6 3 -2 -3 -1 3 -1 2 4 2 3 2 0 -0 0 1 1 3 5 6 7 8 9
5 4 6 5 4 3 1 -1 -2 -2 -2 -2 -3 4 10 10 11 9 11 14 14 13 10 11 9 9 8 6 0 -3 -3 1 0 2 5 6 9 5 2 0 1 2 4 5 6 7 9 9 8
3 4 6 4 4 3 -0 -2 -2 -3 -2 -3 -2 10 10 9 11 12 13 14 14 14 14 14 13 10 10 7 3 -2 -5 -2 2 3 5 8 9 8 5 2 0 3 5 6 8 8 8 7 7
3 5 7 6 4 2 -0 -0 -1 -2 -2 -2 0 4 1 8 11 12 12 13 14 15 15 14 14 12 10 8 5 2 -3 -4 0 5 6 9 9 8 7 4 1 4 5 6 7 8 7 6 6
4 6 6 3 3 2 1 1 1 -1 -2 -1 1 4 9 10 11 11 12 13 14 15 14 14 13 13 10 9 6 4 0 -3 -3 3 5 8 9 9 9 5 1 4 6 7 8 7 7 7 7
4 6 4 4 4 3 2 2 2 1 -0 -0 3 8 10 11 11 11 11 11 12 13 14 13 13 12 10 10 8 6 3 -1 -3 1 5 7 7 7 8 7 2 4 6 8 8 8 7 8 7
5 3 3 3 3 3 2 2 3 3 1 1 2 3 8 11 11 11 11 11 11 12 12 13 13 13 13 11 10 9 5 2 -2 -1 3 5 6 6 6 7 2 3 6 7 7 7 7 7 7
4 3 3 2 2 2 1 2 3 3 2 2 2 2 1 1 4 11 11 11 11 11 11 12 12 12 13 13 12 10 6 6 3 -1 0 4 4 6 8 8 5 4 7 8 7 7 7 7 6
2 3 2 2 2 3 2 2 1 2 2 1 1 1 1 1 1 6 11 11 11 11 11 11 12 12 12 13 13 12 10 7 6 4 -0 -1 1 5 7 9 7 9 9 9 8 8 7 7 5
3 4 3 3 3 3 2 3 3 1 -0 0 0 0 -1 -1 0 1 2 3 5 7 12 12 11 12 11 11 12 12 12 11 9 9 8 6 2 4 7 7 8 10 10 9 8 8 8 8 -2
4 4 6 3 2 2 2 4 2 1 1 1 0 -1 -1 -2 -3 -1 1 1 2 2 3 10 12 12 11 11 11 12 12 12 9 11 11 10 9 7 6 7 9 10 10 9 8 8 8 7 -5
4 6 6 5 2 2 3 4 1 0 1 1 1 1 0 -0 -2 -1 -3 -0 1 2 2 1 9 12 11 11 12 11 11 12 10 11 12 11 11 9 7 8 9 10 10 8 8 8 8 5 -5
6 6 5 5 2 1 3 4 2 1 1 1 1 -0 -0 -1 0 -0 -1 -2 -2 1 1 1 1 7 11 10 10 11 11 12 10 11 12 12 11 11 9 9 10 10 10 8 8 8 8 -4 -3
4 5 5 2 -0 -0 0 0 -1 -2 -2 -2 -2 -2 -2 -2 -1 -1 0 -0 -0 -1 -2 -1 -2 -0 6 10 10 10 11 12 11 12 12 12 12 11 11 10 10 10 10 8 8 8 5 -4 -2
6 4 4 1 -0 -0 0 0 -1 -2 -2 -2 -3 -2 -2 -2 -2 -2 -1 -1 0 0 -0 -1 -2 -2 -0 8 9 9 8 10 11 11 12 12 12 11 11 10 10 10 10 9 9 8 -2 -3 -1
3 3 3 3 1 -1 -0 -2 -2 -3 -3 -4 -4 -3 -3 -4 -4 -6 -6 -3 -1 -0 0 -0 -1 -2 -2 1 8 9 10 9 9 10 12 11 11 11 10 10 10 10 9 9 9 7 -3 -2 -1
4 1 1 2 2 4 -0 4 1 -2 -3 -4 -5 -5 -4 -4 -4 -5 -5 -5 -3 -2 -2 -1 -1 0 1 1 6 8 9 9 9 8 9 11 11 10 9 11 11 11 9 9 9 7 -3 -1 -1
3 0 1 1 2 1 1 3 0 -2 -2 -5 -6 -6 -7 -7 -7 -6 -6 -5 -5 -4 -4 -3 -3 -2 -1 1 1 5 8 9 8 8 8 8 10 10 10 10 11 11 10 9 9 7 -2 -1 -0
0 0 1 2 1 1 1 2 -0 -2 -4 -6 -8 -8 -8 -8 -8 -7 -6 -4 -5 -5 -4 -4 -4 -4 -3 -2 1 1 3 8 9 9 8 7 9 9 10 10 11 11 10 10 9 6 -2 -1 -0
0 0 1 1 3 3 0 3 1 -2 -5 -7 -6 -7 -8 -7 -8 -6 -5 -4 -3 -3 -4 -4 -5 -4 -4 -4 -4 0 2 2 7 7 7 8 8 9 9 9 11 11 10 10 8 5 -1 -1 -0
2 1 1 1 4 3 0 4 -2 -4 -5 -7 -7 -7 -7 -7 -7 -6 -5 -5 -6 -6 -6 -5 -5 -5 -5 -5 -5 -4 -0 3 4 6 7 7 7 6 7 9 11 10 10 9 7 1 -1 -1 -1
3 2 0 2 1 0 1 -2 -7 -7 -7 -7 -6 -2 -3 -2 -2 -3 1 1 0 -1 -2 -3 -4 -5 -6 -4 -4 -4 -4 1 3 4 6 7 7 7 8 10 10 9 10 5 5 -1 -2 -1 -1
1 0 2 -1 -1 2 0 -0 -2 -5 -4 -5 -5 -4 -3 -3 -2 -1 -0 1 0 -3 -5 -6 -8 -6 -4 -0 -1 -3 -3 -2 4 4 6 7 8 9 10 10 9 7 8 5 0 -1 1 -3 -2
2 2 2 1 0 2 4 2 -5 -5 -4 -4 -4 -4 -3 -1 0 1 1 -1 0 -3 -4 -5 -7 -8 -6 -0 -1 -2 -2 4 7 8 7 7 9 10 10 10 8 4 5 2 -1 1 -0 -2 -3
0 1 1 0 -2 1 1 3 -4 -5 -4 -4 -3 -2 -0 2 3 3 3 1 1 -2 -4 -5 -6 -8 -8 1 -1 -1 3 8 10 8 8 9 10 10 10 8 4 3 1 -1 2 2 -4 -5 -5

GFSSGP_850_dewp_039.txt.gz
Dewpoint
3 2 2 3 3 5 6 5 3 2 1 -2 -1 -1 0 1 4 6 10 10 9 10 9 5 8 11 11 10 11 12 12 12 12 12 12 9 9 8 -7 5 9 10 13 13 13 13 10 9 6
3 2 2 3 4 5 4 3 2 1 -1 -2 -2 -1 4 8 9 9 9 9 10 10 7 4 5 8 8 7 8 8 8 11 12 10 7 9 9 -2 -8 4 11 12 12 12 11 10 10 8 8
3 2 4 4 5 6 3 2 0 -1 -2 -2 -2 -0 3 7 8 8 8 8 11 10 6 1 2 5 6 5 4 2 1 1 2 7 9 8 2 -9 -9 -5 8 9 10 10 9 10 8 6 -4
3 2 3 5 6 4 3 1 -1 -0 -1 -2 -1 5 8 8 8 8 9 9 11 9 7 -0 -0 3 2 0 -0 -1 -1 5 10 8 4 -2 -8 -7 -9 -9 -7 1 7 10 9 8 -3 -2 1
4 5 5 6 5 3 1 0 -1 -1 -1 -2 -2 2 6 8 8 9 10 9 10 10 8 2 1 1 1 1 -3 -1 4 10 6 -1 -5 -7 -6 -5 -5 -5 -7 -7 -6 -6 -4 -1 2 5 7
5 5 6 6 4 2 0 -1 -2 -2 -2 -2 -2 5 7 8 8 8 10 10 12 10 8 4 3 3 3 1 -3 3 5 6 -1 -4 -5 -5 -4 -4 -3 -2 -2 -2 -2 -0 2 5 7 8 8
6 5 7 4 3 2 1 -1 -1 -1 -2 -3 -3 7 8 8 8 8 11 12 13 11 9 5 4 5 5 4 -2 3 2 4 -2 -0 -1 1 -0 -2 -2 -1 -0 1 2 5 6 7 8 9 8
5 4 5 4 4 2 -0 -1 -2 -3 -2 -2 -3 7 9 6 8 9 12 13 14 14 12 8 5 7 7 5 1 -0 1 6 -1 2 3 5 7 1 -0 -1 1 2 5 6 8 9 8 7 7
3 5 7 4 3 2 0 0 0 -0 -2 -2 -1 1 4 5 9 10 13 14 15 14 13 11 11 9 7 7 4 0 -0 5 2 2 5 7 7 5 2 1 1 3 5 7 8 8 7 6 6
4 5 5 3 2 2 1 2 2 1 -0 -2 1 4 8 9 9 9 11 13 14 14 13 14 13 13 11 9 6 3 -1 2 4 3 5 7 8 7 5 3 1 4 6 7 7 7 7 7 7
4 5 3 4 3 4 3 2 2 2 1 -1 1 10 11 11 11 10 10 9 8 13 13 12 13 14 13 11 7 4 2 -1 1 4 5 7 8 9 9 6 1 4 6 6 7 7 7 7 7
5 4 4 3 2 3 2 2 3 2 2 1 2 5 11 12 11 11 11 10 11 12 12 13 13 13 12 11 9 6 4 2 -1 1 3 6 7 8 9 7 3 3 6 7 7 7 7 7 7
4 3 3 3 2 3 2 2 2 3 1 1 2 2 2 6 11 12 11 11 12 12 12 12 12 12 12 12 11 10 8 5 2 -2 1 5 6 6 7 8 6 3 6 7 8 7 7 7 7
3 3 3 3 2 2 2 2 2 2 1 1 2 1 1 1 1 3 9 11 11 12 12 12 12 12 12 12 12 12 11 9 5 2 -1 1 4 6 7 8 8 4 6 8 8 7 7 7 7
3 3 3 3 3 3 2 3 3 2 1 1 0 -0 -1 -1 -0 0 2 9 12 12 11 11 11 12 12 12 12 13 12 11 8 6 4 -0 1 3 7 8 9 7 9 9 9 8 7 7 7
4 4 6 2 2 2 2 4 1 0 1 1 0 -1 -2 -3 -3 -1 -1 2 4 8 11 11 11 12 12 12 12 12 11 11 12 11 7 4 1 1 5 7 8 8 10 10 9 8 8 8 7
4 6 6 4 2 2 3 4 1 0 0 0 -1 -2 -3 -2 -2 -4 -3 -2 1 1 1 1 2 8 11 12 12 12 11 10 11 12 9 9 8 8 5 7 7 8 10 10 9 8 8 8 7
7 5 5 5 2 2 4 4 2 2 2 1 1 1 1 1 -1 -1 -2 -1 -1 -2 -0 0 -0 0 2 10 12 12 11 11 11 11 10 10 10 10 10 8 7 9 10 10 10 8 8 8 5
4 5 5 3 1 0 1 0 -1 -2 -2 -2 -2 -2 0 0 -1 -1 -0 -0 -0 0 -2 -3 -1 -1 -1 0 8 12 10 11 12 11 11 10 11 11 10 9 8 9 9 10 10 9 8 7 1
6 6 5 2 0 0 0 0 -1 -2 -2 -2 -2 -2 -2 -2 -1 -2 -1 -1 -1 -0 -0 -0 -2 -2 -1 -1 -0 7 10 10 10 10 10 10 11 10 10 10 10 9 10 10 10 9 8 8 -2
7 4 3 3 1 -1 -0 -1 -2 -4 -4 -4 -4 -3 -3 -3 -4 -5 -5 -5 -5 -2 -1 0 0 -0 -1 -1 -1 3 9 10 9 10 10 11 10 10 9 8 10 10 10 10 10 9 8 8 -2
4 1 1 2 2 4 0 4 1 -2 -3 -4 -5 -5 -5 -5 -5 -6 -6 -5 -5 -5 -6 -3 -2 -1 -1 -0 -1 -0 2 7 8 8 8 9 10 10 9 9 9 10 10 10 10 9 9 8 -2
3 0 1 1 2 1 1 3 1 -3 -3 -5 -7 -6 -7 -7 -8 -8 -8 -7 -5 -5 -4 -4 -3 -3 -2 -2 0 1 3 4 6 8 8 8 8 9 9 9 8 10 10 10 11 9 9 8 0
0 -0 -0 1 1 1 0 1 -0 -4 -5 -6 -7 -6 -7 -7 -7 -7 -7 -7 -6 -6 -6 -5 -4 -4 -3 -3 -2 1 4 5 7 9 9 9 8 8 8 10 9 9 10 10 11 10 9 8 3
-1 0 0 -1 2 1 1 2 -0 -3 -4 -5 -5 -5 -2 -3 -3 -6 -5 -2 -2 -4 -5 -5 -5 -5 -4 -4 -4 -4 -3 -0 3 4 6 8 9 8 8 8 8 8 8 10 11 10 9 8 -0
1 0 0 -1 2 2 0 3 -1 -4 -5 -5 -2 -3 -4 -4 -4 -3 -1 -0 1 1 -1 -2 -3 -5 -5 -5 -5 -4 -4 -4 -2 1 3 4 7 9 8 7 7 8 8 10 10 8 8 6 0
3 1 -0 1 -0 0 1 -2 -8 -6 -5 -5 -5 -4 -3 -2 -1 -0 1 -1 -1 0 0 -0 -2 -3 -5 -6 -6 -7 -6 -3 -4 -3 2 2 5 7 8 8 8 7 9 10 9 6 5 0 1
1 -0 2 -1 -2 1 -2 -0 -3 -5 -5 -5 -4 -4 -3 0 2 3 3 3 2 1 -1 -3 -5 -5 -6 -6 -6 -6 -7 -3 -2 -3 -3 2 4 5 7 7 7 8 10 9 8 3 0 -1 -2
2 2 1 1 0 1 3 -1 -4 -5 -4 -4 -4 -2 1 3 4 4 4 3 3 2 0 -1 -4 -5 -6 -7 -8 -8 -2 0 -1 -3 -2 0 5 7 8 8 9 9 9 8 5 -0 -1 1 0
0 1 1 -1 -1 0 1 2 -3 -4 -4 -3 -2 2 3 4 4 4 2 2 3 2 1 1 -3 -4 -5 -6 -6 -5 -3 0 1 -0 4 7 8 9 10 9 9 9 8 5 -1 -0 1 0 2

GFSSGP_850_dewp_042.txt.gz
Dewpoint
3 3 1 3 3 4 5 3 2 2 1 -2 -1 -1 -0 1 4 6 9 11 8 7 9 13 12 12 14 14 13 12 13 12 12 13 12 8 7 6 -7 9 8 11 11 12 14 13 10 8 4
3 3 1 3 3 4 3 2 2 1 -1 -2 -2 2 4 5 9 8 10 8 9 8 6 7 11 13 14 14 15 13 13 13 12 13 13 7 7 -4 -1 10 10 13 13 14 14 10 9 8 4
3 3 3 4 5 4 2 0 1 -1 -1 -2 -2 -1 1 6 7 7 8 7 7 9 5 3 6 6 14 15 12 9 12 12 12 12 9 8 2 -10 -6 8 7 13 12 11 10 9 8 4 -4
4 3 3 5 6 4 0 0 -1 -0 -2 -2 -2 1 7 8 8 7 8 7 7 9 6 2 2 5 5 7 5 5 9 11 11 9 7 1 -9 -10 -9 -3 2 7 9 8 9 8 -0 -3 0
4 4 5 6 5 3 2 0 -0 -1 -1 -2 -2 -1 5 8 8 8 8 9 9 9 7 3 1 1 2 3 0 -0 0 2 9 6 1 -8 -8 -8 -10 -9 -3 5 8 8 4 -3 -0 3 5
5 4 5 7 5 2 0 0 -1 -2 -2 -2 -2 2 5 8 8 8 8 9 11 9 8 4 2 -0 -1 0 -1 -2 -0 13 8 1 -5 -6 -6 -6 -5 -6 -7 -6 -6 -4 -0 4 6 7 8
5 5 6 4 3 1 0 -1 -1 -1 -2 -3 -2 4 5 5 7 9 9 10 11 11 9 5 1 0 1 2 -1 0 2 8 4 -3 -5 -4 -4 -4 -3 -3 -2 -2 -0 2 5 6 7 8 8
5 4 6 4 3 2 -1 -1 -2 -2 -2 -2 -2 3 4 5 5 8 11 11 12 12 10 7 2 2 2 2 -1 2 3 6 1 -1 -1 1 -1 -1 -1 -1 -0 1 3 4 6 8 7 6 6
4 6 6 4 3 2 -0 0 0 0 -0 -1 -2 -1 3 4 7 8 11 13 14 13 11 9 4 3 3 3 2 1 5 5 2 2 3 5 7 1 -0 -0 1 3 4 5 8 8 6 6 6
4 6 5 2 1 1 1 2 2 1 1 -0 -1 7 5 6 9 7 8 10 13 13 13 11 8 7 6 5 5 2 -0 0 4 1 4 6 7 6 3 2 1 4 6 8 9 7 7 6 6
4 5 3 3 2 3 3 3 2 2 2 -0 0 5 11 11 11 11 11 10 8 12 13 12 12 12 12 11 8 5 1 -1 2 3 3 5 8 8 7 5 2 4 6 6 7 7 7 7 7
5 4 3 2 3 3 3 2 2 2 1 1 1 2 8 12 12 12 12 10 9 9 11 13 13 13 13 13 12 9 4 2 -1 1 4 5 7 8 8 7 5 2 5 6 7 7 7 7 6
4 3 3 3 3 3 3 2 2 2 1 1 1 1 2 3 11 12 12 12 12 11 11 12 13 13 13 13 12 11 8 5 3 -0 0 4 5 7 8 8 6 2 5 6 7 7 7 6 6
4 3 3 3 3 2 2 2 2 2 1 1 1 0 0 1 1 3 10 11 11 11 11 12 12 12 12 12 12 12 11 10 7 4 0 1 4 6 7 8 7 6 4 7 7 8 7 7 6
3 4 3 3 3 3 2 3 3 2 1 1 1 1 0 -0 -0 0 0 1 9 11 11 11 11 12 12 12 12 12 12 12 11 10 6 1 2 5 7 7 7 7 5 6 8 8 7 7 7
4 3 6 3 3 2 2 3 1 0 0 1 0 -0 -1 -1 -1 -1 -1 -1 -0 5 11 11 11 12 12 12 12 12 12 10 12 11 9 6 3 3 5 7 8 9 8 8 9 9 8 7 7
4 6 6 4 2 2 3 4 1 1 1 1 0 -0 -1 -1 -2 -3 -4 -3 -3 -1 2 9 11 12 11 12 12 12 12 11 11 11 11 10 9 5 2 5 7 9 9 8 9 9 8 8 8
6 5 5 5 1 3 4 4 1 -1 -1 1 1 1 1 1 -0 -1 -3 -3 -1 -2 -2 -1 1 1 1 2 7 11 11 11 11 11 12 12 11 9 5 3 5 8 8 8 10 10 9 8 8
4 4 4 3 1 1 2 1 -0 -1 -2 -2 -2 -2 -1 -0 -0 0 -0 -1 -1 -1 -1 -1 -1 -1 -0 -0 1 3 8 11 11 11 10 11 11 10 10 9 7 8 7 7 9 10 9 8 8
5 5 5 3 0 0 1 1 -1 -2 -2 -2 -2 -2 -2 -2 -1 -2 -2 -3 -2 -1 -1 -1 -0 -1 -1 -1 -1 -0 0 2 6 10 9 9 10 11 10 9 9 9 8 8 9 10 10 9 7
7 6 5 4 1 -1 0 1 -2 -4 -4 -5 -5 -5 -4 -4 -5 -5 -5 -5 -5 -5 -5 -3 -1 -0 0 -0 -1 -1 1 2 3 6 9 8 9 9 9 10 9 10 8 8 9 10 10 9 8
7 1 2 1 2 4 0 4 0 -2 -4 -5 -6 -7 -6 -6 -7 -7 -6 -7 -7 -6 -5 -6 -6 -3 -1 -1 -1 -0 -0 0 -0 0 3 8 9 8 9 10 9 8 10 9 9 10 10 9 8
6 0 1 1 1 1 1 2 -1 -5 -5 -6 -7 -3 -2 -3 -3 -3 -5 -5 -6 -5 -5 -5 -5 -6 -4 -2 -1 -1 -0 0 3 2 3 7 9 8 8 8 9 8 9 10 10 10 10 10 9
-0 -1 -0 1 0 1 -0 -0 -4 -5 -4 -5 -5 -3 -3 -3 -3 -3 -3 -2 -1 -1 -3 -5 -5 -4 -4 -3 -3 -3 -2 -1 1 4 6 6 9 9 8 8 7 7 7 9 9 10 10 10 9
-1 1 2 -1 -0 1 1 1 -2 -3 -4 -4 -4 -3 -3 -1 -0 0 -0 -2 -1 0 0 0 -0 -3 -4 -4 -4 -3 -3 -3 -1 1 4 5 6 6 8 9 8 7 7 7 9 10 10 10 9
1 -0 1 -2 1 1 0 3 -3 -5 -5 -4 -4 -3 -0 2 3 3 3 2 0 -1 -1 0 -0 -1 -2 -2 -2 -2 -3 -3 -3 -2 -1 1 3 5 6 8 8 8 8 8 8 10 10 10 9
2 1 -1 1 -1 -1 -0 -2 -9 -6 -5 -5 -4 -2 -0 2 3 4 4 3 2 2 0 -1 -1 -2 -2 -2 -3 -4 -4 -4 -4 -4 -4 -2 0 2 4 6 7 9 9 8 8 10 10 9 7
0 -1 1 -2 -2 -1 -4 -2 -6 -6 -4 -4 -3 -3 0 2 4 4 4 3 2 1 1 0 1 -1 -2 -5 -6 -7 -7 -7 -5 -2 -2 -3 -3 1 4 6 8 7 9 10 10 10 9 8 4
2 2 0 -0 -0 0 0 -5 -5 -5 -4 -3 -3 -2 2 4 4 4 4 2 2 2 2 2 2 0 -1 -3 -5 -5 -6 -7 -7 -3 0 0 -0 1 5 7 9 9 10 10 10 9 8 5 1
-0 1 -0 -2 -2 0 1 -0 -4 -5 -5 -3 -2 0 4 4 4 4 4 3 3 3 3 3 3 2 1 -0 -2 -3 -4 -6 -3 1 2 1 3 5 7 9 10 9 9 9 8 7 4 -0 -1

GFSSGP_850_dewp_045.txt.gz
Dewpoint
3 3 2 2 4 4 5 3 2 2 1 -2 -1 -1 0 1 6 7 8 10 7 8 10 15 14 11 12 13 14 14 13 13 12 11 9 11 9 7 -5 5 6 8 9 13 13 12 9 4 4
4 3 2 2 4 4 3 2 2 1 -0 -1 -2 -1 4 4 8 7 10 10 8 7 5 11 12 14 13 14 14 13 12 12 13 12 8 6 5 -6 6 11 13 13 13 14 13 10 7 6 -2
4 3 2 5 4 4 2 -0 1 -1 -1 -2 -2 -0 1 5 8 8 8 7 9 7 2 4 10 11 12 13 14 13 12 12 12 12 4 5 -3 -8 7 11 12 13 13 13 11 7 5 -2 -6
4 3 3 5 6 4 -0 -0 0 -0 -1 -2 -2 -2 5 8 8 8 9 8 8 8 5 3 8 13 14 14 14 11 12 11 11 8 5 1 -9 -9 1 6 11 12 12 9 6 6 -1 -4 -0
4 3 5 6 5 3 2 1 0 -0 -1 -2 -2 -2 1 8 9 8 8 8 9 10 7 4 3 10 8 7 12 7 10 10 9 9 3 -7 -8 -9 -7 -3 4 8 7 7 7 -2 -1 1 4
4 3 6 6 5 2 1 1 -0 -1 -2 -3 -2 -0 3 8 9 8 8 9 10 10 8 5 6 8 0 4 3 2 0 0 7 5 -3 -7 -6 -7 -8 -6 3 7 7 2 -2 0 4 6 7
5 5 6 5 4 3 1 -0 -1 -1 -2 -2 -2 0 1 5 9 9 9 9 10 10 9 6 2 3 3 1 -1 -0 -0 9 8 3 -6 -6 -6 -4 -4 -6 -6 -5 -5 -2 3 5 6 7 7
4 4 6 4 3 3 -1 -1 -2 -2 -3 -2 -2 1 1 6 8 9 9 9 10 11 9 7 3 2 0 -0 -2 -2 0 12 6 -1 -4 -3 -3 -2 -2 -1 -1 -1 1 4 5 6 7 6 6
5 6 6 5 3 1 -1 -1 -1 -1 -0 -1 -2 -0 1 4 7 9 10 9 10 11 10 9 6 2 1 2 0 -1 1 3 6 -1 -1 1 0 -0 -0 0 1 2 5 5 7 8 6 6 6
4 6 5 2 1 1 0 1 1 1 1 -0 -0 5 5 2 8 9 10 10 10 11 11 10 8 4 3 3 3 0 -1 -1 3 -0 2 4 7 3 1 0 2 4 5 6 10 7 6 6 5
4 5 3 3 1 1 2 2 2 1 1 -0 -0 5 9 9 14 13 11 10 11 12 12 12 10 7 6 6 6 5 2 -0 1 2 2 4 6 8 4 2 1 4 5 8 9 7 6 6 6
5 4 3 2 3 4 3 2 2 2 1 1 1 1 4 11 14 15 14 12 13 12 12 12 12 10 10 11 10 10 7 3 1 1 2 2 4 7 8 6 4 2 4 6 7 7 6 6 6
4 3 3 2 3 3 3 2 2 2 1 1 1 1 1 2 9 12 12 13 12 12 10 10 11 12 12 12 12 12 11 8 4 2 3 3 3 5 8 8 7 5 3 5 6 7 7 6 6
4 3 3 3 3 2 2 2 2 1 0 0 0 -0 -0 0 1 4 7 11 11 12 11 11 11 11 12 10 11 13 12 11 9 6 3 2 3 4 6 8 8 8 3 5 6 7 7 7 6
4 5 3 3 3 3 2 3 3 1 1 1 -0 -0 -0 0 0 1 2 2 4 8 10 11 11 12 12 12 12 12 12 12 11 10 8 5 2 2 4 7 8 8 7 4 6 7 7 7 7
4 4 5 3 3 2 2 3 0 0 1 1 1 0 -0 -2 -2 -1 -1 -1 -1 -1 1 6 10 11 11 11 12 11 11 11 12 11 12 11 8 3 2 4 6 8 8 6 5 7 8 7 7
5 6 5 4 3 3 2 4 1 1 1 1 0 0 0 -0 -2 -4 -4 -3 -2 -3 -2 -1 3 10 11 11 11 11 11 11 11 12 11 11 11 7 4 3 5 7 8 9 7 8 9 8 7
6 6 5 4 1 3 4 4 2 1 -1 -1 -1 -1 -1 0 -1 -1 -2 -3 -2 -3 -3 -2 -1 3 10 11 12 11 10 10 11 11 11 11 11 11 9 6 4 6 8 9 9 9 9 9 8
3 4 5 3 1 1 2 2 1 -1 -1 -1 -1 -1 -1 -1 -1 -1 -1 -1 -1 -1 -0 -1 -1 -1 0 4 6 5 3 5 8 9 8 9 10 11 11 10 7 4 6 7 9 9 10 10 9
4 5 5 3 0 0 1 1 -1 -1 -1 -1 -2 -2 -3 -3 -4 -4 -5 -6 -5 -4 -3 -2 -1 -1 -0 -0 -0 1 1 1 2 5 8 8 9 9 10 10 10 7 5 6 9 8 9 10 9
6 6 5 5 1 -1 0 1 -1 -3 -5 -6 -5 -6 -6 -5 -5 -6 -5 -6 -7 -6 -5 -5 -4 -2 -1 -1 -0 -0 -0 1 2 3 2 6 8 9 8 8 9 9 8 7 8 8 8 10 10
8 2 2 2 3 5 -0 4 -0 -3 -5 -6 -3 -2 -2 -2 -2 -2 -2 -1 -4 -5 -5 -5 -5 -5 -4 -2 -0 0 -0 1 -1 -1 -1 -0 3 7 8 8 9 9 9 10 9 8 8 9 10
5 1 1 1 2 1 1 2 -2 -5 -5 -5 -4 -3 -1 0 1 1 -0 -1 0 0 -1 -3 -4 -5 -4 -5 -2 -1 -0 -0 -0 -0 0 1 2 5 6 8 9 8 8 9 9 9 9 9 10
-0 -0 -0 0 1 4 -0 0 -5 -5 -4 -4 -4 -3 -0 2 3 2 1 -0 -2 -2 -0 -1 -1 -2 -3 -4 -3 -2 -1 -1 0 1 1 1 2 3 5 6 9 8 8 8 8 9 10 9 10
0 4 5 1 3 4 0 1 -2 -5 -4 -5 -4 -2 0 2 3 3 3 2 1 -1 -1 -1 -1 -1 -1 -1 -3 -3 -2 -2 1 2 2 3 3 3 3 4 6 8 8 8 8 8 9 10 9
1 2 4 1 1 0 0 3 -2 -5 -6 -4 -4 -1 1 3 4 4 4 4 3 2 1 0 -1 -1 -1 -1 -1 -1 -2 -2 -3 -1 0 1 3 4 5 4 5 5 7 9 9 8 8 10 10
2 3 -2 1 -1 1 -1 -3 -8 -7 -5 -5 -3 0 1 3 4 4 4 3 2 1 0 0 0 -1 -1 -1 -3 -3 -3 -2 -2 -2 -2 -1 -2 -2 1 5 7 6 6 8 8 8 8 8 10
0 -1 2 0 1 0 -5 -4 -8 -7 -4 -3 -3 -2 1 4 3 3 3 3 2 2 2 2 1 1 1 -0 -1 -3 -4 -5 -6 -6 -7 -4 -3 -3 -1 4 7 8 8 8 9 9 10 10 9
1 2 0 -1 -1 -2 -4 -8 -6 -5 -4 -3 -3 -2 2 3 3 3 3 3 2 2 4 3 3 3 2 1 0 -1 -3 -4 -5 -6 -6 -6 -3 0 1 3 7 9 10 10 10 10 10 9 9
-0 1 -1 1 -1 0 1 -2 -5 -6 -5 -4 -4 -2 1 4 3 3 2 3 3 3 4 3 2 2 2 1 1 0 -0 -2 -4 -4 -5 -2 1 2 3 5 7 8 9 9 9 9 8 8 7

GFSSGP_850_dewp_048.txt.gz
Dewpoint
3 2 2 2 3 1 1 -0 -1 1 1 -2 -1 -1 -0 0 3 6 8 11 12 14 15 14 15 10 13 13 13 13 14 14 13 12 12 12 10 8 -4 1 6 6 7 13 13 11 6 -0 5
4 3 2 3 2 3 -0 -1 -0 -0 -1 -1 -1 -1 2 3 9 12 13 10 13 15 15 15 13 12 14 15 14 14 13 13 13 12 8 9 6 -3 7 12 12 12 13 14 13 9 5 1 -4
4 3 3 3 3 3 -0 -2 -3 -1 -1 -2 -2 -0 1 4 10 12 11 10 14 15 15 15 12 12 12 14 14 13 12 12 13 12 2 5 -4 2 12 13 13 14 14 13 11 8 1 -6 -6
5 4 3 4 3 1 -1 -1 -1 -1 -1 -1 -2 -2 3 7 10 12 8 8 15 15 15 12 12 14 14 15 15 13 12 12 12 8 -1 -3 -10 1 10 12 13 13 13 12 9 4 -4 -3 0
5 4 5 5 3 1 -0 -2 -0 -1 -2 -3 -3 -2 -0 9 8 9 9 10 15 15 14 12 12 13 14 15 14 14 12 12 12 8 -0 -8 -10 -7 2 10 10 13 11 7 4 -2 -3 0 4
4 4 6 6 3 1 0 -0 -1 -2 -2 -4 -3 -2 2 7 9 8 9 13 15 15 14 14 14 15 15 14 14 13 13 13 10 8 0 -8 -9 -9 -7 1 8 9 7 5 0 -2 3 6 7
4 5 5 4 3 2 1 -0 -0 -2 -2 -4 -3 -2 3 9 9 9 9 14 14 14 12 14 12 15 14 13 7 6 7 11 9 4 -3 -7 -6 -7 -9 -1 5 6 4 -2 -0 4 6 7 7
4 4 5 4 4 3 0 -0 -2 -2 -4 -2 -2 -2 0 9 8 9 9 10 11 13 12 13 13 13 13 9 3 2 1 9 12 6 -5 -4 -4 -4 -4 -6 -5 -4 -3 1 5 6 7 7 6
5 4 4 4 4 1 -1 -1 -1 -1 -3 -2 -1 1 5 3 7 10 10 11 11 14 14 14 13 13 12 11 3 2 2 13 11 6 -4 -3 3 -2 -1 -1 -1 -0 3 5 8 7 6 5 5
1 2 1 0 1 1 -1 -2 -1 -1 -1 -1 -0 3 3 4 6 13 12 11 11 11 12 13 13 13 9 5 7 2 9 12 11 6 -1 6 11 10 8 1 2 3 10 10 9 8 6 5 5
1 1 -1 2 1 -0 -1 -0 1 -1 0 -2 -2 3 9 7 9 14 14 12 9 10 11 11 12 12 8 6 9 11 13 12 12 11 10 11 11 10 6 7 2 8 7 10 10 9 6 6 5
3 -0 1 2 3 3 1 0 0 -0 -2 0 2 2 2 11 13 15 15 12 12 11 12 11 11 11 7 6 6 10 12 12 12 10 10 11 10 11 11 11 10 10 10 11 11 9 6 6 6
2 2 1 1 3 3 3 2 0 1 1 1 1 -0 2 2 8 13 14 13 11 10 11 12 12 13 11 9 11 12 12 10 10 8 6 10 10 11 12 12 11 10 11 11 10 7 6 6 6
2 2 2 1 2 2 2 2 2 1 1 0 1 -0 -0 1 2 4 9 12 14 14 13 11 11 12 13 11 11 12 12 12 11 9 7 3 8 7 9 11 12 11 10 10 8 6 7 7 6
3 3 1 2 1 1 2 2 2 0 -1 -1 -2 -2 -0 0 1 1 3 4 6 10 12 14 12 10 11 12 12 12 12 11 11 11 12 8 5 6 5 8 11 11 11 8 6 6 6 7 7
3 2 4 -0 2 2 1 -1 -1 -0 -0 -0 -1 -2 -2 -1 -1 -0 1 1 1 1 3 8 12 11 11 10 11 11 12 11 10 11 11 11 9 6 5 8 11 11 11 9 6 5 6 7 7
2 1 1 1 2 -0 2 -2 -2 -1 -0 -1 -1 -1 -1 -0 -0 -3 -3 -3 -2 -1 -0 -1 -0 8 10 7 10 11 11 11 11 11 11 10 11 11 9 7 10 11 10 9 8 6 5 7 8
3 1 2 0 2 3 3 0 -0 0 1 -0 -1 -1 -2 -1 -1 -1 0 1 -1 -2 -2 -2 -2 1 5 11 8 11 10 10 11 11 10 11 10 10 11 10 9 10 9 9 8 8 7 8 9
1 1 -0 1 0 1 1 2 1 0 -0 -1 -1 -2 -2 -2 -1 -1 -1 -1 -1 -1 -0 -0 -1 -2 -0 9 9 8 11 10 10 9 8 10 10 10 10 10 10 8 7 9 7 8 9 8 9
1 1 1 3 1 1 1 2 0 -1 -1 -1 -2 -3 -3 -2 -4 -4 -5 -5 -5 -4 -3 -2 -1 -0 -0 1 9 2 5 9 10 9 7 7 9 8 9 9 9 10 9 8 8 8 9 9 9
3 2 4 3 1 -0 1 1 -0 -3 -5 -3 -3 -5 -4 -3 -2 -0 1 -2 -5 -6 -6 -6 -4 -3 -1 -1 1 9 11 10 4 3 3 3 4 7 8 8 8 9 10 9 7 6 7 10 9
5 4 3 3 4 3 0 0 -1 -5 -3 -3 -2 -1 -0 0 1 2 2 2 -0 -1 -2 -4 -4 -5 -4 -3 -2 1 8 10 7 2 1 0 1 2 5 8 7 7 8 8 9 7 6 9 9
4 2 2 2 3 3 2 3 -2 -5 -3 -3 -3 -1 1 2 3 3 2 -0 -1 -1 -1 -1 -2 -3 -4 -4 -4 -4 5 10 10 10 10 4 1 0 1 2 7 7 8 8 8 9 8 7 9
-1 1 1 1 3 7 2 1 -4 -4 -5 -3 -3 -1 1 2 3 3 3 1 1 -1 -1 -2 -1 -1 -2 -2 -4 -4 -4 6 10 10 10 9 7 3 2 3 4 7 7 7 8 8 9 9 9
4 5 8 9 8 6 0 0 -4 -5 -5 -4 -2 -0 1 2 3 4 4 4 2 1 1 -0 -1 -2 -1 -1 -1 -1 -3 -0 8 10 10 10 10 4 2 4 6 6 6 6 7 7 8 9 10
6 7 7 5 1 -1 -1 0 -4 -5 -6 -4 -2 -1 0 3 4 4 4 4 3 1 -0 -0 0 -0 -1 -1 -1 -1 -1 -1 -2 -1 4 10 10 10 4 3 5 6 7 8 8 8 7 8 9
4 7 -1 2 -1 2 -3 -3 -6 -6 -4 -4 -1 1 1 3 4 4 4 3 3 1 2 2 1 0 0 1 -0 -1 -2 -3 -3 -2 -2 -2 1 2 2 3 4 7 8 8 8 8 8 8 9
1 -1 4 4 5 3 -4 -6 -6 -3 -3 -4 -2 -0 1 4 4 4 4 4 3 2 3 3 3 2 2 2 1 1 -0 -2 -3 -4 -5 -4 -4 -1 -1 -2 -0 1 5 9 10 9 9 10 10
1 2 0 -0 -0 -2 -8 -10 -8 -6 -4 -3 -4 -1 2 4 4 3 2 3 3 2 3 3 2 2 2 2 1 1 0 -1 -2 -2 -3 -4 -4 -3 -3 -0 3 4 5 8 9 9 9 9 9
-0 1 -1 2 3 1 1 -4 -6 -6 -5 -4 -3 0 3 4 3 1 1 1 3 3 4 3 2 2 1 0 0 0 0 -0 -1 -1 -2 -2 -2 -2 1 -0 3 8 8 9 8 9 9 9 8

GFSSGP_850_dewp_051.txt.gz
Dewpoint
3 5 4 3 3 1 2 -1 -4 -1 -2 -3 -1 -2 -3 -1 2 8 11 14 13 15 15 13 15 13 12 13 13 13 13 14 14 13 13 12 11 7 -3 2 5 4 10 13 13 8 1 -1 5
8 6 3 2 3 4 1 -2 -1 -2 -1 -1 -1 -1 -1 -0 7 13 14 14 13 15 16 15 13 11 13 14 13 13 14 13 12 6 8 10 6 -3 11 11 9 11 14 13 12 8 2 -4 -2
5 6 3 2 3 3 1 -2 -4 -2 -2 -2 -1 -1 0 4 9 12 14 13 14 15 15 15 11 12 14 14 14 14 14 14 13 8 4 4 -5 7 13 13 13 13 14 13 11 6 -4 -8 -7
7 4 3 4 3 1 -1 -3 -5 -2 -2 -2 -2 -1 2 9 10 13 14 14 14 14 15 14 12 12 14 15 14 14 13 13 13 9 2 -5 -5 10 12 13 13 14 12 12 10 1 -6 -3 -0
7 4 5 5 3 -0 -2 -3 -3 -3 -2 -2 -3 -2 2 12 13 14 14 13 14 14 15 13 13 13 14 14 14 14 13 13 13 4 -4 -9 -6 4 10 12 13 13 13 11 4 -4 -3 1 4
6 5 6 6 4 1 -2 -2 -2 -2 -3 -4 -3 -2 5 12 14 14 14 14 14 14 15 14 12 13 14 14 14 14 13 13 13 8 -4 -9 -9 -8 -2 9 10 12 10 5 1 -3 2 5 6
5 6 7 5 3 2 -1 -2 -2 -3 -3 -4 -4 -2 5 12 15 14 14 14 14 14 14 15 13 14 14 14 14 14 12 13 12 7 -2 -7 -9 -9 -6 1 8 8 6 3 -3 2 5 6 6
5 5 6 4 3 2 -1 -1 -2 -2 -3 -3 -4 -2 1 9 14 9 13 15 15 14 14 13 14 13 14 14 14 12 9 8 8 7 -1 -6 -5 -7 -8 -0 3 4 1 -3 1 4 6 6 5
4 6 6 4 3 1 -1 -0 -1 -2 -4 -4 -5 -1 8 9 8 9 10 11 13 14 14 13 13 14 14 13 10 6 4 4 13 9 -1 -5 -3 -3 -4 -5 -5 -5 -3 1 6 5 6 5 4
3 6 4 1 0 1 -0 -1 -3 -2 -3 -4 -2 2 10 10 2 8 12 13 12 14 14 14 13 13 13 12 12 4 5 9 14 11 3 -1 10 6 6 2 -1 -1 7 8 6 7 6 5 5
1 1 0 -1 0 1 -0 -1 -3 -2 -3 -4 -3 -1 7 11 10 13 14 14 13 12 14 14 14 13 13 12 12 11 11 12 13 13 11 10 11 11 6 2 -0 1 4 8 7 9 6 5 5
2 -1 -3 -1 1 1 -1 -2 -3 -2 -3 -3 -2 1 1 8 11 12 13 14 14 14 14 11 14 14 13 12 12 11 12 13 12 12 11 11 11 12 11 10 5 5 11 11 10 10 9 6 5
2 -1 -1 0 3 2 -1 -2 -2 -2 -1 1 1 1 1 1 5 11 12 13 14 14 14 13 12 14 14 13 12 11 12 13 13 12 11 10 11 11 12 11 11 10 11 11 11 11 9 7 5
1 1 0 0 2 2 2 -0 0 -0 -0 -0 -0 -0 -1 -1 1 3 9 12 13 13 14 14 12 11 14 14 13 13 13 13 13 13 12 10 11 11 11 12 12 11 10 11 11 11 9 7 5
2 1 1 -0 0 1 2 1 2 1 -1 -1 -2 -1 -2 -2 -2 0 2 5 9 11 12 14 13 10 11 14 12 13 14 13 13 14 13 12 9 10 11 11 11 11 11 11 10 10 9 6 4
2 2 4 -0 1 0 1 1 -2 -1 -1 -2 -3 -3 -4 -4 -3 -3 -0 2 3 4 5 9 12 14 14 14 13 11 14 14 14 13 13 13 12 10 10 10 11 11 11 12 11 10 9 6 5
3 2 2 -1 -2 0 2 -2 -4 -2 -2 -2 -3 -3 -3 -3 -3 -3 -4 -1 0 2 3 3 4 9 13 14 14 11 11 12 14 14 13 13 13 13 12 11 11 11 11 11 11 10 9 6 5
2 1 -2 -2 1 -0 0 0 -3 -2 -2 -3 -3 -3 -3 -3 -3 -3 -3 -3 -1 -0 0 1 1 2 6 10 12 13 9 9 11 14 13 13 13 12 12 12 11 11 11 11 11 10 9 7 6
-2 -1 -3 -3 0 1 -0 -1 -2 -3 -2 -2 -2 -3 -4 -4 -4 -2 -1 -1 -1 -1 -0 0 1 1 2 5 8 12 10 3 5 10 12 13 12 13 13 12 12 12 11 11 11 11 10 8 6
0 -1 -1 0 -0 0 -2 0 -1 -2 -2 -3 -2 -2 -2 -3 -3 -3 -3 -1 -2 -3 -3 -2 -0 1 1 1 3 7 10 3 -0 3 9 12 12 11 11 12 11 11 11 11 11 11 10 8 7
-0 -0 -2 0 1 0 1 1 -1 -3 -3 -3 -3 -4 -5 -4 -3 -1 1 1 2 1 -4 -5 -4 -2 -0 0 1 3 8 11 11 7 4 8 11 12 13 11 11 11 12 11 11 11 10 8 7
1 -0 0 3 3 -0 -0 -4 1 -2 -3 -3 -3 -2 -2 -1 0 1 2 2 3 1 -1 -1 -3 -4 -5 -4 -2 1 4 8 11 11 12 10 7 6 7 9 12 12 12 12 11 11 11 10 8
3 2 3 3 3 3 2 2 -1 -4 -2 -3 -2 -1 1 1 2 2 3 3 3 -0 -1 -1 -1 2 -1 -3 -4 -4 -2 -0 6 9 11 10 11 10 6 6 10 11 11 11 12 11 11 10 9
1 2 2 3 3 7 3 1 -1 -4 -4 -3 -3 -1 0 1 3 3 4 4 4 3 1 -1 -1 -1 2 0 -1 -2 -3 -2 3 6 9 10 11 11 11 10 9 11 12 12 12 11 11 10 10
2 5 8 9 9 6 0 2 -2 -5 -6 -4 -3 -1 1 2 3 4 4 4 4 3 2 2 2 2 2 1 1 2 -0 -1 -2 4 7 9 10 10 9 9 8 9 10 12 12 12 11 10 10
5 5 6 6 6 4 -1 1 -4 -6 -6 -3 -1 0 1 3 4 4 4 4 3 3 3 3 1 1 3 3 4 4 4 2 2 2 2 7 9 9 10 11 9 6 6 10 11 11 11 11 10
6 8 -0 1 -2 0 -2 -4 -4 -6 -6 -4 -1 1 2 3 4 4 4 4 4 3 4 4 4 4 4 2 3 4 4 4 1 0 2 3 5 7 9 9 10 9 5 8 10 10 10 10 10
5 3 7 6 7 3 -1 -4 -5 -4 -4 -3 -1 -1 1 3 4 3 3 3 4 3 3 3 3 3 3 2 2 2 2 1 0 0 1 3 4 5 7 8 8 9 8 7 9 10 10 9 9
2 3 1 2 1 2 -4 -7 -7 -4 -4 -3 -4 -1 2 4 4 3 2 2 3 3 3 3 2 2 1 1 1 1 1 1 0 1 0 -1 -2 -1 -0 1 5 6 5 5 6 9 9 8 8
-0 1 0 4 4 1 2 -3 -8 -6 -5 -4 -4 -0 2 4 3 2 1 2 2 2 2 2 2 2 1 1 1 0 0 0 0 1 1 1 -0 -1 -1 1 4 5 7 8 8 8 8 7 7

GFSSGP_850_dewp_054.txt.gz
Dewpoint
3 2 6 4 7 5 6 2 -2 -1 -2 -2 -2 -2 -1 -1 10 14 12 12 13 12 7 8 14 15 12 13 13 13 14 14 14 13 12 12 9 2 -2 3 3 7 13 13 11 6 -0 -3 6
3 7 5 4 7 7 4 0 -0 -3 -1 -2 -1 -1 -2 8 11 13 14 13 15 14 11 11 13 14 13 13 13 13 14 14 13 6 8 9 2 10 9 8 6 11 13 13 10 5 -6 -6 -2
4 7 6 6 6 6 4 -0 -2 -1 -2 -2 -1 -2 -1 9 11 13 14 13 15 16 14 11 14 12 14 14 13 13 14 12 3 3 5 3 0 12 13 13 13 14 13 12 11 -0 -8 -8 -5
4 7 5 6 6 3 1 -2 -3 -2 -2 -2 -2 0 7 10 12 13 13 14 15 15 15 12 9 13 14 14 14 14 13 13 7 3 1 -8 8 12 13 13 13 13 12 12 10 -4 -4 -2 2
8 6 7 6 6 3 -1 -3 -4 -2 -2 -2 -3 1 11 13 13 13 14 14 14 15 15 13 10 13 15 15 14 14 13 13 12 2 -4 -9 3 10 12 12 13 12 13 11 2 -5 -1 2 4
9 6 9 8 5 3 0 -3 -3 -3 -3 -4 -3 2 11 13 14 14 13 14 14 14 15 14 10 12 14 14 14 14 13 13 12 3 -7 -9 -6 -2 7 10 11 11 12 5 -1 -2 2 4 5
9 9 10 7 5 3 1 -2 -3 -3 -3 -3 -4 -1 12 14 14 14 14 14 14 14 15 11 11 13 14 14 14 14 13 13 12 5 -6 -9 -9 -9 -5 5 7 8 5 2 -3 1 4 5 4
7 9 10 7 6 5 0 -2 -2 -3 -3 -3 -4 3 11 15 12 14 14 14 14 14 14 14 10 8 12 14 14 14 13 12 11 6 -5 -7 -8 -8 -6 -1 4 3 2 -3 -1 2 4 4 3
6 9 11 9 6 4 -0 -1 -1 -2 -3 -4 -4 5 9 14 11 10 14 14 14 14 13 14 14 11 12 13 12 12 13 9 7 7 -0 -6 -6 -6 -7 0 3 1 -3 -3 1 2 3 3 3
4 7 8 5 3 3 1 -0 -1 -2 -2 -3 -4 2 8 10 5 7 9 12 14 14 14 13 13 14 14 14 14 9 4 3 3 6 5 -5 -3 -2 -4 -5 -5 -4 -3 -1 2 3 3 3 3
4 6 4 3 1 1 1 -0 -1 -2 -1 -3 -4 -1 8 10 10 10 9 10 10 14 14 14 13 13 13 13 12 9 3 2 4 11 5 -3 8 9 5 1 -1 -2 -1 0 3 4 4 4 3
3 2 1 1 1 1 -0 -0 -1 -2 -2 -2 -0 1 5 9 11 10 12 13 13 11 14 14 14 13 13 12 11 11 9 12 10 11 11 6 10 11 10 4 1 -1 -0 2 3 5 7 5 4
3 1 -0 -0 2 1 -0 -0 -2 -2 -2 -0 1 1 1 1 6 10 11 12 14 14 11 12 14 14 13 13 12 11 11 13 12 13 12 10 10 11 11 9 9 8 3 9 9 10 8 8 6
2 1 0 -0 2 2 -0 -1 -2 -2 -2 -0 0 -0 -0 -1 -0 2 10 12 13 13 13 12 10 12 13 14 12 12 11 12 13 12 12 11 10 11 11 12 11 11 9 11 11 11 11 10 6
1 2 1 0 2 2 1 2 1 -1 -0 -0 -0 -1 -1 -1 -2 -2 1 4 11 12 12 13 10 9 11 14 14 13 13 13 13 13 13 12 10 11 11 10 12 11 11 10 10 11 11 10 7
3 3 4 1 1 1 2 4 0 -0 0 0 -1 -2 -2 -2 -2 -2 -2 1 3 6 7 13 13 12 11 11 14 13 13 14 14 13 13 13 12 11 10 10 10 11 12 11 10 10 10 10 8
4 6 4 3 0 1 1 2 -1 -1 -0 -0 -1 -2 -3 -4 -4 -4 -3 -3 -1 2 3 5 7 12 14 13 13 13 12 13 14 14 13 13 13 13 12 10 9 9 11 11 11 11 10 10 9
5 5 3 2 -0 1 3 2 -2 -3 -2 -2 -3 -3 -3 -3 -3 -3 -3 -3 -3 -2 -0 1 2 3 6 10 13 13 12 10 12 13 14 13 13 12 13 12 11 10 10 11 11 10 10 10 9
1 2 2 -1 0 1 1 1 -0 -2 -2 -1 -2 -3 -3 -4 -4 -4 -2 -2 -1 -1 -0 0 0 1 1 1 7 10 11 11 10 7 8 12 13 12 11 11 11 11 11 11 11 11 10 10 10
-0 1 0 -1 0 1 0 0 -2 -2 -2 -2 -2 -2 -3 -3 -3 -2 -2 -2 -2 -2 -2 -2 -2 -1 0 1 1 5 7 9 8 7 4 5 10 14 13 12 10 10 11 11 11 11 10 10 10
1 1 -1 1 1 0 1 1 -1 -2 -3 -3 -3 -3 -3 -4 -4 -3 0 1 1 -0 -2 -3 -3 -2 -1 0 1 1 3 5 11 10 5 1 3 9 13 13 13 10 10 11 11 11 11 10 10
2 -1 -1 2 3 3 0 -2 -2 -1 -2 -3 -3 -4 -4 -2 -1 0 2 2 3 1 -1 -1 -2 -3 -4 -4 -1 1 1 2 6 11 10 9 8 6 6 11 12 12 13 12 11 11 11 11 11
1 2 3 3 4 4 2 3 0 -2 -1 -2 -2 -1 0 1 1 2 3 3 4 2 -1 -1 -1 -0 1 -1 -3 -4 -4 -2 1 6 8 10 11 11 9 8 9 11 12 12 12 12 11 11 11
2 3 3 3 4 8 4 2 0 -1 -2 -3 -2 -0 1 1 2 3 4 4 4 3 1 0 -0 -0 1 2 2 1 -0 -2 -3 -3 -1 3 8 10 10 10 10 12 11 11 11 11 11 11 11
3 5 7 8 8 7 1 3 1 -4 -4 -3 -2 -1 0 2 3 4 4 4 4 3 2 1 1 1 1 2 2 3 4 4 2 -0 -1 3 6 9 10 9 9 9 11 11 10 10 10 10 11
4 5 7 6 8 5 -1 4 -1 -5 -4 -4 -2 -1 1 2 3 4 4 3 4 3 3 1 1 2 3 3 3 3 4 4 4 4 4 3 3 7 8 9 9 9 11 11 11 9 9 9 10
6 7 -0 4 -3 4 1 -2 -4 -5 -3 -2 -1 0 1 3 4 4 4 4 4 3 3 3 3 3 3 2 3 3 4 4 3 2 2 1 0 1 5 7 8 9 8 10 10 10 9 9 9
5 4 6 5 5 4 -1 -2 -2 -3 -4 -3 0 1 1 3 4 3 3 3 3 3 3 3 2 2 2 2 2 2 2 2 2 1 1 -1 -1 -0 0 2 5 8 9 9 9 9 8 8 8
5 7 5 4 3 5 1 -3 -6 -4 -5 -2 -2 -1 1 3 4 3 2 2 2 3 3 3 2 2 1 1 1 0 0 0 0 1 1 1 -0 -1 -1 -1 1 4 6 6 8 8 8 7 7
1 2 2 7 7 2 3 0 -8 -5 -3 -4 -4 -0 2 4 4 3 1 1 2 3 2 2 2 1 1 1 1 1 1 1 1 2 1 1 2 1 0 -0 -0 2 6 7 7 7 7 7 7

GFSSGP_850_dewp_057.txt.gz
Dewpoint
3 2 6 6 5 5 6 4 -2 -1 -2 -2 -2 -2 1 7 12 13 12 12 13 10 8 12 12 13 10 12 14 13 14 13 13 11 12 11 5 -4 2 1 7 13 13 11 8 -2 -5 2 5
3 4 6 4 6 7 6 1 -2 -0 -1 -2 -3 -3 6 12 12 13 13 14 13 11 10 13 15 13 13 13 13 13 14 13 13 6 8 4 6 7 6 4 12 13 13 11 8 -7 -8 -3 3
4 7 8 5 6 7 5 0 -1 -2 -2 -2 -1 -2 7 11 13 13 13 15 14 11 9 12 16 13 14 13 12 13 13 13 2 1 2 1 12 12 10 11 13 13 12 11 7 -8 -9 -7 -4
4 6 6 7 7 5 3 0 -2 -2 -2 -2 -2 9 10 12 12 13 13 14 15 13 12 13 15 13 14 13 13 13 12 4 -0 -1 -5 7 12 13 12 13 13 12 11 11 1 -6 -4 -0 1
6 6 7 7 6 5 1 -2 -2 -2 -2 -2 -3 8 13 13 11 13 14 14 15 15 14 13 12 14 14 14 14 13 13 8 3 -2 -9 4 11 11 11 12 13 11 11 10 -4 -3 0 3 4
7 7 9 9 7 4 2 -2 -4 -3 -3 -4 5 10 13 14 12 14 14 15 14 15 15 13 11 14 15 14 14 13 13 8 -3 -3 -9 -4 4 8 10 10 11 10 11 2 -4 -0 2 3 3
7 9 9 9 8 6 3 -1 -3 -3 -3 -3 -2 11 14 14 13 14 14 14 14 15 15 14 10 14 14 14 14 13 13 8 -3 -4 -8 -9 -9 -2 5 6 7 9 5 -1 -3 1 3 3 2
7 8 8 8 9 8 3 -2 -4 -3 -3 -4 -1 10 13 14 14 14 14 14 14 14 14 12 11 12 13 14 14 14 13 11 5 -0 -8 -8 -9 -9 -5 2 2 1 -1 -3 -2 1 2 2 2
8 10 10 10 9 8 4 5 -2 -3 -3 -2 7 9 11 13 14 14 14 14 14 14 13 13 10 9 10 13 14 13 12 8 5 1 -6 -8 -8 -8 -7 -3 -1 0 -1 -4 -1 1 2 2 2
9 10 7 5 6 7 5 4 3 -2 -2 2 9 9 9 11 12 14 14 14 14 14 14 13 13 13 9 10 10 10 5 3 0 -0 -0 -6 -6 -6 -7 -4 -3 -3 -4 -4 -0 1 2 2 2
5 8 6 5 5 7 4 4 3 -2 -1 -2 7 5 4 7 6 10 14 14 14 14 14 13 13 13 12 11 11 11 7 1 -0 1 3 -3 -4 -1 -4 -4 -4 -4 -4 -3 -1 1 3 2 2
5 4 5 5 5 6 2 1 2 -2 -0 -0 -2 4 6 6 8 7 8 10 14 14 14 13 13 13 13 13 13 10 8 3 7 3 7 5 1 5 7 6 0 -1 -2 -1 2 2 4 3 2
5 3 3 3 1 3 1 -0 -1 -2 0 -0 3 6 6 7 9 10 9 9 12 14 14 13 13 13 13 13 12 10 9 9 11 10 11 11 8 7 10 10 7 3 1 -1 2 4 7 7 4
4 3 2 1 2 1 -0 -1 -1 -2 -1 -1 -1 0 -0 0 1 5 11 11 11 13 12 13 14 13 13 13 13 11 10 10 13 12 12 12 11 9 10 10 9 8 8 7 5 8 10 10 8
2 4 3 3 3 2 0 1 1 -1 -1 -0 -0 -0 -1 -1 -1 -0 1 6 11 12 12 12 10 12 12 13 13 12 11 11 12 12 12 12 12 10 10 11 9 9 11 10 9 10 11 11 11
3 4 7 2 2 2 0 4 1 -1 -0 -0 -0 -1 -1 -2 -2 -2 -2 -1 2 6 12 12 13 13 12 11 12 13 12 12 12 12 13 13 12 12 10 10 10 9 11 11 11 10 10 11 11
5 6 6 3 1 2 2 3 0 -1 -1 0 0 -0 -1 -2 -2 -3 -3 -3 -2 2 3 4 8 10 12 13 13 12 12 13 13 13 13 13 13 13 12 11 10 10 10 11 12 11 10 10 10
7 5 4 3 1 2 3 2 0 -1 -2 -0 0 -0 -2 -2 -3 -3 -3 -3 -3 -3 -0 2 2 3 4 8 12 13 13 13 13 12 12 12 13 13 11 11 10 11 10 10 10 11 11 11 10
3 3 4 3 0 2 2 2 1 -0 -2 -2 -2 -3 -3 -3 -3 -3 -3 -3 -3 -3 -3 -1 -0 1 2 3 4 7 11 12 11 12 11 12 12 11 13 12 11 11 12 11 10 10 11 11 11
2 3 3 0 0 1 2 2 1 -1 -2 -2 -3 -3 -2 -3 -3 -3 -2 -2 -2 -2 -2 -1 -0 0 1 1 1 1 3 5 8 9 9 10 10 10 9 10 12 12 12 12 11 11 11 11 11
1 1 1 2 1 0 0 1 -1 -2 -2 -2 -2 -2 -2 -3 -4 -2 -2 -2 -2 -3 -3 -3 -3 -2 -2 -2 -0 1 1 2 3 5 8 10 10 9 8 10 11 11 11 11 11 11 11 10 9
2 -1 -0 3 3 4 -0 1 -2 -1 -2 -3 -3 -3 -3 -3 -1 1 2 0 -1 -2 -2 -3 -3 -3 -3 -3 -1 0 1 1 2 2 4 10 11 10 9 8 9 10 10 10 10 11 10 9 10
2 1 3 2 3 3 2 3 1 -1 -1 -2 -3 -3 -2 -0 1 1 1 1 0 0 -1 -1 -1 -0 -0 -1 -2 -3 -4 -4 -4 -2 1 5 7 10 10 10 8 7 8 8 9 10 10 11 11
2 3 3 3 4 6 4 3 1 -0 -1 -2 -2 0 1 1 2 2 2 3 3 3 2 1 -1 -1 -0 -0 -1 0 -0 -1 -1 -2 -3 -3 0 4 6 9 9 9 9 9 9 9 9 11 11
3 4 5 5 5 6 1 3 1 -2 -3 -3 -1 0 1 1 3 3 4 4 4 3 2 2 1 1 1 1 1 1 2 3 2 2 1 -1 -2 2 6 8 9 9 9 9 8 9 9 9 9
4 3 4 5 6 5 -1 5 1 -5 -5 -3 -2 -0 1 2 3 4 4 3 3 3 3 2 1 1 1 1 2 3 3 3 4 4 3 3 3 1 2 6 8 7 8 9 9 8 9 9 9
5 5 1 2 -0 2 2 -1 -5 -2 -1 -2 -1 0 1 2 4 4 4 4 4 4 3 2 2 2 2 2 1 2 3 4 3 3 2 1 1 0 0 2 4 6 6 7 9 9 7 8 8
5 3 5 3 5 3 1 -1 -0 -1 -1 -1 0 0 1 3 4 3 3 3 3 3 3 2 2 2 2 1 1 1 1 2 1 1 1 1 0 -0 -1 -1 -0 2 5 7 7 8 7 7 7
5 6 5 4 2 4 2 -1 -7 -4 -3 -1 0 0 1 3 4 3 3 2 2 3 3 2 2 2 1 1 1 1 0 0 -0 -0 -0 -0 -0 0 1 0 -1 -1 0 2 6 5 4 7 6
3 4 4 5 5 1 2 -0 -6 -5 -4 -2 -1 0 2 3 4 4 3 1 2 3 3 2 2 2 1 1 0 0 0 0 1 1 2 2 2 1 1 1 0 0 0 1 3 5 5 5 5

GFSSGP_850_dewp_060.txt.gz
Dewpoint
3 2 3 4 5 5 6 5 -2 -2 -1 -2 -1 7 10 8 11 8 12 12 13 13 10 11 13 12 13 12 13 13 13 12 13 12 10 9 -0 -2 1 7 13 12 11 9 -5 -8 -5 6 9
3 3 5 4 6 7 6 2 1 -1 -2 -2 -1 6 10 13 12 13 13 13 13 13 10 12 14 13 12 13 13 12 10 10 10 7 7 -0 5 3 4 11 13 13 12 10 -8 -10 -0 3 5
4 3 6 5 6 7 5 1 -1 -2 -2 -2 -1 7 10 13 12 13 12 13 13 10 10 12 13 12 13 14 12 12 9 11 3 2 -1 10 9 8 7 13 13 13 11 8 -8 -10 -6 1 2
4 5 6 7 8 5 3 2 -1 -2 -2 -2 5 11 12 12 13 13 13 14 14 10 11 15 15 14 12 12 11 11 9 4 -1 -3 1 10 12 11 13 13 13 12 9 6 -6 -4 -3 -4 -3
4 6 7 7 7 5 3 2 0 -2 -2 -3 3 12 14 13 13 13 14 14 14 10 11 15 15 14 13 12 12 12 7 -1 -2 -4 3 10 8 11 11 12 10 10 9 1 -4 -1 1 1 2
5 6 8 9 7 5 4 3 0 -2 -3 7 12 13 14 13 14 14 14 14 15 12 12 14 13 15 14 13 13 13 9 -3 -8 -6 5 10 7 6 7 5 10 9 9 -2 -3 0 1 1 2
6 8 9 9 8 7 5 4 -1 -2 -3 -3 9 12 14 13 14 14 14 15 14 14 14 10 12 14 14 14 13 14 11 1 -9 -9 -9 -0 5 7 6 6 8 7 5 -3 -2 1 1 2 2
6 6 8 8 8 8 5 5 1 -3 -3 5 8 13 14 13 14 14 15 15 15 15 15 14 11 14 14 14 14 12 12 6 1 -6 -9 -10 -8 -1 5 5 6 7 2 -2 -1 1 1 1 1
7 9 8 8 8 7 7 6 5 -1 -2 -0 6 10 12 13 13 14 15 15 15 14 14 12 11 12 13 11 11 13 11 7 2 -1 -7 -8 -9 -9 -6 1 4 4 1 -2 -1 2 2 1 1
8 8 7 5 5 8 8 6 6 1 3 10 11 12 13 14 14 14 14 15 14 14 13 13 10 9 10 10 9 10 7 7 3 1 -1 -7 -7 -7 -8 -5 -2 1 1 -3 -0 2 3 2 2
9 8 6 5 5 8 9 8 7 4 -1 8 10 12 13 12 13 14 14 14 14 14 13 13 13 13 9 6 7 8 8 5 2 1 2 -3 -6 -6 -5 -6 -5 -4 -4 -4 -2 1 2 2 2
7 6 6 6 5 8 8 7 6 4 -0 -1 -1 1 6 5 10 12 14 14 14 13 13 13 13 13 13 11 10 10 8 7 2 0 3 3 -4 -2 0 0 -0 -1 -3 -3 -2 0 3 3 3
5 5 5 6 6 7 7 8 7 3 1 0 6 8 6 6 6 6 9 13 14 14 13 13 13 13 13 13 12 11 9 7 7 8 6 7 6 4 5 6 8 7 2 -1 -1 1 3 4 5
6 4 4 5 5 7 8 7 7 2 -1 6 8 8 7 7 7 10 11 10 12 14 14 13 13 13 13 12 13 12 11 9 10 11 11 10 10 10 9 8 8 9 8 7 7 3 6 7 8
4 6 4 4 2 2 5 6 5 1 -0 0 0 -0 -0 -1 -1 3 8 10 11 11 11 13 13 13 13 12 12 12 12 10 10 11 12 12 12 11 11 9 9 9 9 9 9 9 8 8 10
3 5 7 3 3 2 0 3 1 -0 -1 -1 -0 -0 -0 -1 -2 -1 -2 0 2 9 10 12 12 13 13 13 12 12 12 11 11 11 12 12 12 12 12 11 10 10 10 10 10 10 10 9 10
5 7 7 5 2 2 1 3 0 -1 -1 -1 -0 -0 -0 -1 -2 -2 -3 -2 -2 2 4 7 12 12 13 13 13 13 13 12 12 12 12 12 12 12 12 12 11 10 10 10 10 11 11 11 10
7 6 5 4 3 3 3 2 -0 -1 -2 -1 -1 -0 -0 -1 -1 -2 -3 -3 -3 -2 0 3 4 6 6 10 12 13 13 13 13 13 13 13 12 12 13 12 11 12 12 11 10 10 11 12 11
4 4 5 3 1 2 4 3 1 -0 -1 -1 -1 -1 -0 -2 -3 -3 -3 -3 -3 -3 -3 -2 1 2 3 3 6 8 10 12 13 13 13 13 13 13 12 11 11 10 11 11 11 11 10 11 11
4 4 4 2 1 1 2 3 1 0 -0 -1 -2 -1 -1 -2 -3 -3 -2 -2 -2 -3 -3 -2 -0 1 1 2 3 3 3 6 7 8 11 12 12 11 11 10 10 10 10 11 11 12 12 11 11
3 4 2 2 1 0 1 2 1 -0 -1 -1 -1 -2 -3 -2 -3 -3 -2 -2 -2 -2 -2 -2 -2 -1 -0 0 0 1 1 1 2 3 5 8 10 12 12 11 9 8 10 10 10 11 12 12 11
5 0 0 1 3 5 -0 4 -2 -1 -1 -2 -2 -2 -2 -3 -3 -2 -2 -2 -2 -2 -3 -3 -3 -3 -3 -3 -2 -2 -1 -0 1 2 2 2 2 3 6 8 8 9 8 9 9 9 9 10 11
2 0 2 2 3 2 2 2 -0 -2 -1 -2 -3 -3 -3 -2 -2 0 1 0 -1 -1 -2 -3 -2 -2 -1 -2 -3 -3 -3 -3 -2 -1 -1 -1 -1 3 7 9 9 9 8 8 8 8 9 8 9
2 3 3 3 4 6 3 2 1 -0 -1 -2 -3 -3 -3 0 1 2 2 2 1 -0 -1 -1 -1 -1 -1 -1 -1 -2 -2 -2 -2 -2 -3 -3 -3 -2 0 2 5 7 8 8 9 9 9 9 10
3 3 6 7 7 5 2 3 1 -2 -3 -3 -2 0 1 2 2 2 2 2 2 2 2 1 1 1 0 -0 0 0 0 0 0 1 1 -0 -1 -1 -1 0 5 7 8 9 9 9 9 8 8
5 3 3 5 6 4 0 5 2 -3 -5 -4 -3 -0 0 1 2 3 3 3 3 2 3 2 2 1 1 1 1 1 2 2 3 3 3 2 2 1 1 0 1 5 7 8 7 8 8 9 8
5 7 1 2 1 2 2 0 -4 -2 -2 -1 -1 -0 1 1 3 3 4 3 3 3 3 3 2 1 1 1 1 1 2 3 3 3 3 3 2 2 1 1 0 1 3 4 5 6 7 8 8
5 3 5 2 3 3 1 1 -0 -0 -1 -1 0 1 1 2 3 4 4 3 3 3 3 3 2 2 1 1 1 1 1 1 1 1 1 1 1 1 1 0 -0 -1 -1 1 2 4 5 7 7
6 7 5 3 2 4 3 -0 -5 -2 -1 -0 1 1 1 2 4 4 3 3 2 2 3 3 2 2 2 1 1 1 1 0 0 -0 -0 -1 -0 -1 -1 -0 0 0 -0 -0 0 3 4 4 2
3 5 4 5 3 0 1 -1 -6 -6 -3 -1 0 0 0 2 4 3 3 3 2 2 2 3 2 2 2 2 1 0 -0 0 0 0 0 1 1 2 2 2 1 1 1 1 1 1 1 2 4

GFSSGP_850_dewp_063.txt.gz
Dewpoint
3 2 2 4 5 6 6 5 1 -1 -1 -2 -1 4 4 11 8 7 10 11 12 8 10 10 9 10 12 12 13 13 13 14 13 7 7 1 -2 -1 5 12 10 10 9 -5 -10 -8 8 10 10
3 3 3 4 6 7 6 2 2 -1 -2 6 8 8 11 13 13 12 12 12 12 8 9 11 11 13 13 12 13 14 13 12 9 6 -2 3 2 4 10 13 12 11 8 -8 -11 -3 0 8 9
3 3 5 5 6 7 5 2 1 -2 -2 -2 4 9 11 13 12 12 12 13 14 12 9 14 13 13 12 13 12 12 10 9 3 -1 -0 7 6 8 12 13 12 11 6 -8 -11 -4 1 3 4
4 4 5 7 7 5 3 3 2 -1 -2 -2 7 11 13 13 12 12 12 13 13 12 11 14 13 12 13 13 11 11 5 3 -2 -5 6 8 9 9 13 13 12 10 4 -6 -6 -7 -5 -1 -0
6 5 7 7 7 5 3 3 3 -1 -2 -2 7 13 13 13 13 13 13 14 13 10 12 14 13 12 13 12 11 9 1 -6 -4 2 12 13 10 12 12 12 12 6 3 -5 -2 -1 -2 -2 -1
6 5 8 9 7 5 5 4 4 -1 -2 10 12 13 13 14 14 14 14 14 13 10 12 15 14 14 13 12 11 10 3 -7 -7 -2 12 9 12 12 11 10 8 7 3 -4 -1 0 1 1 3
7 7 8 8 8 7 5 5 2 0 -3 5 10 13 14 14 15 14 14 15 13 10 10 14 14 14 14 13 12 9 7 -5 -9 -9 -7 1 10 9 8 7 9 8 4 -3 -0 1 2 2 3
6 6 8 8 8 7 6 6 5 3 -2 7 10 13 14 14 14 15 15 15 14 12 11 10 12 14 14 14 13 10 8 1 -6 -9 -10 -9 -5 3 6 7 8 8 5 -2 -0 2 2 3 3
7 9 7 7 7 6 7 7 6 4 2 6 7 12 11 14 14 15 15 15 15 15 15 14 10 13 13 12 12 11 10 7 2 -0 -8 -9 -9 -8 -2 3 3 4 2 -1 -2 2 2 2 3
9 9 7 4 5 7 8 8 7 6 5 10 13 12 13 13 14 15 15 15 15 15 14 13 12 13 12 12 11 10 10 9 7 5 0 -7 -7 -8 -7 -3 1 2 1 -1 -3 0 2 2 2
9 8 6 4 4 7 8 8 6 6 4 1 11 13 13 13 14 14 15 14 13 14 13 12 11 11 11 11 11 10 9 7 5 4 2 0 -6 -6 -6 -6 -2 -0 0 -1 -4 -1 0 2 2
9 7 5 6 7 7 8 7 7 5 5 3 3 12 11 13 13 13 14 14 14 14 13 13 13 12 12 9 9 9 10 9 8 3 2 2 2 -5 -4 -5 -4 -3 -3 -4 -4 -3 0 2 2
6 6 6 8 7 7 7 7 8 6 4 2 2 9 9 11 12 11 13 14 14 14 13 13 13 13 13 12 11 11 11 9 7 5 5 3 4 -1 0 4 5 7 6 2 -1 -1 0 2 3
6 5 6 8 7 8 7 7 6 5 4 3 5 9 8 6 9 12 13 14 13 14 13 13 13 13 12 12 12 11 12 11 9 9 9 9 8 9 8 7 7 7 8 8 7 7 3 4 5
5 6 6 7 6 6 7 8 7 5 4 4 4 10 10 9 9 9 8 9 11 13 13 13 13 13 13 12 12 12 12 12 10 9 10 11 11 11 11 11 10 9 9 10 9 9 9 8 8
5 6 8 5 4 4 7 9 7 5 4 4 -0 -0 -1 -1 -1 2 8 9 10 11 12 13 13 13 13 13 13 13 12 12 11 10 10 11 11 12 12 12 11 11 10 10 10 10 10 10 10
5 7 7 5 3 5 6 4 4 5 6 4 1 -0 -0 -1 -1 -1 -1 -1 2 4 9 12 13 13 13 13 13 13 13 13 12 12 11 11 11 11 12 11 11 12 12 11 11 11 11 10 10
6 6 6 5 4 3 5 2 0 1 2 2 1 1 -0 -1 -1 -2 -2 -2 -2 -1 2 4 9 12 13 13 14 14 13 13 13 13 12 12 12 12 12 12 12 12 13 12 12 11 11 11 11
3 4 6 3 2 3 3 3 1 -0 -1 -2 -1 -1 -1 -0 -1 -2 -2 -2 -3 -3 -3 -0 3 4 7 11 12 12 12 12 13 12 13 13 13 13 13 13 13 13 13 12 11 12 12 11 11
3 5 5 2 2 3 3 4 2 1 0 -1 -2 -2 -1 -1 -2 -3 -3 -3 -3 -3 -3 -2 -2 1 2 3 4 5 7 9 9 11 13 13 13 13 13 12 11 11 11 10 10 10 12 12 11
3 4 3 4 1 0 1 3 2 1 0 0 -1 -2 -2 -1 -2 -3 -3 -2 -2 -2 -2 -2 -2 -1 -0 1 1 2 3 4 4 5 6 7 9 11 11 11 12 11 11 11 8 9 11 11 11
5 1 1 2 3 5 1 6 -0 0 0 -1 -0 -1 -1 -2 -3 -3 -3 -2 -2 -2 -2 -2 -2 -2 -2 -2 -2 -1 -0 0 1 1 1 1 2 3 3 3 5 8 8 7 8 8 9 9 9
3 -0 1 1 3 2 2 3 2 -2 -0 -0 -1 -1 -1 -2 -3 -3 -3 -2 -2 -2 -2 -2 -3 -3 -3 -2 -1 -1 -2 -2 -2 -2 -2 -1 -1 -0 0 1 3 5 8 8 8 8 8 9 10
1 2 2 3 3 5 3 3 2 -1 -2 -3 -3 -2 -2 -3 -3 -1 -0 0 -0 -0 -0 -1 -2 -2 -2 -1 -1 -1 -0 -1 -1 -2 -2 -2 -2 -2 -3 -3 -2 1 5 7 7 7 9 9 9
2 3 5 7 6 6 2 3 2 -2 -3 -4 -4 -3 -3 -2 -0 1 1 1 1 1 1 1 1 0 -0 -0 -1 -1 -0 -0 -0 -0 -0 0 0 1 1 1 1 3 5 7 9 9 9 9 8
4 2 4 5 6 4 2 5 2 -2 -3 -3 -3 -3 -3 1 2 2 2 2 2 2 2 2 2 1 1 0 0 0 0 1 2 2 2 3 3 2 2 2 2 3 3 5 8 8 8 8 8
5 5 -0 1 -0 2 2 0 -3 -4 -4 -4 -2 -1 1 2 2 3 3 3 3 3 3 3 2 2 1 1 0 0 1 1 2 2 3 3 2 2 2 1 1 1 0 1 2 4 6 7 9
5 3 5 1 2 3 1 1 -0 -3 -2 -2 -0 1 1 2 3 3 3 3 3 3 3 2 2 2 1 1 1 1 1 1 1 1 1 0 0 0 0 0 0 0 0 -1 -0 1 3 4 5
6 6 4 2 1 3 4 1 -4 -5 -4 -1 -0 0 1 1 2 3 3 3 3 3 2 2 2 2 2 2 1 1 1 1 0 0 -0 -0 -0 0 1 1 0 -0 -0 0 0 0 0 1 2
5 5 4 3 3 0 0 1 -7 -6 -5 -1 0 0 1 1 2 3 3 3 3 3 2 2 2 2 2 2 2 1 1 0 -0 -0 0 0 1 2 2 2 1 1 1 1 1 1 1 2 2

GFSSGP_850_dewp_066.txt.gz
Dewpoint
3 3 2 2 4 5 5 3 2 0 -2 -2 -2 1 3 10 8 8 12 9 6 9 12 11 10 11 12 11 12 12 13 13 13 5 4 0 -1 6 10 8 9 7 -5 -11 -9 5 11 10 9
4 3 3 4 5 6 5 3 2 0 -2 8 6 10 11 13 13 12 12 11 6 8 9 11 10 10 12 11 13 13 14 13 10 4 1 1 2 8 12 11 11 7 -7 -11 -8 -4 9 9 9
4 5 3 4 5 6 3 2 2 1 -1 2 7 10 12 13 12 11 12 11 11 7 8 10 11 14 13 11 13 10 9 10 7 2 5 4 7 10 13 12 11 6 -7 -10 -5 -1 3 5 4
5 5 5 6 7 5 3 3 3 2 -2 -2 5 11 13 13 12 11 12 13 12 8 9 11 14 13 11 12 11 9 5 1 -0 0 6 7 8 11 13 12 11 4 -5 -5 -6 -4 -1 -0 -1
6 5 6 7 7 5 3 4 4 2 -1 -1 9 13 13 13 12 12 12 12 13 10 11 13 13 12 12 12 11 9 2 -6 -3 9 12 9 8 12 12 11 9 5 -3 -3 -1 -3 -3 -3 -1
7 5 7 8 7 5 4 5 4 2 -1 8 12 13 13 13 13 13 13 13 13 11 13 14 13 11 13 12 11 9 -1 -6 -6 3 14 13 12 13 10 8 6 5 -1 -3 -0 0 -0 0 3
9 7 7 7 7 7 5 5 4 3 -1 -2 11 13 13 14 14 14 14 13 13 11 12 14 13 12 12 12 11 9 2 -6 -6 -5 -1 8 13 13 8 7 7 6 1 -3 0 1 1 2 4
8 7 8 7 8 7 6 6 6 5 3 3 11 12 13 13 14 14 14 14 12 12 12 14 14 14 13 13 12 9 5 -2 -7 -8 -8 3 4 4 4 6 6 4 2 -3 -0 2 2 2 3
8 9 8 8 7 6 7 6 6 4 4 5 9 12 12 13 15 15 15 14 13 12 12 13 13 13 12 13 11 10 8 5 1 -2 -7 -6 -3 -0 2 3 4 5 3 -1 -3 1 2 1 1
9 9 7 4 6 7 8 7 6 5 4 5 5 14 14 13 15 15 15 14 14 14 14 13 11 14 13 11 10 8 8 8 7 6 3 -5 -7 -7 -5 -2 2 2 3 0 -2 -0 2 2 1
9 8 6 4 6 7 8 8 7 5 4 4 5 8 14 14 15 14 15 14 14 14 14 13 12 13 13 12 11 10 8 8 7 6 4 3 -5 -6 -6 -6 -5 -2 0 0 -0 -3 0 2 2
9 7 6 6 7 6 7 7 7 6 5 5 2 2 13 13 13 13 13 14 14 14 13 12 11 12 13 13 12 11 9 8 8 6 4 2 3 -3 -5 -5 -5 -3 -2 -3 -3 -3 -2 1 2
7 7 7 7 7 8 6 7 7 5 5 5 3 4 10 10 10 12 13 13 14 13 13 12 12 11 12 12 11 10 9 10 8 7 5 4 3 4 -2 -0 2 4 6 5 3 1 -0 0 2
6 6 6 8 8 8 7 7 5 3 4 4 3 5 11 10 9 9 11 13 14 13 13 12 12 12 12 12 11 11 11 11 10 8 9 9 7 7 7 6 6 7 8 9 8 8 7 7 4
5 8 8 8 8 8 6 7 7 4 4 4 4 3 11 10 11 11 10 11 13 13 13 12 12 12 12 12 12 12 12 12 11 9 9 10 11 11 11 11 11 10 9 10 10 10 9 9 9
6 7 9 7 8 8 6 8 6 5 5 5 4 4 1 8 10 10 10 10 10 12 11 12 13 13 13 13 13 13 13 12 12 11 10 10 10 11 11 12 12 12 11 11 10 10 10 10 10
7 7 6 8 7 8 6 7 4 5 6 6 4 4 4 -0 -0 3 9 10 10 10 11 12 13 13 13 14 13 13 13 13 13 12 12 11 11 11 11 11 11 12 12 12 12 12 12 11 11
6 6 6 7 6 7 6 4 5 5 5 5 3 4 4 2 -0 -1 -1 0 4 3 7 11 12 12 12 13 13 13 14 14 13 13 12 13 12 12 12 12 12 13 13 13 13 13 12 12 11
4 4 5 3 4 6 7 5 3 5 5 5 4 4 4 3 1 -1 -1 -2 -2 -2 -1 3 7 9 11 12 12 12 13 13 13 12 12 12 12 12 13 13 13 12 13 12 12 12 11 11 11
4 4 5 3 3 4 4 5 2 1 4 4 3 2 1 1 -1 -0 -2 -2 -2 -2 -3 -3 -0 2 5 8 8 11 12 12 11 10 11 12 11 13 13 13 13 13 12 11 11 11 12 10 9
3 4 4 4 2 1 3 4 3 2 2 1 0 1 -1 -2 -1 -1 -2 -3 -2 -2 -2 -2 -2 -2 -0 1 2 4 5 5 7 9 10 10 12 13 12 12 11 12 12 12 12 11 11 9 9
5 2 2 3 4 6 1 7 3 2 2 1 1 0 -0 -1 -2 -2 -2 -3 -2 -2 -2 -2 -2 -2 -2 -1 -1 -1 -0 0 1 2 2 2 2 2 2 3 4 3 4 6 9 10 9 10 8
3 1 1 1 3 2 2 4 3 -2 2 1 -0 -0 -1 -1 -2 -2 -2 -2 -2 -2 -2 -2 -2 -2 -2 -3 -3 -2 -2 -2 -2 -1 -1 -2 -2 -1 -1 0 0 0 2 4 6 8 10 9 9
1 2 2 2 3 4 3 3 3 -0 -2 -3 -3 -2 -2 -2 -1 -2 -2 -1 -1 -1 -1 -1 -1 -2 -2 -2 -2 -2 -2 -1 -1 -1 -1 -1 -1 -1 -1 -2 -2 -3 -3 -2 2 6 9 9 9
1 3 4 5 4 4 2 3 2 -1 -4 -4 -5 -5 -4 -2 -2 -2 -1 -1 0 0 0 -0 -0 -1 -1 -1 -1 -1 -1 -1 -1 -1 -0 0 0 1 1 1 1 1 1 1 1 4 6 9 9
3 1 3 5 6 4 1 5 2 -2 -3 -3 -4 -4 -3 -4 -3 -2 -1 1 1 1 1 1 1 1 1 1 0 0 0 0 1 1 1 1 2 2 2 2 2 2 2 2 2 6 8 9 9
5 5 -1 1 -0 1 2 0 -4 -4 -3 -4 -4 -3 -3 -3 -1 1 2 2 2 2 2 2 2 2 1 1 0 0 0 0 0 1 1 1 1 1 1 1 1 1 1 0 0 1 4 8 8
4 2 5 1 2 3 1 1 0 -3 -4 -5 -2 -1 -1 -0 2 3 2 2 3 3 3 3 2 2 1 1 1 1 0 0 0 -0 -0 -0 -0 -1 -1 -1 -1 -1 -1 0 1 1 3 5 5
6 5 4 2 1 2 3 1 -4 -4 -7 -6 -3 -1 0 1 2 2 3 3 3 3 3 2 2 2 2 2 2 1 1 1 0 0 -0 -0 -0 -0 -0 0 1 1 1 0 0 1 1 1 2
4 5 3 4 3 0 0 1 -5 -6 -6 -6 -2 -1 0 2 2 3 3 3 3 3 3 2 2 2 2 2 2 1 1 1 1 0 -0 -0 1 1 2 2 2 1 1 1 1 1 1 2 2

GFSSGP_850_dewp_069.txt.gz
Dewpoint
4 3 3 3 4 4 3 2 2 1 -1 -2 -2 -0 5 9 7 5 10 5 4 8 14 12 13 11 12 12 10 10 12 12 5 3 1 -1 7 9 7 8 4 -6 -12 -10 -4 8 9 9 9
4 4 4 3 5 4 3 3 2 1 0 7 6 10 10 12 12 12 9 7 5 10 13 11 12 13 12 10 12 13 14 14 6 2 1 3 8 10 9 9 4 -8 -12 -9 -7 5 9 8 8
5 5 4 5 5 5 2 3 3 3 1 2 8 11 12 13 12 11 10 7 6 9 11 14 13 13 10 12 12 14 12 11 6 4 4 7 9 12 12 11 4 -6 -9 -6 -3 0 6 5 3
5 6 4 5 6 4 2 3 3 4 -1 -1 6 12 13 13 12 11 10 6 10 8 12 15 12 13 11 12 11 8 7 5 5 5 5 7 10 12 12 10 4 -4 -5 -6 -4 -2 -1 -0 -2
7 5 6 8 6 5 3 4 5 2 1 -1 9 12 13 13 13 13 10 8 8 9 12 12 15 13 11 11 10 7 3 -3 -1 8 6 7 10 13 12 10 4 -3 -3 -2 -3 -3 -2 -1 1
7 6 8 8 6 5 4 5 3 3 1 7 10 13 13 13 13 13 13 12 8 9 12 13 15 13 11 11 10 5 0 -4 -4 10 10 8 12 14 11 9 5 1 -3 -1 -0 -1 -0 1 3
8 8 8 6 6 6 4 5 5 5 2 -1 11 12 13 13 14 13 13 12 12 10 13 13 13 12 13 12 10 7 -1 -5 -7 -1 11 14 14 14 9 7 4 2 -3 -1 0 0 0 2 3
7 7 8 7 6 5 6 5 6 4 3 5 10 11 13 14 14 14 14 14 13 12 14 14 13 12 12 12 11 10 2 -6 -7 -6 -6 -0 5 1 5 5 5 5 1 -3 -0 1 1 1 1
8 9 9 8 7 6 7 6 6 3 5 8 10 13 13 15 15 15 14 14 13 13 13 14 13 14 13 12 12 11 6 -0 -6 -7 -6 -2 1 2 4 3 4 4 2 -1 -2 1 1 1 1
9 9 8 5 5 7 8 7 6 4 4 4 3 12 14 15 14 15 15 14 14 13 13 14 14 14 13 11 10 10 9 7 4 3 1 -6 -6 -5 -4 -1 1 2 2 0 -2 -2 1 2 2
8 9 6 4 7 7 7 7 6 5 4 6 4 4 14 15 15 13 14 13 13 13 13 13 14 13 13 11 10 9 8 8 8 7 5 3 -2 -6 -6 -6 -5 -3 0 1 0 -2 -2 1 2
8 7 5 7 7 6 7 7 6 6 5 5 4 4 12 14 16 13 12 13 13 14 14 14 13 12 13 13 12 11 9 8 7 7 5 3 2 1 -4 -5 -5 -4 -1 -1 -2 -3 -3 -1 1
8 7 6 7 7 6 7 7 6 6 5 4 4 4 8 13 12 11 12 12 13 14 14 13 12 12 13 13 12 11 9 9 9 8 6 4 3 3 4 -2 -0 0 3 6 6 4 2 1 1
7 6 7 7 8 7 7 7 5 5 4 4 4 4 7 12 11 11 10 11 12 13 13 12 12 11 11 12 11 10 10 11 11 8 7 9 8 6 7 4 5 6 7 8 9 9 8 8 8
6 7 8 8 8 8 7 7 7 5 4 4 3 4 3 7 11 11 9 10 10 11 13 13 12 12 12 12 12 11 11 12 11 11 9 9 10 11 11 11 11 11 10 10 10 10 10 10 10
6 7 8 8 8 8 8 8 5 5 4 5 4 4 3 2 4 10 11 11 10 11 13 13 13 12 12 12 12 12 12 12 12 12 11 10 10 10 11 11 12 12 12 12 12 11 11 11 11
7 8 8 9 7 8 8 7 4 5 4 5 4 4 4 3 1 1 10 10 10 11 12 13 13 13 13 13 13 13 13 13 13 13 12 12 12 11 11 11 11 12 12 12 12 12 12 12 12
7 7 7 7 8 7 7 6 6 6 4 4 5 4 5 3 2 0 -1 9 11 10 10 10 12 12 12 13 13 13 13 13 13 13 13 13 13 13 12 12 12 12 12 13 13 13 12 12 12
4 5 6 6 6 7 7 5 6 6 6 5 5 4 4 4 2 2 0 -1 3 8 6 5 7 8 9 10 11 11 11 11 12 13 13 13 13 13 13 12 12 13 12 12 12 12 11 11 10
4 6 5 3 5 5 7 6 4 5 5 4 2 3 4 4 2 2 -2 -0 -2 -2 -1 -1 -0 3 5 7 9 9 9 8 10 12 12 12 11 12 12 12 12 12 12 12 12 12 12 12 11
3 5 4 4 4 2 4 5 5 2 4 3 4 3 4 2 2 1 -2 -1 -1 -2 -2 -2 -2 -1 1 3 6 7 6 6 7 8 9 9 10 11 11 11 11 11 11 10 10 11 12 12 12
5 2 3 4 5 7 3 7 4 3 3 3 2 1 3 3 1 -0 -2 -1 -1 -2 -2 -2 -1 -1 0 1 1 1 0 1 1 1 2 3 4 4 4 4 3 3 4 4 4 6 9 12 11
3 1 2 2 3 3 2 5 3 2 3 3 2 1 1 2 1 -0 -1 -2 -2 -2 -2 -1 -2 -2 -2 -2 -2 -2 -2 -2 -2 -2 -2 -1 -1 -1 -1 -1 -1 -1 -1 -0 -0 1 4 8 11
1 2 2 2 3 7 4 5 4 1 1 0 1 1 1 0 -0 -0 -0 -2 -2 -1 -1 -1 -1 -1 -2 -2 -2 -3 -3 -3 -2 -2 -1 -1 -1 -1 -1 -1 -1 -1 -1 -2 -2 -2 -0 4 10
1 2 6 7 7 6 2 3 3 -0 -3 -3 -3 -2 -1 -0 -1 -1 -1 -2 -1 -1 -0 -0 -1 -1 -1 -1 -2 -2 -2 -2 -2 -1 -1 -1 -0 0 1 1 1 1 1 0 0 0 1 3 6
2 1 4 5 6 5 2 5 2 -2 -2 -3 -4 -4 -4 -4 -4 -3 -1 -2 -1 0 0 0 0 0 -0 -0 -0 0 -0 -0 -0 0 0 0 1 1 1 1 1 1 1 1 1 1 2 6 10
4 3 -1 1 -0 2 2 0 -3 -5 -5 -5 -4 -4 -4 -4 -3 -2 -2 -0 1 1 1 1 0 0 1 1 1 0 0 0 0 0 0 0 0 0 0 -0 -0 -0 -0 0 0 0 0 3 8
3 1 4 2 3 4 1 0 -1 -4 -4 -6 -7 -5 -3 -3 -3 -2 0 2 2 2 2 2 2 2 1 1 1 0 0 0 -0 -0 -0 -0 -0 -1 -1 -1 -1 -1 -1 -1 -1 -0 1 1 5
5 5 3 2 1 3 2 1 -4 -3 -6 -5 -6 -4 -3 -2 -1 1 3 3 2 3 3 2 2 2 1 2 2 2 1 1 1 0 0 -0 -1 -1 -1 -1 -1 -0 0 0 0 -0 0 1 2
3 4 3 4 3 0 1 2 -4 -6 -6 -5 -3 -2 -1 -1 2 3 3 3 3 3 3 3 2 2 2 2 2 2 1 1 1 1 0 -0 -1 -0 0 1 1 1 1 1 1 1 1 1 2

GFSSGP_850_dewp_072.txt.gz
Dewpoint
4 2 2 3 2 1 -0 -0 1 0 -2 -0 -1 -1 6 6 3 7 12 8 13 14 16 13 12 13 13 13 12 11 12 7 5 3 0 7 7 8 8 1 -8 -11 -11 -5 7 8 9 9 8
4 4 4 4 1 1 0 -0 1 1 1 4 5 6 6 8 12 12 12 7 12 15 16 15 13 13 14 12 11 12 12 5 3 1 3 8 9 9 8 1 -9 -11 -8 -6 5 8 8 6 3
5 6 3 1 0 0 -1 1 2 3 2 3 6 10 10 11 14 13 14 9 14 15 15 15 12 14 13 11 12 14 9 8 4 3 6 9 12 12 8 1 -7 -8 -4 -4 2 6 4 2 -2
8 5 3 1 0 0 0 3 3 2 -1 1 5 9 13 14 14 14 11 14 14 15 15 14 14 13 11 12 12 10 7 5 5 4 7 10 12 12 8 1 -4 -5 -5 -3 -1 -1 -1 -2 1
8 5 3 2 2 2 2 3 4 2 0 0 7 10 12 15 14 14 14 14 15 14 15 14 14 13 12 12 10 8 2 -2 5 5 7 9 12 12 8 4 -1 -3 -3 -4 -4 -3 -2 0 1
7 5 4 3 2 3 3 4 3 3 -0 6 9 10 13 13 14 14 15 14 14 15 16 14 15 13 11 11 10 4 -2 -2 2 7 6 9 12 14 10 5 2 -3 -1 -1 -2 -2 -1 1 2
7 6 4 4 4 4 3 5 3 3 -0 5 11 10 14 14 16 16 15 15 14 15 16 14 15 13 12 11 10 4 -3 -2 4 9 7 11 13 14 10 7 5 1 -2 -0 -0 -0 -0 1 1
7 5 6 5 5 4 6 5 6 3 3 8 12 10 13 15 17 16 16 14 14 15 16 15 14 13 13 12 11 8 -2 -4 1 1 6 9 7 3 6 6 5 4 -1 -2 0 1 1 1 1
8 8 8 5 4 4 6 5 6 5 5 6 6 12 13 14 15 15 16 15 15 15 15 15 15 15 14 14 11 10 3 -5 -5 -2 -3 -1 9 4 5 5 6 5 4 -1 -2 1 1 1 1
7 9 6 3 3 3 6 6 6 4 5 5 5 8 14 15 15 16 15 15 14 15 15 15 15 15 14 13 12 12 8 3 0 -1 -4 5 3 6 1 2 3 4 3 2 -1 -2 0 2 2
7 8 4 3 4 6 6 6 6 4 5 5 4 6 14 15 15 15 14 15 14 14 14 15 15 15 14 14 14 13 12 9 8 7 5 3 -2 -6 -5 -4 -4 -2 1 2 2 1 1 0 2
7 6 5 4 5 5 6 6 5 6 5 5 5 6 13 14 14 16 15 14 14 13 13 13 14 14 14 14 13 14 13 10 9 7 6 5 3 2 -3 -4 -4 -5 -2 1 0 1 -1 -2 -1
6 4 5 5 6 5 6 6 5 5 6 5 5 5 11 13 14 15 15 15 15 14 13 14 14 14 13 14 14 14 13 9 10 9 8 6 5 3 5 3 -2 -1 -0 3 7 6 5 3 3
4 4 5 5 6 6 5 5 5 5 5 4 4 4 5 10 13 13 13 13 13 14 14 14 14 14 14 14 13 13 13 12 10 9 7 7 9 7 5 6 1 4 6 7 9 9 9 9 9
5 6 5 6 6 6 6 6 6 4 5 4 4 4 4 5 10 12 13 11 11 13 13 14 13 13 13 13 13 13 12 11 11 11 9 9 10 11 10 10 10 11 11 10 10 9 9 9 10
5 5 8 6 6 7 6 8 5 4 5 4 3 4 4 3 4 8 11 11 11 11 13 13 13 12 12 13 12 13 12 12 11 11 11 10 10 10 10 11 11 12 12 12 12 11 11 11 12
5 5 6 7 6 7 7 6 4 4 4 4 3 4 4 3 2 2 8 10 10 11 12 13 13 13 13 13 13 13 12 12 12 12 12 12 12 12 11 11 11 11 12 12 12 12 12 12 12
3 4 4 6 7 7 7 6 6 6 5 4 3 3 4 4 3 2 0 7 10 11 12 13 12 13 13 13 13 13 12 12 12 12 12 12 13 12 12 12 12 12 12 12 12 13 12 12 12
-1 2 5 4 7 7 6 6 5 4 4 4 3 2 4 4 3 3 2 0 3 11 10 10 11 11 12 12 12 12 12 11 11 12 13 13 13 13 12 12 12 12 12 13 13 13 12 12 12
2 3 4 5 6 6 6 7 4 3 3 2 3 3 3 3 4 3 2 -0 -1 -0 7 8 8 9 10 10 10 10 10 11 11 9 12 12 12 12 12 12 12 12 12 12 12 12 12 12 13
2 2 4 4 6 5 5 6 5 3 2 3 2 1 1 3 3 3 3 -0 -2 -1 -2 -2 1 0 4 6 6 7 8 9 9 8 9 9 10 9 9 9 10 10 11 11 11 11 13 12 11
4 1 3 5 6 4 4 1 3 4 3 2 2 1 1 3 3 3 3 -1 -2 -1 -1 -2 -2 -2 0 3 4 6 7 6 4 3 3 3 2 3 4 5 6 5 5 4 3 4 4 5 9
3 2 2 3 2 3 4 4 -2 1 2 2 1 1 1 1 3 2 3 -1 -1 -1 -1 -1 -1 -1 -0 1 1 0 -0 -1 -1 -1 -1 -1 -1 -1 -1 -0 -0 -0 -0 -1 -1 -1 -1 -0 3
1 2 3 3 2 6 1 3 -0 0 0 -0 -1 0 1 1 1 2 2 -0 -0 -1 -2 -1 -1 -1 -1 -1 -1 -2 -2 -2 -2 -2 -2 -2 -2 -2 -1 -1 -1 -1 -1 -1 -2 -2 -2 -1 0
2 3 7 6 7 4 2 3 -0 -2 -2 -3 -2 -2 -0 0 1 1 1 0 -0 -1 -2 -1 -1 -1 -1 -1 -2 -2 -2 -2 -3 -3 -2 -1 -1 -1 -1 -1 -1 -1 -1 -0 0 0 1 1 4
3 1 4 4 4 2 2 4 -1 -2 -2 -3 -3 -3 -3 -3 -1 1 0 1 -1 -1 -1 -1 -0 -0 -1 -1 -1 -2 -2 -2 -1 -1 -1 -0 0 0 0 0 0 0 0 0 1 1 2 2 5
3 4 -2 2 0 3 1 0 -2 -5 -4 -6 -5 -4 -3 -3 -2 -4 -3 -1 -1 -1 -0 0 1 0 -0 -1 -1 -0 -0 -0 -0 -0 -0 -0 -0 -0 -0 -0 -1 -1 -1 -1 -0 0 1 1 5
3 -1 4 5 6 3 -0 -1 -4 -3 -4 -6 -6 -6 -5 -3 -3 -4 -3 -1 -0 0 1 1 1 1 1 1 1 0 0 0 -0 -0 -0 -1 -1 -1 -1 -1 -1 -2 -2 -1 -1 -1 -1 1 4
4 3 3 1 2 2 0 -2 -5 -4 -5 -4 -4 -2 -2 -1 1 1 1 3 2 2 2 2 2 1 1 1 1 1 1 1 1 1 1 0 -0 -1 -1 -1 -1 -0 -0 0 0 0 0 1 2
3 3 2 4 5 3 2 -0 -5 -5 -5 -4 -2 -1 -1 -1 1 3 3 2 3 2 2 2 2 2 2 2 2 2 2 1 1 1 1 1 0 -0 -0 0 1 1 1 1 1 1 1 1 1

GFSSGP_850_dewp_075.txt.gz
Dewpoint
5 8 7 6 4 0 1 1 -1 -1 -1 -1 -1 -0 5 6 3 13 12 12 13 15 15 12 12 12 13 13 12 11 11 6 6 2 5 10 7 4 -5 -11 -11 -11 -5 4 7 8 8 7 1
12 8 6 2 3 1 1 -1 1 -1 -1 1 2 2 5 9 11 13 12 12 13 15 14 15 12 12 13 13 10 11 5 4 2 3 8 12 8 6 -3 -10 -10 -9 -5 6 7 7 6 2 -3
8 7 3 1 0 1 0 -1 -2 1 1 2 1 7 7 12 13 11 12 12 14 15 15 14 13 12 13 10 11 11 6 5 2 6 8 11 12 8 0 -7 -6 -5 -4 4 5 4 0 -2 1
8 6 4 2 1 -2 -3 -1 1 0 -0 2 2 4 12 13 12 12 13 12 14 15 15 15 13 13 11 11 14 8 7 6 4 7 9 12 12 9 2 -5 -6 -5 -4 -0 0 -1 -2 -1 2
10 4 2 3 1 -3 -1 2 3 0 0 2 4 8 12 15 14 14 13 13 14 14 16 14 13 13 11 11 9 6 5 3 5 7 10 13 13 8 2 -3 -3 -4 -4 -3 -2 -2 -0 0 2
8 4 5 4 1 -1 0 2 1 1 -0 2 5 9 14 15 15 14 13 13 13 14 15 14 15 13 12 11 9 4 -2 4 5 7 10 12 13 10 5 -0 -3 -2 -2 -3 -2 -1 0 1 1
9 5 5 3 1 3 2 3 2 1 -0 6 7 8 14 15 15 14 13 13 13 15 15 15 14 13 13 12 10 3 -3 2 6 6 9 14 13 12 8 4 0 -3 -1 -0 -1 -1 -0 1 1
8 7 5 3 3 4 3 4 5 3 2 9 11 8 13 15 15 15 13 13 13 15 15 15 14 14 12 12 10 2 -1 1 6 7 8 13 9 2 6 4 3 0 -3 -1 0 0 0 1 1
8 10 8 5 5 3 4 3 5 4 4 6 8 12 13 14 15 14 14 14 14 14 14 15 15 15 14 14 11 7 -0 1 4 3 1 6 11 5 5 3 4 3 2 -1 -2 -0 1 1 1
9 10 6 3 1 3 2 3 4 3 4 5 6 9 12 15 15 15 15 14 14 14 15 15 14 14 14 14 11 12 1 -2 7 7 -3 12 13 13 12 2 2 3 3 2 -0 -2 -1 2 8
8 9 5 3 3 2 5 5 5 3 4 5 5 8 14 15 15 15 15 15 15 14 15 15 14 14 14 14 13 13 13 11 10 11 11 10 10 6 -4 5 -3 -2 -0 2 3 1 3 10 4
7 7 6 7 4 4 4 3 3 5 5 5 5 8 13 15 15 15 15 15 15 15 15 14 14 14 14 14 14 13 13 13 12 12 12 11 9 8 9 9 10 5 9 11 12 11 10 9 4
7 4 5 8 5 4 4 3 5 5 5 5 4 6 12 14 14 15 14 15 14 15 14 15 14 14 14 14 13 13 13 13 13 13 12 12 11 11 10 9 8 8 7 8 10 11 10 9 9
1 2 5 6 6 4 4 4 5 4 4 4 4 4 8 13 14 14 14 14 14 14 14 15 15 15 14 14 14 14 13 13 13 13 13 9 11 10 7 10 5 5 5 9 11 11 11 11 11
1 2 4 7 8 7 5 5 5 1 4 4 4 3 5 6 11 13 14 13 14 15 15 14 15 14 14 14 14 13 13 13 13 13 13 9 9 10 9 9 12 10 10 11 11 11 11 11 11
3 3 7 4 5 6 5 6 4 2 3 4 4 3 4 5 5 5 12 13 14 14 14 15 15 14 14 14 14 14 13 13 13 13 14 13 11 9 9 10 11 12 12 12 12 12 12 12 12
5 4 5 3 4 6 6 4 2 4 3 3 4 3 3 4 4 4 5 10 13 14 14 15 15 14 14 14 14 14 14 14 13 14 14 14 14 13 11 11 12 12 13 13 12 13 13 13 13
3 2 2 2 4 5 6 6 5 5 5 4 3 3 3 4 4 3 3 4 10 13 14 14 14 14 14 14 14 14 14 14 14 14 14 14 14 14 13 13 13 13 13 13 13 13 13 13 12
-4 -2 1 -0 2 6 6 6 5 4 4 4 4 3 2 3 4 4 2 1 3 11 13 14 13 13 14 14 14 14 14 14 14 14 14 14 14 13 14 13 13 13 13 13 13 12 12 12 12
-1 -2 2 2 3 5 4 4 3 2 3 3 2 2 2 2 3 4 3 2 0 0 9 11 13 14 14 14 13 14 14 14 14 14 11 12 12 13 12 12 13 13 13 13 12 13 13 13 13
-0 -2 3 4 4 4 3 3 3 3 3 2 1 2 2 2 2 3 4 2 2 -1 0 7 10 10 9 11 12 10 10 10 11 11 11 7 8 9 10 10 10 10 12 13 13 13 13 12 11
3 -2 -0 1 5 5 2 1 -1 2 3 1 1 2 1 1 2 2 3 3 2 -2 -1 -1 -1 1 1 1 6 8 10 11 11 9 7 4 3 2 2 2 3 4 5 5 5 4 4 9 9
-0 -0 1 3 4 -0 3 4 -2 -0 3 2 0 0 1 1 1 3 3 3 2 -1 -2 -1 -1 -2 -2 -0 3 5 7 7 5 1 -0 -1 -1 -1 -1 -2 -1 -1 -0 -0 -0 -0 -1 -1 -0
1 1 2 1 1 5 2 1 -2 -2 -2 -2 -2 -1 -0 0 1 1 3 2 2 0 -1 -1 -1 -1 -1 -0 0 1 0 -1 -1 -2 -2 -2 -2 -2 -2 -2 -2 -1 -1 -1 -1 -1 -1 -0 0
1 2 6 5 6 5 0 -0 -2 -3 -3 -3 -3 -3 -2 -1 -0 0 2 2 2 1 -1 -1 -2 -1 -1 -1 -1 -1 -1 -2 -2 -2 -2 -2 -1 -1 -2 -2 -1 -1 -1 -1 -0 0 1 1 2
2 0 3 3 3 1 1 3 -1 -4 -4 -3 -3 -3 -3 -3 -1 -0 1 2 3 1 -0 -1 -1 -1 -1 -1 -1 -1 -2 -2 -2 -2 -2 -1 -1 -0 -0 0 0 0 -0 -0 -0 0 1 1 2
3 5 -1 2 0 1 1 -2 -3 -6 -4 -5 -5 -5 -3 -2 -3 -2 -1 2 3 2 -0 -1 -0 -1 -1 -1 -1 -1 -1 -2 -2 -1 -1 -1 -0 -0 -0 -0 -0 -1 -1 -1 -1 -1 -0 1 2
2 0 2 4 5 1 -1 -2 -3 -4 -4 -5 -5 -4 -4 -4 -3 -1 -1 -0 2 3 1 2 1 0 0 -0 -1 -1 -1 -0 -0 -0 -0 -1 -1 -1 -1 -1 -1 -1 -1 -2 -2 -1 -1 0 1
3 3 2 1 2 3 -2 -3 -6 -3 -4 -3 -3 -2 -2 -2 -1 -0 1 2 3 4 4 3 2 1 1 0 -0 -0 0 0 1 1 1 1 0 0 -0 -1 -1 -1 -1 -1 0 0 0 1 1
4 2 0 3 3 2 3 0 -6 -5 -5 -3 -2 -2 -1 0 1 1 2 3 4 4 4 3 2 1 1 1 1 1 1 1 1 1 1 1 1 1 0 0 -0 -0 0 1 1 1 1 1 2

GFSSGP_850_dewp_078.txt.gz
Dewpoint
6 6 7 8 9 5 5 1 2 4 4 5 4 0 5 11 10 14 11 13 12 6 7 10 13 12 13 12 12 10 7 6 2 6 6 5 -2 -8 -10 -6 -3 -0 5 6 6 6 3 -3 4
8 10 7 7 6 5 2 0 4 1 1 2 2 4 8 13 12 11 12 13 12 4 7 9 12 13 13 11 9 4 2 2 4 9 9 7 0 -9 -11 -11 -11 -2 5 5 5 1 -3 -2 6
8 9 6 6 5 5 2 -0 1 1 0 1 2 6 13 14 12 12 13 14 14 8 8 11 13 13 13 9 9 3 3 3 5 8 11 10 4 -5 -8 -6 -7 1 4 2 -0 -3 -2 0 4
8 9 7 4 3 2 -0 -0 1 1 -0 1 1 9 13 14 11 12 12 14 15 13 13 12 13 13 11 10 8 5 5 3 6 8 12 11 5 -1 -5 -5 -4 -2 -0 -1 -2 -3 -0 2 4
9 8 6 6 4 0 -2 1 2 1 -1 1 2 11 13 14 14 13 12 14 14 15 14 14 13 13 10 13 6 4 5 4 6 8 12 12 6 1 -3 -4 -4 -4 -4 -3 -3 -2 -1 0 1
9 8 6 5 4 0 2 2 1 1 0 3 4 10 15 14 14 13 12 14 14 15 14 13 13 12 11 11 7 3 2 4 6 9 12 12 10 4 -1 -3 -3 -3 -4 -3 -3 -2 -1 -1 0
10 8 8 4 3 1 3 3 1 0 -1 6 4 8 10 13 14 13 13 13 14 15 15 12 14 12 12 11 9 1 4 4 6 9 12 13 9 6 2 -1 -3 -2 -2 -2 -2 -1 -0 -0 0
8 9 8 6 3 4 3 3 4 4 6 8 9 9 15 13 14 13 13 13 14 15 13 14 13 12 12 11 9 2 6 7 5 7 11 11 3 1 1 0 -1 -3 -2 -1 -1 -1 -1 -0 0
8 10 10 7 6 5 3 4 4 3 6 6 9 12 14 13 14 13 13 13 14 14 14 14 14 12 12 11 9 1 7 10 9 8 10 10 4 3 1 1 0 1 -0 -2 -2 -1 -0 0 1
8 10 9 5 5 4 4 3 3 4 5 6 8 12 13 11 13 13 13 14 15 13 14 13 13 14 14 12 10 4 1 6 4 4 2 12 13 10 2 3 1 1 1 0 -0 -1 -3 -1 2
8 9 7 6 6 4 3 5 4 3 6 5 5 10 14 14 9 12 13 13 14 14 13 14 14 14 13 13 11 10 2 2 10 11 7 12 12 12 7 -1 -2 -3 -2 -1 1 2 3 3 3
8 7 7 7 9 7 5 4 5 5 5 5 5 9 12 14 14 13 13 13 12 13 13 13 13 13 13 13 13 13 12 11 11 11 11 11 9 7 6 7 4 -1 -3 -1 3 3 8 8 3
8 7 7 7 8 8 7 3 4 6 5 4 4 9 12 14 14 15 15 14 14 14 13 14 13 13 13 13 13 13 13 13 13 12 12 12 11 10 7 7 6 3 2 3 6 7 7 8 9
5 4 6 6 6 6 8 4 4 4 5 4 4 6 11 13 14 14 13 12 14 14 13 13 14 13 13 13 13 13 13 13 13 13 12 12 11 9 8 7 5 2 1 3 7 9 11 10 10
0 6 8 7 7 6 7 10 6 4 4 4 4 4 6 8 14 13 11 10 13 13 13 13 14 13 13 13 13 12 13 13 13 13 13 10 9 9 8 6 9 8 8 9 10 10 10 10 10
3 4 8 7 6 6 7 7 4 3 4 4 4 3 4 5 5 12 13 11 13 14 14 13 12 13 14 13 13 13 13 13 13 13 13 12 9 9 9 10 10 11 12 11 11 11 12 11 12
6 7 5 6 6 6 7 8 4 4 4 4 4 4 3 5 5 4 9 13 13 13 12 13 14 13 13 13 13 12 13 13 13 13 14 14 12 12 11 11 11 11 12 12 12 12 12 12 12
6 4 4 3 6 5 7 7 5 4 3 2 3 3 3 3 4 4 3 7 12 13 14 13 13 13 13 13 13 13 13 13 13 13 13 13 14 13 14 12 13 13 13 13 12 12 12 12 12
1 1 1 1 3 6 6 6 6 4 4 4 3 4 3 3 3 4 3 3 7 12 14 13 12 13 14 14 14 13 13 13 13 13 13 14 13 13 13 13 14 13 13 13 13 13 12 12 12
5 1 1 1 6 7 6 5 4 4 5 5 5 4 3 3 3 4 4 2 1 6 11 11 12 11 12 13 13 13 13 13 13 13 13 13 13 13 12 13 13 12 13 13 12 12 12 12 12
6 3 2 6 5 6 5 5 3 3 3 3 3 4 3 3 2 3 4 3 2 0 3 10 12 14 13 13 13 13 12 11 11 11 12 11 10 10 10 11 11 12 13 13 12 12 11 11 11
5 1 1 4 6 7 4 4 3 1 3 2 2 2 1 1 2 2 3 3 3 2 -0 2 10 11 11 11 9 9 9 11 12 11 10 8 7 5 3 3 2 1 1 1 2 3 4 5 6
4 0 3 5 6 3 6 5 0 0 2 3 2 2 1 1 1 2 2 3 3 3 1 -2 -1 2 6 7 6 7 9 10 10 10 9 5 0 -1 -2 -2 -2 -2 -2 -2 -1 -1 -0 -0 -0
1 4 4 4 4 5 3 3 0 0 1 1 1 1 1 1 1 1 2 3 3 3 2 -0 -2 -1 -2 -2 -1 2 4 5 6 4 -0 -2 -2 -3 -3 -3 -3 -2 -2 -1 -1 -1 -0 0 1
3 6 7 6 5 5 0 1 0 -3 -3 -3 -2 -2 -2 -0 1 1 2 3 3 3 2 -0 -2 -1 -1 -1 -1 -1 0 0 -1 -2 -2 -2 -2 -2 -3 -3 -3 -2 -2 -1 -0 0 1 1 2
3 2 5 4 5 4 -0 3 -0 -3 -3 -3 -3 -3 -3 -3 -1 0 0 2 2 2 2 -1 -1 -1 -1 -1 -1 -1 -1 -1 -2 -2 -2 -2 -2 -2 -1 -1 -1 -1 -1 -1 -1 -1 -0 0 1
3 5 -0 4 -0 3 2 -1 -4 -4 -4 -4 -4 -4 -3 -2 -3 -3 -0 2 2 2 2 0 -0 -1 -1 -1 -0 -1 -1 -2 -2 -2 -2 -2 -1 -1 -1 -1 -1 -1 -1 -2 -2 -2 -2 -1 -1
4 1 3 4 3 1 2 -0 -1 -4 -4 -5 -3 -3 -3 -4 -4 -3 -2 -0 2 2 2 2 1 -0 -0 -0 -0 -1 -0 -1 -2 -2 -1 -1 -1 -1 -1 -1 -1 -1 -1 -2 -2 -2 -2 -1 -1
4 6 3 2 3 5 2 -1 -4 -3 -3 -2 -2 -1 -1 -1 -1 -2 -1 -2 -1 2 3 3 3 3 1 -0 -1 -0 -1 -1 -1 -0 -0 0 0 0 0 0 0 -0 -1 -1 -1 -1 0 0 0
4 3 2 5 4 3 3 2 -5 -4 -3 -2 -1 -2 -2 -1 -0 1 1 1 1 3 4 4 3 2 2 1 0 -0 -0 -0 0 1 1 0 0 0 1 1 1 0 -0 -0 0 1 1 1 1

GFSSGP_850_dewp_081.txt.gz
Dewpoint
4 5 8 8 7 7 7 3 1 5 4 5 2 3 10 12 13 12 13 13 14 11 10 10 12 11 12 12 10 9 4 3 2 -1 -6 -4 0 3 6 7 8 7 2 3 3 -3 2 6 8
6 10 9 7 8 6 3 1 3 3 1 4 5 7 12 13 12 13 14 14 10 7 8 10 12 12 11 10 6 4 2 2 8 3 -2 -8 -12 -13 -11 -9 -6 1 3 1 -2 -4 4 6 7
7 11 8 7 6 6 3 -1 3 3 3 3 6 9 13 13 12 13 14 14 8 7 8 12 12 12 10 8 3 2 3 4 9 9 1 -5 -8 -7 -9 -8 0 0 -0 -2 -3 -1 3 6 6
7 9 8 7 6 3 1 2 1 3 1 1 5 11 12 14 13 14 15 13 8 8 10 13 13 12 9 7 3 3 4 5 8 12 4 -3 -6 -6 -6 -3 -1 -2 -3 -3 -2 0 2 4 5
8 9 8 8 7 1 -1 1 1 1 0 2 9 13 13 13 13 14 15 14 8 9 12 13 13 11 9 7 5 4 3 4 7 12 4 -2 -4 -5 -5 -4 -4 -4 -3 -3 -2 -1 -0 1 3
9 8 7 8 5 2 1 1 -0 1 -0 1 10 13 14 11 13 14 15 15 10 11 13 13 13 11 13 8 5 4 4 6 8 12 10 2 -2 -4 -4 -4 -4 -4 -4 -3 -2 -1 -1 -1 -0
9 9 8 4 4 3 3 2 2 1 2 6 6 12 12 14 12 14 14 14 14 14 13 13 13 11 12 8 5 2 4 6 9 13 11 7 4 -1 -3 -3 -3 -3 -3 -3 -2 -2 -1 -1 -0
7 8 8 6 4 4 3 4 4 4 7 8 9 13 10 13 12 14 14 14 15 16 13 13 12 11 9 8 3 3 4 5 8 11 11 3 2 0 -0 -2 -3 -2 -2 -2 -2 -1 -1 -1 -0
8 9 9 8 7 6 3 4 3 5 7 8 11 11 6 12 7 12 14 14 14 15 13 13 12 11 11 8 2 3 6 5 7 9 11 6 2 1 0 1 0 -1 -3 -3 -2 -2 -1 -1 -0
8 9 8 6 6 4 3 3 3 5 8 13 12 12 7 6 6 7 13 14 14 14 13 14 12 12 12 9 4 1 6 6 6 7 9 9 6 5 3 1 0 0 -0 -0 -1 -2 -3 -3 -0
7 9 7 8 9 6 4 4 3 5 6 6 13 13 13 13 7 4 12 14 14 13 13 13 12 12 11 11 8 0 1 4 3 1 10 10 10 8 6 -1 -3 -3 -3 -2 -1 1 2 2 1
8 7 8 8 8 8 6 4 6 5 5 5 7 10 13 14 12 9 6 13 14 13 12 14 12 12 13 13 11 11 4 4 8 10 11 11 12 9 4 1 1 0 -2 -2 1 1 2 4 5
7 7 8 7 7 8 8 7 6 5 4 6 9 10 12 11 13 13 11 10 13 12 12 13 13 12 13 12 13 13 13 11 11 11 11 11 10 7 5 4 4 2 1 0 2 5 6 7 8
6 6 7 7 8 8 8 8 6 5 4 6 7 9 13 13 12 11 11 11 12 12 12 13 13 12 12 13 14 12 12 12 12 12 11 11 10 9 7 6 6 5 2 2 4 7 8 9 9
5 6 6 7 7 8 7 9 7 4 4 4 6 6 11 13 13 13 10 10 11 9 12 13 13 13 13 12 12 12 12 12 12 13 12 10 10 9 8 7 6 7 6 8 9 9 10 10 10
6 6 8 6 8 8 7 9 7 5 4 4 5 5 5 7 11 12 12 11 11 12 11 13 13 13 13 13 12 12 12 12 12 13 12 11 8 8 8 9 9 10 10 11 11 11 11 11 11
6 8 8 8 7 8 8 8 5 5 4 4 4 4 5 5 5 8 12 12 11 10 12 12 13 12 12 13 13 12 12 13 12 12 12 12 12 10 10 9 10 10 11 12 12 11 12 12 12
7 6 6 7 7 7 8 7 5 5 5 4 4 4 4 5 4 5 5 11 11 12 11 12 12 12 13 12 12 12 13 13 12 11 12 13 12 13 12 12 12 12 13 12 13 13 12 12 11
4 4 4 4 6 6 6 5 4 4 5 4 3 3 3 3 4 4 4 7 11 10 10 12 12 12 12 13 12 12 12 13 12 13 14 13 14 14 12 12 12 12 12 13 13 12 12 12 12
5 3 3 3 6 5 4 5 5 4 5 4 3 3 3 3 3 4 4 4 6 10 10 11 12 12 12 12 12 12 11 12 12 12 13 13 13 13 13 13 13 13 13 12 12 12 12 12 11
6 4 3 4 6 7 7 7 6 4 4 4 4 4 3 3 3 3 4 4 4 4 9 10 10 10 11 11 11 13 13 13 12 11 11 12 12 13 11 10 8 8 11 12 12 11 11 11 10
7 3 3 5 7 8 5 8 5 4 5 4 4 4 4 4 3 3 3 4 3 3 3 6 11 10 9 10 11 10 10 9 9 9 9 10 11 10 10 9 8 4 1 0 1 1 3 3 2
6 4 3 4 6 5 7 5 2 0 4 4 2 2 3 3 2 2 2 2 2 3 3 2 1 10 10 9 10 9 9 10 11 11 11 10 8 7 2 -1 -2 -2 -2 -2 -2 -2 -2 -1 -0
4 4 6 6 6 7 5 5 2 1 2 2 2 2 2 2 1 1 1 2 2 3 3 2 0 -1 8 10 10 8 8 7 8 8 8 8 5 -1 -2 -2 -2 -3 -3 -3 -2 -2 -1 -1 -0
5 5 8 8 7 6 1 2 1 -2 -2 -1 1 2 2 1 1 1 1 2 3 3 3 2 1 -1 -1 -1 3 4 5 5 5 6 5 1 -2 -2 -2 -2 -3 -3 -3 -2 -2 -1 -0 -0 -0
6 5 4 6 6 3 0 3 -0 -3 -3 -3 -2 -2 -3 -3 -0 1 1 1 3 3 3 2 1 -1 -1 -1 -1 0 1 2 1 -0 -2 -2 -2 -2 -3 -3 -2 -2 -2 -1 -1 -1 -1 -1 -1
5 6 -0 3 0 3 2 0 -4 -3 -3 -3 -3 -4 -3 -2 -3 -3 -0 2 2 2 1 2 2 0 -1 -1 -0 0 0 -0 -1 -1 -1 -2 -2 -2 -2 -2 -1 -1 -1 -2 -2 -2 -2 -2 -1
3 1 2 2 3 3 3 0 -1 -3 -4 -2 -2 -2 -3 -4 -4 -3 -2 -2 2 2 2 2 2 0 0 1 0 -1 -1 -1 -1 -1 -1 -2 -2 -1 -1 -1 -1 -0 -0 -1 -1 -2 -2 -2 -2
4 5 3 2 3 5 2 -0 -4 -3 -1 -1 -1 -2 -2 -2 -3 -3 -3 -2 1 2 2 2 2 2 1 1 2 1 -0 -1 -1 -1 -2 -2 -1 -1 0 0 0 0 0 -0 -0 -1 -1 -1 -0
4 4 3 3 4 2 2 1 -5 -3 -2 -1 -1 -2 -1 -1 -1 -2 -2 -0 -0 -1 2 3 3 3 3 2 2 1 0 -0 -0 1 4 0 -0 0 0 0 0 0 0 0 0 -0 0 0 1

GFSSGP_850_dewp_084.txt.gz
Dewpoint
6 6 8 8 7 7 6 3 2 6 9 5 5 6 12 12 11 11 14 11 12 11 10 11 11 11 12 10 11 5 6 2 5 6 9 12 14 14 14 12 10 6 0 -1 -3 4 6 6 8
7 6 10 7 8 7 4 2 1 3 6 6 6 10 13 12 12 15 15 13 14 10 10 11 11 12 12 9 8 3 2 -0 -5 -5 1 5 7 8 8 7 -2 -0 -2 -5 3 6 6 6 7
7 8 9 7 8 6 3 -0 -1 1 5 8 7 9 13 14 15 15 15 15 14 10 11 12 12 12 10 5 3 2 9 3 -1 -8 -12 -13 -12 -12 -10 -4 -2 -3 -4 -3 2 4 3 4 6
7 8 9 7 8 4 1 1 -1 4 5 5 8 12 13 14 14 14 15 15 11 11 13 13 12 11 8 2 2 2 8 9 3 -4 -8 -8 -10 -9 -4 -4 -4 -4 -3 -2 -0 2 3 4 5
7 9 9 9 8 2 1 -1 1 3 4 3 8 13 13 14 14 15 15 13 9 12 13 13 13 11 8 3 2 3 5 12 7 -2 -6 -6 -7 -5 -4 -4 -4 -4 -3 -2 -1 0 1 2 3
9 8 9 9 7 4 0 -1 1 1 2 7 9 11 12 14 16 16 15 12 10 11 14 13 12 11 8 5 4 4 5 11 12 1 -3 -5 -5 -5 -4 -4 -4 -3 -2 -2 -2 -1 -1 -0 0
9 8 8 6 5 4 2 1 0 0 0 7 10 12 10 10 15 16 15 13 10 13 14 14 12 11 8 6 5 4 6 10 14 7 1 -3 -3 -4 -4 -4 -3 -3 -2 -2 -1 -1 -1 -0 0
8 8 8 5 5 5 3 4 3 1 8 10 10 12 14 9 13 13 15 14 11 13 13 14 12 14 11 6 4 4 6 10 13 12 6 1 -2 -3 -3 -2 -2 -2 -2 -2 -1 -1 -1 -0 0
9 9 9 7 5 4 3 4 4 6 8 9 10 11 9 9 11 9 11 15 15 14 13 13 11 12 9 6 1 4 5 8 12 12 7 3 1 -0 -1 -2 -2 -2 -2 -1 -1 -1 -0 -0 -0
8 8 8 6 6 4 4 3 4 7 11 13 12 10 9 8 9 6 11 14 15 15 13 12 11 10 9 6 1 4 4 7 8 10 8 3 3 2 2 1 1 1 0 -1 -2 -2 -2 -1 1
8 8 7 7 10 8 6 5 4 6 6 11 13 15 12 9 10 10 9 8 14 15 13 13 12 11 10 8 0 4 5 5 7 9 8 6 5 6 5 1 -1 -1 -0 -0 1 1 1 2 2
9 7 6 8 9 8 9 7 5 5 5 8 11 11 14 13 10 8 7 10 12 14 13 12 12 12 11 10 4 1 5 5 5 5 10 9 8 6 4 0 2 1 -0 -0 2 3 3 5 6
7 7 7 8 8 8 7 7 5 5 5 7 9 12 10 9 11 11 10 12 9 12 13 13 12 11 10 12 11 9 3 2 5 8 9 9 8 8 6 5 4 3 1 1 2 4 6 7 8
5 8 7 8 9 8 8 8 6 5 6 8 9 10 13 13 11 11 11 8 6 7 8 13 12 12 12 12 12 12 12 12 10 9 9 9 10 9 7 4 4 4 3 2 3 6 7 9 10
5 7 8 7 7 8 7 8 7 5 6 7 7 9 12 12 13 13 11 8 9 9 8 9 13 13 12 12 12 12 12 12 12 12 12 12 11 10 8 6 5 6 5 5 7 8 9 10 10
5 7 9 8 8 9 6 9 7 6 5 7 7 7 9 12 12 11 12 10 11 12 12 11 10 13 13 12 12 12 12 12 12 12 12 12 11 10 8 8 6 8 9 10 10 10 11 11 11
6 8 7 8 6 8 6 6 6 6 6 4 6 6 5 6 9 12 11 10 10 10 11 12 12 9 13 12 13 12 12 12 12 12 12 11 12 9 9 9 9 10 10 10 11 11 12 12 11
7 7 6 7 8 7 8 8 7 6 6 5 4 4 5 5 5 8 11 11 11 11 11 9 9 7 6 12 13 12 12 11 12 12 11 11 11 12 12 12 12 11 12 12 12 12 13 11 11
5 6 6 6 6 6 7 7 7 6 5 5 5 4 4 5 4 4 5 10 11 11 11 12 11 11 10 12 12 12 12 12 13 13 12 11 12 12 12 11 11 12 12 12 12 12 12 11 10
5 4 6 5 6 6 6 7 5 6 4 5 4 4 4 3 3 4 4 4 9 10 10 11 12 12 12 11 12 11 11 12 11 11 11 12 13 12 12 12 12 13 13 12 12 12 11 11 11
6 6 5 7 7 6 6 7 5 4 3 4 4 4 3 3 3 3 4 4 4 7 9 8 10 11 12 12 11 11 11 11 11 11 12 11 11 11 11 13 12 13 13 11 9 9 11 10 9
6 4 4 6 7 9 7 8 5 4 4 3 3 4 4 3 3 3 3 3 4 3 5 9 9 10 11 11 11 11 10 11 10 10 10 8 10 10 12 13 12 8 5 3 4 4 5 5 4
6 4 4 6 7 6 8 6 2 2 4 4 4 3 3 3 2 3 3 3 3 3 3 3 8 9 9 10 11 10 10 10 9 9 9 9 9 10 10 9 7 3 -1 -2 -2 -2 -2 -2 -1
5 5 5 6 7 8 6 4 3 1 2 2 2 3 3 3 3 3 2 1 3 2 3 2 2 3 9 9 9 9 10 9 9 9 8 8 9 8 6 4 -1 -2 -2 -3 -3 -3 -3 -2 -1
6 5 7 8 8 6 3 6 4 -2 -1 0 1 1 2 3 2 2 2 1 1 2 3 2 2 1 0 6 9 9 9 9 8 7 7 8 8 6 2 -2 -2 -2 -3 -3 -3 -2 -2 -1 -1
6 4 5 7 7 4 2 6 1 -4 -4 -3 -1 -0 -0 -1 0 1 1 1 1 1 3 2 2 1 0 1 6 7 7 7 6 7 8 7 6 1 -1 -2 -2 -3 -2 -2 -2 -2 -2 -2 -2
5 5 0 2 1 3 2 -0 -3 -3 -3 -3 -3 -3 -3 -2 -3 -2 -0 0 1 1 3 3 3 2 1 0 -0 2 5 3 5 4 4 2 -0 -1 -2 -3 -3 -3 -2 -2 -1 -2 -2 -2 -2
3 2 2 2 3 3 3 1 -1 -2 -3 -3 -2 -2 -3 -4 -4 -2 -2 -1 1 3 3 3 3 2 2 1 0 1 2 2 2 0 -1 -1 -2 -2 -2 -2 -1 -1 -1 -0 -0 -1 -1 -1 -1
3 4 3 1 3 3 3 1 -5 -3 -2 -1 -1 -2 -2 -2 -2 -3 -4 -3 -2 2 3 3 3 2 2 1 1 2 2 2 1 0 -0 -0 -1 1 4 2 0 0 -0 -0 0 0 -0 -0 -1
3 4 2 2 2 1 1 0 -4 -3 -2 -2 -1 -2 -1 -1 -2 -2 -3 -3 -3 -3 1 3 3 3 3 2 2 2 2 1 1 0 -0 -1 3 5 3 1 -0 -0 -0 0 0 0 0 0 0

GFSSGP_850_dewp_087.txt.gz
Dewpoint
8 8 7 10 8 6 4 3 3 8 10 7 8 11 12 12 9 10 14 14 12 12 12 12 12 11 12 11 8 10 11 10 14 14 14 15 14 14 14 13 10 5 -2 -6 3 2 3 4 5
9 8 8 9 7 7 5 1 1 5 8 6 6 10 13 13 14 15 15 14 12 12 12 12 11 12 12 10 8 4 8 7 11 14 14 14 14 14 12 10 2 -3 -6 0 3 2 3 4 6
8 8 9 9 8 5 5 3 -2 3 6 8 7 10 13 15 15 15 15 15 13 11 11 11 12 12 10 9 4 1 -3 -3 6 8 10 11 11 10 5 -5 -5 -6 -1 1 1 1 1 1 2
7 7 8 8 8 5 1 2 -1 5 6 9 9 10 13 14 14 15 15 14 12 11 12 11 13 12 10 10 3 5 10 -6 -10 -9 -5 -4 -5 -9 -6 -5 -5 -4 -1 0 -0 1 2 3 3
8 7 9 9 8 4 1 -1 -1 4 5 8 8 9 13 16 14 14 15 15 12 12 12 13 13 11 6 7 4 12 8 -1 -7 -8 -9 -11 -8 -5 -4 -4 -4 -2 -2 1 1 2 3 4 4
8 7 10 10 6 5 2 -0 -0 2 4 6 9 10 13 15 16 16 16 14 13 13 13 13 12 10 4 3 4 11 13 6 -3 -6 -7 -6 -4 -4 -4 -4 -3 -2 -1 -0 1 2 2 3 3
8 9 9 8 5 5 3 0 0 1 3 7 9 11 12 15 15 16 14 13 12 13 13 13 12 9 5 3 4 9 13 11 2 -4 -5 -5 -4 -4 -4 -3 -3 -2 -2 -1 -1 0 1 1 2
7 9 8 6 6 6 1 3 2 0 4 9 9 13 13 8 14 15 13 12 11 13 13 13 12 10 7 6 4 6 12 14 9 3 -2 -3 -4 -4 -3 -3 -2 -2 -2 -1 -0 -0 1 1 1
7 9 9 7 5 4 2 4 4 4 9 11 10 10 11 10 10 14 14 12 12 14 14 14 11 12 9 7 5 5 9 13 12 9 4 -1 -2 -2 -2 -2 -2 -1 -1 -1 -0 0 0 0 1
7 8 7 6 4 3 4 3 5 8 12 13 12 11 9 8 8 10 14 14 13 13 13 14 12 14 11 7 3 5 7 11 12 10 6 3 2 0 -1 -1 -1 -1 -1 -1 -1 -1 -0 0 2
5 7 5 7 9 8 6 5 5 8 8 12 12 13 9 7 4 4 12 8 12 15 14 13 12 11 10 8 3 5 6 8 11 9 6 4 4 4 3 3 2 2 1 2 1 1 0 2 3
6 4 5 7 9 8 8 8 5 5 6 10 10 9 11 12 13 12 9 8 7 11 13 14 13 11 10 9 3 6 5 7 8 9 7 6 5 6 6 5 1 -0 -1 0 2 4 4 5 6
6 3 7 8 8 8 8 8 7 5 8 13 12 12 11 12 12 11 7 6 5 6 8 13 12 13 10 9 5 5 7 6 7 7 7 8 9 8 6 3 4 4 2 2 4 4 5 6 8
5 5 6 7 8 8 8 8 6 5 9 11 13 10 10 10 10 12 10 8 7 9 8 11 10 11 11 9 9 3 2 3 5 4 6 7 8 8 7 7 6 5 4 3 3 4 7 8 9
3 6 6 8 7 8 7 8 7 6 9 11 11 12 12 11 11 12 10 9 10 9 7 7 10 11 11 11 10 11 11 10 9 9 9 9 8 9 9 8 7 6 6 4 5 7 9 9 10
5 6 6 8 8 7 7 9 7 6 6 9 10 11 11 11 10 9 9 10 10 9 7 7 8 10 12 11 11 12 12 12 12 11 12 12 11 11 10 9 8 7 8 8 9 10 10 10 11
5 7 7 8 6 7 7 9 6 6 6 5 7 8 10 9 10 10 10 9 8 8 8 9 7 6 9 8 12 12 12 12 12 12 11 12 11 12 11 9 9 8 10 10 11 11 11 11 11
6 7 7 7 8 7 6 7 7 6 6 5 5 5 5 6 8 9 9 11 11 11 11 10 9 9 9 10 12 9 13 12 12 11 11 11 11 11 10 9 10 10 11 11 11 12 12 12 11
3 6 7 7 7 7 6 7 6 6 6 5 5 4 4 5 4 6 10 12 11 11 11 11 11 11 12 12 11 8 11 13 13 12 12 12 11 11 11 11 11 11 11 11 12 11 11 10 10
4 5 6 6 6 6 7 6 6 6 6 5 4 5 4 5 4 4 5 10 11 11 11 11 11 10 10 9 8 10 8 8 12 11 12 11 11 11 11 12 11 11 12 12 12 11 11 11 10
5 6 6 7 7 6 7 7 6 6 6 6 5 4 4 4 3 3 4 4 7 11 10 10 10 11 11 11 11 12 11 12 12 12 10 11 10 11 10 10 10 10 12 12 12 12 9 9 8
6 4 5 7 7 9 7 9 6 5 5 4 3 4 4 4 3 3 3 3 4 4 8 10 9 9 10 11 12 11 12 12 12 11 11 11 11 10 9 8 8 8 10 13 10 6 5 4 3
7 5 5 6 7 8 8 8 3 3 6 4 3 2 4 4 4 3 3 2 2 4 4 4 9 9 9 10 10 10 11 11 11 10 11 9 8 10 9 8 9 10 10 9 1 -2 -2 -2 -2
5 6 6 7 8 8 7 6 3 2 3 2 1 2 1 2 3 3 2 3 3 3 3 3 4 8 9 9 9 10 10 9 10 10 9 8 8 9 8 6 7 8 4 -2 -2 -3 -3 -3 -2
6 5 7 8 8 7 5 6 4 1 -2 -1 -0 -0 0 1 2 3 3 3 2 1 2 2 3 2 5 6 8 8 9 9 9 9 10 9 7 6 6 6 8 2 -2 -2 -3 -4 -3 -3 -2
6 3 5 8 8 4 5 6 3 -4 -3 -2 -1 -0 1 1 2 2 2 2 2 1 1 2 2 3 2 2 3 5 7 8 9 9 8 8 7 8 8 8 1 -2 -2 -3 -3 -2 -2 -2 -2
5 3 1 2 1 3 3 -0 -3 -3 -4 -3 -3 -3 -3 -2 -2 -2 -0 1 1 1 1 2 3 2 2 2 1 1 3 7 8 8 6 6 8 8 7 -0 -2 -3 -2 -2 -2 -1 -1 -1 -1
4 2 3 3 3 2 2 2 -1 -1 -2 -3 -2 -2 -3 -4 -3 -3 -2 -0 1 2 1 2 3 2 2 2 2 1 0 1 6 7 8 6 7 3 -0 -1 1 5 5 2 -0 -1 -1 -0 -1
3 3 2 1 2 2 3 1 -4 -4 -3 -2 -2 -2 -1 -2 -2 -3 -4 -3 -2 1 3 3 3 3 3 3 2 2 2 2 3 4 4 3 1 1 3 4 4 4 3 0 -1 -1 -1 -0 -0
3 3 1 2 2 1 0 -0 -4 -5 -2 -2 -1 -1 -1 -1 -2 -2 -2 -2 -2 -3 -3 1 3 3 3 3 2 2 2 3 3 3 2 2 1 2 1 3 4 3 0 -0 -0 -0 0 0 0

GFSSGP_850_dewp_090.txt.gz
Dewpoint
9 9 9 8 9 7 6 6 3 10 9 7 7 11 12 12 9 9 14 15 13 13 13 13 11 10 12 10 4 6 14 13 14 12 11 11 12 14 14 12 9 0 -7 0 -1 0 1 3 1
10 9 8 9 9 8 6 1 4 8 8 8 8 9 13 14 14 14 15 15 13 13 13 13 11 11 12 8 10 7 13 13 15 14 14 14 14 14 12 8 1 -6 -2 0 0 1 2 3 1
8 9 8 10 10 8 4 1 -0 5 8 9 9 11 11 15 14 14 14 15 14 12 13 12 10 12 12 8 9 10 10 14 14 14 15 14 14 12 9 0 -6 -4 1 1 1 1 1 1 2
8 8 7 10 9 6 2 2 2 6 8 8 8 10 12 14 14 14 15 14 13 13 12 11 12 13 9 6 4 0 6 10 13 14 14 12 10 5 -5 -6 -4 -1 -0 0 1 1 1 2 3
8 7 8 10 9 6 2 0 1 5 8 9 11 10 12 15 14 15 14 14 13 13 11 12 13 11 9 5 3 9 -5 2 6 8 9 7 -2 -5 -5 -5 -2 -1 -0 1 2 3 3 3 4
7 7 9 10 9 5 2 0 0 3 6 9 10 10 11 13 15 15 15 14 12 12 11 14 13 10 10 5 11 8 -0 -8 -10 -10 -10 -9 -5 -4 -4 -3 -2 -0 1 1 2 3 4 4 4
7 8 7 7 8 7 4 1 -1 2 5 9 9 11 11 12 14 15 15 14 12 12 13 14 12 10 6 5 12 11 7 -1 -5 -7 -6 4 -3 -3 -3 -2 -1 -0 1 3 3 3 3 3 2
7 7 7 6 7 7 3 2 1 1 2 3 6 12 11 14 14 15 15 13 12 13 13 13 12 8 4 4 11 12 12 6 -2 -4 -3 -2 -2 -2 -3 -2 -1 -0 0 1 1 3 2 2 2
6 7 7 7 7 6 2 3 3 1 4 7 9 8 7 13 14 15 14 13 13 13 13 13 12 9 7 4 5 12 13 10 5 -1 -3 -3 -2 -2 -2 -2 -1 -0 -0 0 1 1 1 1 1
5 5 5 4 5 4 4 4 4 8 11 11 11 10 10 7 12 10 14 13 12 14 14 13 12 11 8 7 5 8 13 13 8 7 0 -2 -2 -2 -2 -1 -1 -0 -0 0 0 0 1 1 2
4 5 3 4 4 7 6 5 5 8 11 10 12 11 10 9 11 10 8 11 13 14 14 14 12 14 11 8 5 5 9 12 12 9 4 1 -0 -1 -1 -1 -0 -0 -1 -1 -1 -1 -1 0 3
4 3 4 4 4 8 8 7 6 8 7 9 10 9 9 10 10 8 6 7 13 14 11 13 13 13 13 11 4 4 6 10 12 10 6 4 3 3 3 2 2 3 2 2 2 3 4 4 5
4 3 4 4 4 7 8 8 6 5 10 10 12 10 9 7 7 7 5 7 12 13 11 10 12 12 12 12 8 6 5 7 9 10 10 5 5 5 6 4 2 2 1 2 3 5 5 6 7
3 3 3 5 4 5 8 8 7 6 11 14 11 11 10 12 13 11 10 8 7 10 7 8 8 11 12 12 10 5 7 6 7 9 10 8 9 10 8 5 4 4 4 3 4 5 6 8 9
2 5 4 4 5 8 7 8 8 7 9 13 12 11 12 13 12 13 12 10 10 7 6 4 6 7 10 11 11 8 6 7 6 7 5 8 9 9 9 8 7 6 5 5 4 5 8 9 9
4 5 7 5 3 5 7 10 7 7 7 9 12 9 12 12 11 12 11 8 7 7 6 7 6 7 7 10 11 12 10 8 6 6 8 9 10 10 10 10 9 8 8 7 6 9 10 10 10
5 6 6 6 4 7 7 9 7 6 6 5 7 9 11 11 11 10 10 8 9 9 8 6 7 7 9 9 11 11 11 11 11 11 12 12 12 12 12 10 10 9 8 10 10 10 11 12 12
6 6 6 7 7 6 7 6 6 6 6 6 5 5 8 9 9 9 9 9 8 8 9 7 8 8 9 8 7 9 7 10 10 10 11 12 11 11 12 11 10 10 9 10 11 12 12 11 11
5 5 6 6 6 6 6 6 6 6 6 6 4 5 5 6 9 9 9 9 9 8 8 7 7 8 9 8 9 7 7 8 10 11 12 12 11 12 11 11 11 11 12 11 11 11 10 10 11
5 6 7 7 6 6 6 6 5 6 6 6 6 4 4 5 5 7 10 10 10 10 9 9 8 8 9 10 10 8 10 10 10 8 10 11 11 12 12 12 11 11 11 11 11 11 11 10 10
5 5 6 6 6 6 6 7 6 6 7 6 5 5 4 4 4 4 5 8 10 10 11 11 11 11 11 10 12 11 10 9 9 9 7 11 11 11 10 10 11 10 10 11 12 11 10 11 10
6 5 5 7 6 8 6 8 5 5 6 6 4 4 3 4 4 3 4 4 4 7 9 10 11 11 11 11 10 10 10 9 9 9 10 12 11 10 10 11 9 9 9 9 9 10 12 10 4
6 5 6 6 7 7 7 8 5 5 6 5 3 3 2 2 4 4 3 3 3 3 3 6 10 10 10 10 10 11 12 11 10 11 11 11 11 10 10 10 10 9 9 8 8 8 5 -1 -2
5 6 6 7 7 7 7 5 4 4 4 3 2 2 1 1 4 4 4 3 2 1 2 4 3 4 9 9 9 10 10 10 10 10 10 11 11 10 9 10 9 7 8 8 7 -0 -2 -3 -3
5 7 8 8 8 7 5 5 4 1 -0 -0 1 -1 -1 0 2 4 3 3 2 2 2 3 2 3 3 8 7 8 9 9 10 9 10 10 10 10 10 8 6 6 8 3 -1 -2 -3 -3 -3
6 4 7 7 7 6 5 7 2 -3 -3 -2 -1 0 1 1 1 2 2 3 2 2 2 2 1 2 2 2 5 7 8 8 9 9 9 10 10 10 9 8 7 8 2 -2 -1 1 -1 -2 -2
5 4 1 2 1 4 5 1 -4 -3 -3 -3 -3 -3 -2 -2 -2 -1 -0 1 2 2 1 1 1 1 2 3 2 3 2 3 5 7 8 8 9 7 6 8 8 1 -1 4 5 3 1 -0 -1
4 1 3 3 5 3 2 1 -1 -2 -2 -2 -2 -2 -3 -3 -3 -2 -2 0 1 2 1 1 1 2 3 2 2 2 2 2 1 3 8 8 7 7 9 7 1 -1 3 5 4 4 3 -0 -0
3 3 2 2 2 3 3 -0 -4 -3 -3 -1 -1 -1 -1 -1 -2 -2 -2 -3 -3 -2 1 3 3 3 2 2 2 2 2 2 1 1 5 9 8 8 4 0 -1 4 4 3 4 3 -0 -0 -0
3 3 1 2 2 0 0 0 -3 -3 -3 -2 -1 -1 -0 -1 -1 -1 -1 -2 -2 -3 -3 -3 1 3 3 3 3 2 2 2 2 3 4 5 5 3 1 2 3 3 3 3 1 -0 -1 -0 -0

GFSSGP_850_dewp_093.txt.gz
Dewpoint
8 7 9 8 9 9 9 8 5 9 9 9 7 11 11 12 8 8 14 15 13 12 14 14 11 12 10 7 4 12 13 11 8 8 8 11 12 14 13 11 6 -6 -1 -2 1 4 3 -1 -1
8 8 8 8 9 9 8 5 5 8 8 8 8 8 12 13 14 14 14 15 14 12 14 13 11 13 11 4 6 12 14 12 10 11 11 12 14 14 12 8 -3 -4 -1 -1 1 1 1 1 -0
8 8 8 10 9 8 6 2 2 4 8 10 10 9 11 13 14 14 14 15 14 13 13 13 11 12 11 6 3 12 13 15 13 12 12 14 14 13 8 0 -6 -0 -1 1 2 2 2 2 2
8 9 8 8 8 7 4 1 -1 5 9 9 9 11 11 12 14 14 14 14 13 13 13 12 11 12 10 9 8 13 13 15 15 15 15 14 13 10 4 -5 -2 -1 -0 2 1 2 2 3 3
8 8 8 8 8 7 4 2 1 4 8 10 10 10 11 12 14 14 14 14 13 13 13 11 13 12 9 7 4 10 13 14 14 14 14 12 8 -2 -5 -4 -0 1 1 2 3 4 4 4 4
7 7 9 8 7 5 5 3 2 2 8 10 9 9 9 9 13 15 14 14 13 13 12 12 13 11 8 3 2 1 9 11 13 13 12 10 -0 -3 -5 0 2 2 2 3 4 5 5 4 5
6 7 6 5 5 5 5 4 3 1 7 10 9 10 10 9 9 15 13 14 13 12 11 14 13 10 7 7 9 1 -4 -0 4 5 2 -1 -2 -4 -4 -0 2 2 3 3 4 4 4 4 3
5 5 5 5 5 6 4 4 3 0 2 8 9 11 12 9 9 12 15 14 12 12 13 13 12 9 7 13 9 9 2 -5 -7 -9 8 -3 -3 -3 -2 -1 0 2 3 4 3 3 2 1 1
5 5 5 4 6 5 4 5 4 3 3 7 9 8 8 8 9 12 15 14 13 13 14 13 11 6 5 12 12 12 9 0 -3 -4 -2 -3 -3 -3 -2 -1 -0 0 1 2 2 1 1 1 1
4 5 3 1 3 4 4 4 4 5 5 8 9 10 8 10 10 12 11 14 13 14 14 13 11 6 4 7 12 12 12 8 0 -3 -2 -1 -2 -2 -2 -1 -1 -0 -0 0 1 1 1 1 1
2 4 1 0 1 4 5 5 4 5 7 6 9 10 9 8 10 11 8 11 13 13 13 13 11 9 8 5 8 12 12 10 6 3 -2 -2 -2 -2 -2 -2 -1 -1 -0 0 0 1 0 0 2
3 1 1 2 2 4 5 7 6 7 5 7 10 7 9 9 9 9 9 9 12 13 12 13 11 12 10 9 7 7 12 13 11 8 6 1 -1 -1 -1 -1 -0 0 0 0 1 1 1 2 4
1 -0 1 2 3 4 5 6 7 7 4 5 10 10 9 8 8 7 7 7 9 12 11 12 11 13 12 9 5 5 7 11 12 11 7 5 4 3 3 3 3 2 2 1 1 3 4 5 6
2 1 2 3 2 4 6 5 6 7 6 6 8 10 9 8 7 8 9 7 7 8 12 10 11 10 10 10 8 5 6 7 11 12 10 7 6 6 7 6 4 3 3 2 4 5 5 6 8
0 3 4 3 3 4 5 5 4 7 7 7 7 11 10 9 6 5 6 7 7 7 10 9 8 8 9 10 10 6 6 6 6 9 10 11 9 10 10 8 7 6 6 5 4 4 6 8 9
4 4 5 4 4 4 3 5 6 6 7 8 8 9 11 10 10 9 6 7 9 9 8 8 7 7 5 7 10 10 4 5 8 7 9 8 9 8 9 9 8 8 7 6 5 6 7 9 10
5 5 5 6 4 5 4 5 5 6 6 6 7 10 9 13 12 12 6 6 7 10 7 7 6 5 5 6 7 9 10 9 5 5 7 8 10 11 11 11 10 10 9 8 8 8 10 11 12
5 4 4 5 6 4 5 4 3 6 6 7 5 7 12 11 10 9 8 8 9 9 8 8 6 4 5 6 7 9 9 9 10 10 10 11 12 12 12 11 11 11 10 9 10 11 11 11 10
4 5 5 6 6 5 5 5 5 5 6 6 6 6 9 11 11 12 11 11 10 8 9 7 8 7 5 6 9 7 7 7 7 8 11 11 11 12 12 12 12 11 10 10 11 11 10 11 9
5 5 6 6 5 4 5 5 5 5 6 6 6 5 6 10 10 8 9 11 11 10 9 9 8 7 7 7 9 9 6 7 6 7 10 11 11 11 12 12 11 11 11 12 11 11 10 10 10
5 5 6 6 6 4 5 6 6 6 6 6 6 5 5 5 8 9 9 10 8 9 8 8 8 7 7 8 8 8 5 7 7 9 10 10 10 11 11 11 11 12 12 11 11 11 12 12 11
6 5 4 6 6 7 5 7 6 6 6 6 6 6 4 4 4 5 8 8 9 9 8 8 9 8 8 8 9 9 10 10 9 10 10 10 10 10 11 10 11 12 11 10 9 9 9 9 9
6 5 5 6 7 7 7 7 6 5 6 5 6 6 4 3 4 4 4 4 5 7 8 9 10 11 10 11 11 12 12 10 8 11 10 10 10 11 11 11 11 11 10 9 9 8 7 8 -1
5 5 6 6 6 7 7 6 3 5 4 4 6 5 5 3 3 4 3 3 3 3 3 3 5 8 10 10 10 10 10 10 8 10 10 10 9 11 10 11 10 11 10 8 7 6 7 1 -3
5 7 8 7 6 7 5 5 3 1 -2 -1 4 2 4 4 2 3 4 3 3 2 2 2 3 3 3 7 10 9 10 10 10 10 10 10 9 10 11 10 10 10 8 7 7 5 -2 -0 3
6 5 6 7 7 8 5 7 3 -3 -2 -1 -1 0 0 0 2 2 3 3 3 2 3 3 3 3 2 3 4 8 8 8 8 8 9 9 10 10 10 10 8 8 8 7 4 1 4 3 3
6 4 1 2 2 6 4 1 -4 -3 -2 -2 -2 -2 -1 -1 0 1 1 1 2 2 2 2 2 2 2 2 3 2 5 6 6 6 8 9 9 10 10 9 8 8 6 1 2 4 3 3 3
3 1 3 3 4 4 2 1 -0 -2 -1 -2 -1 -1 -1 -1 -2 -2 -1 1 2 2 2 1 1 1 2 2 3 3 3 2 2 2 1 6 9 9 9 8 9 7 1 1 3 3 3 3 3
3 3 2 2 2 3 3 0 -4 -2 -3 -0 -0 0 -1 -2 -2 -1 -2 -2 -3 -2 0 2 2 2 3 2 2 2 2 2 2 1 1 2 9 9 9 10 8 3 0 3 4 3 3 3 1
3 3 -0 3 3 0 1 1 -3 -3 -3 -1 -0 1 0 -0 -1 -1 -1 -1 -1 -2 -2 -3 -3 1 3 3 3 3 3 2 2 2 2 3 8 9 9 7 3 0 3 4 3 2 1 0 -1

GFSSGP_850_dewp_096.txt.gz
Dewpoint
9 10 9 9 6 6 5 4 3 3 6 5 8 9 10 10 8 11 15 13 15 16 15 14 12 9 9 6 3 11 12 8 7 9 7 11 13 14 12 11 -1 -6 1 10 12 13 -3 -2 -4
10 10 9 8 7 5 4 2 4 2 3 6 8 9 9 10 14 14 14 14 16 16 15 14 11 10 9 4 8 13 12 7 9 8 9 12 13 13 12 6 -6 1 11 11 3 -0 -0 -1 -2
9 10 8 6 7 6 2 1 2 1 2 7 8 10 10 11 13 14 14 14 15 16 15 15 12 11 10 3 12 14 12 9 9 9 12 13 14 13 10 -3 3 5 9 3 1 2 1 1 0
7 8 8 8 4 2 2 -1 -0 0 3 6 7 8 9 9 13 15 14 14 15 15 15 12 12 12 9 3 12 14 13 11 12 12 13 14 14 11 3 -4 8 1 9 5 3 3 3 3 2
7 6 5 4 3 -0 -0 0 -0 -0 1 7 7 6 8 9 10 14 14 15 15 15 15 11 11 12 8 5 12 14 14 14 13 13 15 14 13 9 -4 -0 2 1 7 2 3 3 4 4 4
5 4 4 3 -0 -2 -1 2 1 1 1 2 7 6 8 7 8 11 15 15 15 15 14 13 12 12 8 5 10 13 15 15 15 15 14 10 8 -0 -5 1 1 2 3 2 4 4 4 4 4
5 4 3 -0 -2 -3 -1 0 2 2 1 2 6 7 8 6 4 7 12 14 15 15 14 13 13 11 8 1 9 13 14 14 14 14 13 9 1 -4 -1 2 2 2 3 3 4 4 4 3 3
3 4 4 1 -0 -2 -5 -1 1 2 2 1 6 6 7 5 4 5 7 15 14 14 14 13 14 11 7 8 0 6 10 12 12 12 10 -1 -4 -4 0 1 2 2 2 3 3 3 3 3 2
2 4 3 1 -1 -2 -4 -3 0 3 3 1 3 7 8 7 7 5 7 10 14 14 14 14 14 13 12 13 8 1 -3 -0 3 5 -1 -1 -1 -3 -1 1 2 2 3 3 3 2 2 1 2
1 1 -1 -4 -3 -2 -2 -2 -1 1 3 3 3 8 11 9 8 10 9 9 9 13 14 14 14 12 13 13 11 8 1 -2 7 8 2 10 3 4 5 -0 1 2 2 1 1 1 1 1 1
-1 2 -4 -3 -3 -2 -1 -0 0 3 3 3 2 5 10 13 12 11 11 10 10 13 14 13 13 12 12 13 12 11 11 10 10 11 11 11 7 -1 0 1 1 1 1 1 1 1 1 1 2
-0 -4 -3 -4 -3 -1 -0 1 1 2 1 2 3 6 11 12 11 10 10 9 12 13 14 12 11 11 11 13 13 13 11 12 11 6 3 0 2 0 3 6 4 2 1 2 1 2 1 -0 2
-2 -3 -5 -4 -4 -2 1 2 3 4 5 4 3 5 9 12 10 9 7 8 10 10 13 12 10 7 9 9 13 12 12 11 9 7 1 -1 -1 -1 -1 -0 0 0 1 1 2 2 3 3 5
-4 -4 -4 -4 -4 -1 0 2 4 4 7 7 6 5 7 10 10 8 7 5 8 9 12 12 11 8 8 6 5 8 12 11 11 10 8 5 4 2 2 3 4 3 3 2 3 3 5 6 8
-1 -1 -1 -1 -2 1 0 4 4 3 5 6 6 5 6 10 8 6 5 6 7 10 9 11 11 11 10 7 3 3 5 9 11 12 10 8 7 7 6 8 6 5 5 4 4 5 5 6 7
1 3 4 -0 -1 0 3 4 -1 5 6 6 7 6 7 10 8 5 4 6 8 9 9 10 10 10 11 10 8 3 5 5 6 10 10 10 9 9 10 11 9 8 7 6 5 4 5 9 10
0 6 6 4 1 3 4 3 0 3 3 5 7 7 8 9 10 8 6 8 10 9 10 7 9 9 9 9 10 9 5 4 7 6 6 8 8 9 9 9 10 9 8 7 7 5 8 10 11
5 4 2 3 4 3 5 6 3 2 3 5 7 8 8 9 10 11 9 10 10 9 8 8 10 9 8 10 10 9 8 9 6 5 5 5 5 8 10 11 11 11 10 9 8 9 10 12 12
3 4 4 6 4 4 4 4 3 2 3 4 7 9 9 10 11 11 11 10 9 8 9 9 8 8 8 10 10 10 9 8 9 9 9 8 9 11 11 12 12 12 11 10 9 11 12 11 12
4 3 5 6 5 4 5 5 3 3 2 3 7 9 10 9 11 11 12 10 9 10 9 10 8 7 8 9 8 9 9 8 7 8 8 8 11 11 12 12 12 12 12 11 11 12 12 11 10
4 1 5 6 5 4 5 7 5 4 4 4 6 6 9 10 9 8 11 11 10 11 10 9 8 8 8 7 8 9 8 9 8 9 8 9 11 11 11 11 12 12 12 12 11 11 10 11 10
3 1 3 5 5 6 3 8 7 5 7 6 6 6 6 9 8 7 6 9 9 8 8 8 8 8 9 7 7 9 9 9 9 9 10 10 9 10 11 10 12 11 12 12 12 11 10 10 8
4 3 4 4 5 4 5 8 7 6 7 6 6 6 5 5 7 9 9 10 10 10 9 9 9 8 8 8 7 9 10 9 9 7 7 9 9 11 10 11 11 11 11 11 11 10 9 8 6
5 4 4 5 5 6 7 8 7 4 2 5 5 6 6 3 5 5 6 9 10 9 9 10 10 9 9 9 9 9 10 9 7 8 8 9 10 9 10 11 10 11 11 8 8 8 8 8 8
5 5 7 6 8 7 7 8 4 -1 -1 0 4 4 5 5 3 5 4 4 4 3 3 3 4 5 8 10 10 10 11 11 11 10 11 9 10 10 9 9 8 8 8 8 10 9 7 7 7
5 5 6 5 6 7 6 7 3 -1 -2 -1 4 1 3 4 4 4 3 4 3 3 3 3 3 3 3 3 4 9 9 10 10 10 10 10 10 10 10 10 11 9 10 9 9 7 7 0 2
5 4 0 4 3 5 4 1 1 -0 -0 -0 0 1 1 2 3 5 2 2 2 3 3 2 2 3 3 3 3 3 7 7 7 8 8 8 9 10 11 11 10 10 9 8 8 6 2 4 3
4 1 4 4 5 6 2 2 4 1 0 0 -0 -0 0 1 1 1 2 2 2 3 2 2 2 2 2 2 2 3 5 5 4 3 3 5 8 9 10 11 11 10 9 9 5 1 4 3 2
3 2 1 1 2 2 3 2 -3 -1 -1 -0 -0 0 1 1 1 0 -1 -2 -1 -0 1 2 3 3 3 3 3 4 4 3 2 2 2 2 5 9 10 11 9 9 8 5 0 4 4 3 3
3 2 -0 3 2 1 1 1 -2 -3 -1 -0 1 1 1 0 -1 -2 -2 -2 -2 -2 -2 -2 -2 -1 3 3 3 3 3 3 2 2 2 2 3 8 10 10 9 9 6 1 3 4 3 2 0

GFSSGP_850_dewp_099.txt.gz
Dewpoint
5 9 8 8 7 5 5 3 -1 -1 -1 1 4 6 6 7 7 11 14 14 14 15 15 15 15 11 9 8 5 4 8 0 5 8 11 9 13 14 12 8 10 10 7 12 3 -4 -4 -4 -3
7 8 8 6 7 6 2 -1 0 -2 -0 1 7 7 8 8 11 13 14 13 14 14 16 15 14 9 8 7 2 11 13 6 7 9 9 10 13 14 12 5 -0 3 12 12 3 -2 -3 -3 -3
7 7 6 4 6 7 2 -2 -2 -3 -1 0 4 7 8 8 12 13 15 14 14 15 15 15 13 9 8 5 6 12 12 8 9 10 9 12 14 13 11 -4 2 12 13 2 -1 -1 -1 -0 -0
5 5 5 5 2 0 0 -2 -4 -3 -1 -1 4 6 9 10 11 14 15 15 14 15 15 15 11 10 9 3 11 13 10 8 11 9 11 13 14 13 6 -0 12 12 9 1 1 1 0 1 1
5 4 4 1 1 -0 -3 -3 -3 -3 -1 -2 0 5 6 9 10 12 14 13 15 15 15 15 12 11 9 4 13 13 10 9 10 11 13 14 14 10 8 9 10 12 12 2 2 2 2 3 3
3 1 3 1 -1 -4 -4 -5 -4 -3 -3 -3 -1 3 4 6 11 11 8 12 15 15 15 15 12 12 8 5 13 14 11 11 12 13 14 14 13 5 -0 9 11 13 6 3 3 4 3 4 3
2 2 1 -2 -3 -5 -6 -6 -5 -3 -3 -2 -2 1 3 6 9 7 6 10 15 15 15 15 11 12 9 5 13 14 13 13 13 14 15 14 12 1 8 9 12 13 3 4 4 4 4 4 3
1 1 1 -0 -1 -3 -7 -8 -7 -4 -3 -2 -2 -0 4 6 5 8 6 9 15 15 14 14 13 13 11 8 12 14 14 14 14 14 14 11 6 -1 6 9 12 12 5 5 5 4 3 2 2
-0 2 2 -1 -1 -3 -6 -6 -8 -6 -4 -3 -2 -1 3 7 9 8 9 6 7 9 11 14 14 14 12 11 11 13 14 15 14 14 11 4 -2 1 7 9 9 7 5 4 4 3 3 2 1
-0 1 -0 -5 -5 -5 -6 -6 -7 -6 -5 -2 -1 0 2 10 11 9 7 7 6 7 8 9 14 13 11 12 5 7 11 14 14 13 10 9 7 10 11 4 4 3 4 4 4 3 2 2 5
-2 1 -4 -6 -6 -6 -6 -5 -6 -4 -4 -3 -2 0 4 10 11 10 8 8 8 7 8 8 14 12 11 13 9 9 7 9 11 12 12 11 11 10 12 3 4 4 5 5 3 2 1 7 8
-3 -4 -4 -5 -6 -7 -4 -5 -3 -2 -3 -2 -3 -1 4 7 10 11 8 8 9 8 7 7 14 12 11 12 11 10 9 9 11 11 11 11 11 11 11 5 3 3 2 9 7 9 9 6 7
-3 -4 -5 -5 -6 -5 -6 -4 -1 -3 -2 1 -0 1 5 7 10 11 9 8 6 6 9 12 13 11 12 12 12 11 10 9 10 11 11 11 11 10 10 10 10 9 8 9 8 8 8 6 9
-1 -2 -4 -4 -5 -5 -5 -5 -4 -2 -1 1 4 4 5 7 8 11 11 8 7 8 11 10 12 11 11 12 13 13 11 11 11 10 10 10 10 10 9 10 9 9 7 8 9 9 10 10 10
0 0 -2 -3 -4 -4 -6 -4 -3 -3 -1 1 3 4 6 5 8 10 9 6 5 7 8 9 12 9 11 12 13 13 12 12 12 12 11 11 9 9 5 10 7 6 4 6 7 10 10 10 10
0 -1 1 -3 -4 -3 -4 1 -4 -4 -1 0 3 5 5 4 8 9 9 8 7 7 6 8 11 8 11 12 8 11 12 13 12 12 12 10 5 4 3 4 6 5 4 5 9 10 10 9 10
-1 2 2 3 -1 -2 -1 2 -1 -3 2 2 3 4 5 5 6 8 11 9 8 8 8 8 11 9 9 12 11 11 10 11 11 12 12 12 8 6 7 8 10 8 8 7 10 10 9 9 10
1 3 2 7 1 -1 0 2 1 3 2 2 4 5 4 5 7 8 9 10 10 8 9 7 9 9 9 12 12 12 11 10 7 6 8 12 11 11 10 10 11 12 11 10 11 10 9 10 10
0 2 3 5 4 0 2 2 0 -1 1 2 4 7 5 5 8 8 10 11 11 10 9 8 10 10 10 10 12 12 12 9 7 8 7 7 9 11 11 10 11 12 12 12 11 10 10 11 11
2 2 3 4 4 2 2 2 0 0 0 1 3 4 7 8 9 10 9 11 11 9 9 7 8 7 9 9 11 10 12 12 11 9 9 8 9 9 11 11 12 13 12 12 12 11 11 11 11
3 3 3 6 6 4 4 6 5 3 3 2 4 3 8 8 10 9 10 12 11 10 9 9 9 9 10 10 10 10 11 11 13 12 11 10 11 12 11 12 12 12 12 12 12 11 11 11 11
6 -0 2 5 7 8 4 8 6 6 5 4 4 6 10 10 9 8 10 11 11 10 8 9 9 9 9 10 10 9 9 10 9 10 11 10 10 10 11 11 10 11 11 12 12 11 12 10 10
4 0 4 3 4 7 6 6 8 6 7 6 7 8 10 9 9 8 6 9 9 10 10 9 10 10 10 10 10 9 9 10 10 10 9 9 10 10 10 10 10 10 11 11 11 10 10 10 9
4 3 3 4 6 9 8 8 8 7 5 8 6 6 8 9 9 9 8 9 8 9 9 8 9 9 10 10 10 9 9 8 10 10 11 8 8 8 8 9 7 7 11 11 10 7 8 9 10
5 3 8 9 8 9 8 8 7 4 3 6 7 6 5 6 7 8 9 10 10 9 9 9 9 10 10 9 10 10 10 9 9 8 9 9 9 9 9 9 7 8 9 10 8 8 8 10 9
6 7 9 6 8 9 7 8 7 3 3 4 4 5 6 7 6 4 5 5 5 5 4 4 4 5 5 7 10 10 10 10 10 10 10 10 10 10 9 10 9 9 9 9 8 9 10 9 7
4 5 1 4 2 4 7 7 5 4 3 3 2 3 3 4 5 6 4 3 4 3 3 3 3 3 3 3 3 3 6 9 10 10 10 10 9 9 9 10 11 11 10 10 10 10 10 7 6
6 1 6 5 6 5 7 7 7 7 4 4 4 2 1 2 3 5 5 4 4 3 3 3 2 2 3 3 3 3 3 6 8 9 9 8 8 7 8 9 11 10 11 10 11 10 8 8 1
4 2 0 0 2 2 4 7 -1 1 3 1 1 1 1 1 1 2 2 2 3 2 3 3 3 3 3 3 4 5 6 6 6 5 4 3 4 4 7 8 10 11 11 11 10 8 9 2 4
3 1 -0 3 2 1 2 4 -3 -1 -1 -0 1 0 -0 -0 -1 -1 -1 -1 -1 -1 -1 -1 -1 -0 2 3 3 3 3 3 3 3 3 2 2 3 6 9 11 11 11 10 9 8 3 3 4

GFSSGP_850_dewp_102.txt.gz
Dewpoint
-0 7 7 7 9 8 8 6 2 2 0 -4 -1 4 7 6 12 15 14 14 16 15 14 14 14 12 10 8 6 5 3 7 8 11 11 10 13 13 10 12 11 10 12 5 1 -4 -1 1 1
7 7 7 6 8 8 5 2 2 0 -2 -3 -0 6 8 8 11 14 14 12 14 15 14 14 14 13 11 8 6 1 -0 8 8 10 10 10 13 13 10 12 11 9 11 -0 -5 -4 -4 -3 -3
-5 7 7 7 7 8 5 1 -1 -3 -3 -3 1 6 7 7 11 14 15 13 15 15 14 14 14 12 9 8 4 5 9 9 8 9 9 10 13 14 11 5 6 10 10 -3 -3 -3 -3 -2 -1
5 4 5 6 5 3 3 1 -0 -2 -4 -3 -1 7 8 8 12 14 12 14 14 14 14 14 14 10 8 7 3 10 12 8 9 10 10 12 13 12 9 -2 7 12 3 -1 -1 -1 -0 0 1
5 4 5 5 3 1 -1 -1 -1 -2 -3 -3 -2 4 7 7 11 12 13 15 13 15 14 15 14 10 9 7 6 12 11 7 10 11 10 13 14 12 1 9 13 7 1 0 1 0 1 1 1
4 2 5 5 2 -2 -3 -3 -3 -4 -4 -4 -2 -2 2 5 5 9 12 14 15 15 14 15 15 11 11 7 10 13 10 8 11 9 11 14 14 11 2 12 8 12 4 2 2 2 3 3 3
3 4 4 0 -1 -3 -4 -6 -5 -5 -6 -5 -4 -2 -3 5 6 6 9 13 14 14 15 14 15 12 11 5 11 13 10 9 10 12 14 14 13 10 11 11 13 12 3 3 3 3 3 3 3
-0 2 3 2 1 -0 -5 -6 -7 -7 -6 -6 -5 -2 -2 0 8 7 7 8 12 13 14 15 15 12 11 5 10 14 11 10 11 14 14 14 13 7 12 12 13 13 6 4 4 4 3 3 2
-1 3 3 1 -1 -2 -5 -4 -5 -6 -7 -8 -6 -4 -2 3 7 6 9 8 9 12 14 13 14 14 13 7 8 14 13 12 13 14 15 14 12 12 13 13 13 13 9 5 4 4 3 2 1
0 2 1 -3 -5 -5 -6 -6 -6 -6 -7 -7 -7 -5 -3 1 5 7 9 9 7 8 11 13 10 10 13 11 6 13 14 14 14 14 14 11 6 9 13 13 13 13 11 5 5 4 3 1 2
-1 2 -1 -2 -4 -5 -5 -6 -6 -6 -5 -6 -6 -5 -5 0 6 9 7 6 8 6 5 5 7 9 8 9 8 11 14 14 14 14 11 5 5 9 12 11 12 9 3 4 4 3 2 3 6
-3 -4 -4 -3 -4 -4 -4 -5 -6 -6 -6 -4 -3 -2 -1 0 2 5 9 8 7 7 6 6 6 8 8 11 9 10 13 14 13 13 9 11 9 9 9 6 4 3 4 4 3 3 3 4 6
-1 -2 -4 -5 -5 -5 -5 -5 -5 -5 -4 -3 -3 -2 1 3 7 8 7 7 8 7 7 6 6 7 9 13 9 7 10 9 12 11 10 11 11 9 9 4 4 4 4 6 8 9 9 6 4
-1 -1 -1 -1 -1 -4 -4 -5 -5 -5 -6 -4 -2 -2 1 5 4 7 8 8 8 8 7 8 7 8 10 13 10 9 8 10 10 9 11 11 11 8 11 9 7 8 7 9 7 5 8 9 9
1 1 0 0 -2 -2 -3 -2 -3 -5 -6 -6 -3 -2 0 5 4 4 8 9 9 9 9 10 9 11 12 12 10 10 9 9 11 11 11 11 10 10 10 9 6 4 3 2 4 6 9 10 10
1 2 4 -1 -2 -2 -2 1 -3 -5 -7 -7 -4 -2 1 5 5 4 8 6 11 10 9 10 11 10 9 12 11 10 11 10 10 10 10 9 9 8 5 5 3 2 2 3 2 3 8 9 9
2 3 3 2 -1 -0 -0 0 -2 -5 -5 -6 -5 1 1 4 5 6 7 8 9 10 9 9 9 6 7 8 12 12 10 11 11 11 9 10 7 5 2 3 5 6 5 5 6 8 9 7 9
4 4 2 2 2 4 2 1 -0 -3 -3 -2 1 3 3 4 4 6 7 8 10 10 9 8 8 7 5 6 7 9 10 13 11 10 11 11 7 5 5 6 9 10 9 9 9 10 10 8 10
2 3 3 0 1 5 3 1 -0 1 3 1 3 3 6 5 5 6 7 6 9 11 9 9 9 7 6 8 9 9 10 10 10 13 13 12 13 10 9 10 11 11 11 11 10 10 10 9 11
5 4 3 1 4 4 3 1 1 2 4 2 1 2 5 6 6 6 9 9 9 11 10 9 9 8 9 7 9 10 10 11 10 10 11 12 12 12 12 11 11 11 12 12 12 11 10 10 10
3 3 2 5 5 4 5 5 4 2 3 3 2 2 3 7 9 9 9 8 8 9 10 9 11 10 9 10 10 10 10 11 11 11 11 12 10 11 11 11 11 12 12 12 12 12 11 11 11
4 2 3 6 6 8 5 8 6 5 5 4 3 3 4 9 10 10 8 9 9 11 11 11 9 10 9 9 9 10 10 10 10 11 11 11 11 11 11 10 12 12 11 11 11 11 11 11 10
4 3 5 5 6 6 8 7 7 5 6 5 5 5 8 9 9 8 8 9 11 11 10 10 9 9 9 9 10 10 10 9 10 10 11 10 10 10 9 11 11 10 10 9 9 10 10 10 10
3 5 4 4 6 9 8 8 7 6 6 6 8 9 9 9 9 8 8 9 10 11 9 10 9 9 7 9 10 9 9 9 9 10 10 10 9 10 10 10 9 8 8 7 9 10 11 9 7
5 6 7 8 9 9 7 8 6 5 5 6 8 9 9 8 9 9 8 8 8 8 9 8 9 10 10 9 9 9 10 10 9 8 10 9 9 8 9 9 9 9 8 8 7 5 8 9 7
6 7 8 9 9 10 6 7 6 6 5 6 7 7 7 8 7 7 8 9 8 6 7 8 9 9 10 8 10 10 10 10 10 9 8 7 7 9 9 9 10 9 9 9 9 6 9 9 9
6 7 2 7 6 8 8 6 5 5 5 4 4 6 7 6 4 4 5 5 5 6 6 5 4 4 4 4 6 9 12 12 11 9 9 10 9 10 10 9 9 9 9 9 9 8 9 9 9
6 4 5 7 9 10 8 6 8 6 6 5 4 4 5 5 5 5 5 4 4 4 4 4 4 4 4 4 6 5 5 7 11 10 9 9 8 8 8 8 8 8 10 10 9 9 9 10 10
5 3 2 1 3 5 7 7 5 6 4 4 4 3 2 2 3 3 3 4 4 4 4 4 3 4 4 3 3 4 5 6 7 8 8 8 8 7 7 7 8 8 10 11 11 10 10 10 10
3 2 0 5 4 4 5 6 2 1 1 1 1 0 1 -1 -1 -1 -1 -0 -0 -0 -1 -1 -1 -0 1 3 3 3 3 4 4 3 3 3 3 3 3 4 5 9 10 11 11 10 10 10 9

GFSSGP_850_dewp_105.txt.gz
Dewpoint
-4 4 8 8 9 9 10 9 5 5 2 -0 -1 -2 6 9 10 11 14 14 14 14 14 12 9 9 8 6 6 5 4 8 10 11 10 10 14 12 9 6 13 13 10 8 -1 3 3 0 3
-3 7 7 7 9 9 8 5 4 2 1 0 -1 1 7 11 13 13 13 13 14 15 15 13 12 11 10 8 6 5 5 8 9 11 11 9 14 12 11 9 12 12 4 0 -3 -1 -0 -0 0
-5 7 7 7 8 9 7 2 2 0 -0 -1 -2 5 7 12 14 15 14 11 11 15 14 14 14 12 11 8 6 4 1 8 8 10 11 10 14 12 12 11 11 12 1 -5 -4 -3 -3 -2 -2
5 4 6 7 7 6 5 4 2 0 -1 -2 -3 7 8 12 13 12 11 10 11 15 14 14 14 12 11 8 6 2 4 9 7 9 10 11 13 12 12 10 8 11 -2 -3 -3 -2 -1 -0 0
5 5 6 7 5 3 1 1 1 -0 -2 -3 -4 6 7 10 11 11 10 10 10 14 14 15 15 13 9 7 5 4 11 10 9 9 10 11 13 13 9 7 8 9 -2 -1 -1 0 1 1 1
3 3 6 7 5 2 -1 -2 -3 -3 -4 -5 -5 -3 5 11 7 7 8 10 12 13 15 15 15 13 9 7 5 8 12 9 9 10 10 11 13 11 4 9 9 5 -1 0 0 1 2 2 2
3 4 5 3 2 -1 -2 -3 -4 -5 -5 -5 -6 -5 -5 8 10 9 11 11 11 13 15 15 15 13 11 9 5 11 12 9 10 12 10 12 14 11 2 9 10 1 1 1 2 2 2 2 3
-0 2 3 3 4 2 -2 -3 -4 -5 -5 -5 -6 -5 -4 2 8 8 8 9 10 11 13 13 15 14 12 9 6 12 13 8 11 12 11 14 14 12 3 5 12 4 2 2 3 3 3 3 2
-0 2 4 2 1 -0 -3 -4 -5 -6 -5 -6 -6 -7 -6 2 7 8 8 9 9 10 11 12 14 14 12 10 11 12 13 9 11 11 13 14 14 11 12 12 13 6 3 3 3 3 2 2 2
0 2 1 -1 -2 -3 -4 -4 -5 -6 -6 -6 -6 -6 1 5 6 6 8 8 8 7 9 11 14 14 13 11 11 13 13 11 11 11 14 14 14 11 11 13 13 10 3 5 4 3 2 1 1
-0 2 -1 -1 -2 -2 -2 -3 -4 -5 -5 -6 -6 -5 -4 -1 7 6 4 6 8 7 8 9 10 12 13 10 10 10 13 13 12 13 14 14 14 12 11 13 13 12 7 4 4 3 2 1 3
-1 -3 -3 -3 -3 -4 -4 -4 -4 -5 -5 -6 -6 -5 -3 -1 5 10 5 2 4 5 8 8 7 10 11 8 10 9 11 14 13 14 14 14 13 11 13 13 12 11 3 4 4 3 2 2 4
0 -1 -2 -2 -2 -2 -4 -4 -4 -5 -6 -6 -6 -6 -5 -2 0 4 8 8 7 6 5 7 7 6 5 6 9 10 10 13 14 13 14 11 5 10 12 11 7 3 3 4 3 3 3 4 3
0 0 0 -1 -1 -1 0 -0 -4 -5 -6 -6 -6 -6 -6 -4 -1 2 5 7 8 8 7 7 7 6 5 5 6 9 12 11 14 14 12 9 4 7 9 7 4 3 3 4 3 3 3 4 3
1 2 2 0 -0 1 -0 1 -1 -3 -5 -5 -5 -6 -6 -4 -3 2 4 4 6 7 8 8 7 6 9 9 6 10 12 12 12 12 10 10 10 9 8 5 3 3 3 4 5 6 6 6 8
1 1 3 -0 -0 0 -0 1 -2 -4 -4 -5 -6 -6 -7 -6 -3 1 5 5 5 7 9 9 9 9 10 10 8 12 11 9 10 10 11 10 11 11 7 6 3 3 5 6 5 5 6 9 10
1 2 2 2 -0 0 1 2 -1 -3 -4 -4 -5 -6 -7 -4 1 1 3 6 6 7 9 8 9 12 10 9 9 10 10 10 11 10 11 11 11 9 10 9 8 6 5 4 4 5 7 8 9
3 3 2 3 1 1 2 4 2 -1 -2 -2 1 1 -3 -2 1 -1 2 7 6 6 6 8 10 11 9 8 7 10 11 10 10 11 11 11 11 9 9 8 6 5 6 5 5 6 8 8 7
2 3 3 2 1 3 4 4 3 -0 1 2 1 2 0 1 1 1 3 7 7 9 9 8 9 10 9 8 9 10 12 11 10 10 10 11 8 8 8 7 9 8 8 7 8 7 9 9 9
2 4 4 2 2 5 5 4 2 0 1 1 2 3 -0 0 4 4 6 6 7 9 8 9 9 10 9 9 10 10 10 10 10 10 10 9 9 10 9 8 10 10 10 10 10 10 9 9 9
5 4 3 4 2 4 5 5 4 1 2 0 2 2 2 2 3 6 6 6 8 8 8 10 10 10 8 9 10 9 8 7 8 7 10 11 11 12 10 10 11 11 11 10 11 11 10 10 10
5 2 3 5 6 7 5 6 6 5 4 4 3 3 2 2 6 6 7 7 8 9 9 8 11 10 9 9 10 10 10 8 9 9 7 9 10 10 12 12 11 10 11 11 11 10 10 10 10
4 4 5 5 7 6 6 7 7 5 5 5 3 3 3 6 8 8 8 6 8 8 9 8 10 9 10 9 10 10 10 10 10 9 9 9 9 9 10 10 10 10 10 9 10 8 10 9 9
4 5 5 5 6 8 8 8 7 6 5 5 5 4 7 9 9 8 8 6 8 9 9 10 10 10 10 10 10 10 10 9 9 9 10 9 9 9 10 10 9 9 7 9 9 8 8 8 9
5 6 6 8 8 9 7 7 6 4 5 5 8 9 9 9 9 8 9 8 10 10 10 10 10 10 9 10 10 10 9 9 9 8 9 10 10 9 10 10 10 10 10 9 9 8 9 9 9
5 7 7 7 9 9 7 7 5 4 8 7 7 7 8 8 8 8 8 9 9 9 9 9 9 9 9 9 9 9 9 8 8 8 9 8 8 8 8 8 9 9 9 9 9 9 10 9 9
6 8 6 7 8 8 7 6 5 4 6 7 7 7 6 6 7 7 8 8 8 8 8 7 7 8 8 8 8 8 9 9 8 9 10 10 9 8 8 9 9 8 8 9 9 9 9 8 9
5 5 7 7 8 9 7 7 6 5 6 6 6 6 6 6 6 6 6 6 6 6 6 5 5 5 5 5 8 9 9 9 9 11 9 9 9 9 9 9 9 9 9 9 10 10 10 10 9
5 5 4 2 4 7 7 7 5 6 5 5 3 3 5 4 5 5 4 5 5 5 5 5 5 5 5 6 7 8 8 8 9 9 10 9 8 7 8 8 9 9 9 11 11 10 10 10 10
2 4 1 4 4 4 4 7 5 5 4 3 3 -0 -1 0 -0 0 0 -1 -1 -1 -1 -0 0 1 2 3 3 3 4 3 4 4 4 4 4 4 4 5 6 7 10 10 10 10 10 10 10

GFSSGP_850_dewp_108.txt.gz
Dewpoint
-6 5 7 8 9 8 9 9 7 6 3 1 1 -1 -1 1 9 10 14 14 14 14 10 6 7 6 5 4 5 6 8 9 10 10 9 12 13 11 5 11 13 13 13 5 10 11 0 1 3
-2 6 7 7 8 9 6 6 7 4 2 1 -1 -2 5 10 14 14 14 14 14 14 13 10 7 6 5 5 4 4 4 8 10 11 10 10 14 10 7 13 13 13 6 -2 1 0 1 3 6
4 7 6 7 7 8 7 3 3 1 0 -1 -1 -3 6 13 14 13 12 11 12 14 15 13 9 9 8 7 6 6 5 8 8 11 10 9 13 11 8 12 13 6 0 -3 -1 -1 1 3 6
1 6 6 7 8 6 5 4 2 1 0 -2 -3 -1 5 13 12 12 12 12 12 13 14 13 13 11 10 9 7 6 4 9 8 9 11 10 13 12 11 10 13 6 -4 -3 -2 -2 -1 -1 2
4 5 5 7 7 5 2 2 1 0 -2 -2 -3 -3 -3 11 13 11 10 9 10 13 14 14 14 14 12 10 6 5 1 8 9 8 11 10 13 12 12 8 11 5 -5 -3 -2 -1 -1 0 3
4 4 6 6 5 3 1 -1 -2 -2 -4 -5 -6 -4 -5 -4 11 12 11 10 11 12 14 14 15 15 11 8 6 2 7 9 8 6 11 10 13 13 12 8 6 5 -3 -2 -1 0 1 1 3
3 4 4 4 3 2 -0 -2 -4 -5 -5 -5 -5 -6 -6 -2 9 10 11 11 10 12 12 14 15 15 11 9 7 6 10 10 9 8 11 10 12 13 11 3 5 3 -1 -0 0 1 1 2 3
1 2 4 4 4 2 -1 -2 -3 -5 -5 -5 -6 -6 -6 -4 6 9 10 11 11 10 9 13 14 14 12 11 11 11 12 12 9 10 12 11 13 13 8 3 3 3 0 0 1 2 2 2 3
-0 2 4 2 1 1 -3 -4 -4 -5 -5 -6 -6 -6 1 8 7 10 9 10 11 10 9 11 12 13 12 11 10 12 13 12 9 11 12 12 14 12 9 5 6 2 1 1 2 3 3 3 3
0 2 1 -1 -2 -2 -2 -2 -3 -4 -5 -5 -6 -6 -6 -5 4 8 8 9 10 10 9 9 10 11 13 11 11 13 14 13 9 12 12 13 14 13 10 9 12 2 1 2 3 3 2 2 2
0 2 -1 -1 -2 -2 -1 -1 -3 -4 -4 -5 -6 -6 -6 -5 -1 2 8 9 9 8 9 9 9 11 12 11 10 12 13 14 12 11 11 13 14 13 11 10 12 10 3 4 3 2 2 1 1
-0 -2 -1 -2 -3 -3 -3 -4 -5 -5 -5 -5 -5 -6 -6 -6 -4 -2 7 9 8 8 9 9 9 9 11 11 10 8 9 11 13 11 12 13 14 13 10 11 12 9 3 3 3 3 2 1 3
0 -0 -1 -1 -1 -1 -1 -1 -2 -4 -4 -5 -6 -7 -6 -6 -6 -3 -2 4 8 8 9 9 8 9 9 10 10 10 9 8 10 13 13 14 14 13 11 12 12 11 5 3 3 3 2 2 3
-0 0 0 0 -0 -1 -0 -1 -1 -1 -3 -4 -5 -6 -6 -6 -6 -5 -2 3 6 8 8 8 8 8 7 7 6 7 5 8 8 14 13 14 14 14 11 11 12 12 4 3 3 2 1 3 3
0 2 1 1 1 1 -0 1 1 -2 -2 -2 -3 -4 -5 -5 -6 -6 -3 -0 4 5 7 6 7 8 7 7 5 5 6 5 7 12 14 14 14 11 10 8 10 8 5 4 3 3 5 5 5
2 1 3 -1 0 -0 0 1 -2 -3 -3 -3 -3 -4 -4 -5 -6 -7 -5 -1 4 4 4 5 6 8 8 8 7 7 6 9 8 9 13 13 10 6 7 7 5 4 5 5 4 5 4 4 7
0 0 2 2 0 1 0 2 -1 -1 -2 -3 -3 -4 -4 -5 -5 -6 -4 0 4 4 5 5 8 8 8 8 9 9 8 9 5 10 11 12 10 7 9 4 8 5 5 5 4 5 5 6 7
1 1 2 2 0 0 2 2 1 1 1 -0 -3 -4 -4 -4 -5 -5 -6 -1 2 4 5 5 7 7 9 10 10 10 11 9 10 9 10 11 10 8 7 8 7 7 7 6 5 5 6 6 8
1 3 3 2 0 2 3 4 3 2 2 1 -1 -2 -2 -2 -5 -6 -4 1 2 7 7 6 6 7 8 10 10 11 12 11 9 8 10 11 11 12 10 9 10 9 6 6 5 6 5 7 8
3 4 2 2 1 3 4 4 3 2 1 0 -0 -0 0 -2 -5 -2 -0 1 3 6 6 7 8 7 10 8 9 8 9 10 10 10 10 11 11 11 10 10 10 9 7 7 6 6 7 8 9
4 3 3 3 2 4 4 5 4 2 1 0 0 0 2 2 -1 1 4 4 5 7 7 8 8 8 10 9 9 9 10 10 9 10 10 10 11 11 9 9 8 8 8 8 9 9 9 9 9
5 1 3 4 6 6 4 6 5 4 4 3 3 2 1 2 2 2 3 4 7 7 7 8 8 10 10 10 10 10 11 11 10 10 10 10 10 10 8 7 7 8 9 10 10 10 10 10 10
4 3 4 5 5 6 6 6 4 4 4 3 3 3 2 2 3 3 7 6 7 6 8 8 8 7 9 10 9 10 10 10 9 10 10 10 10 10 10 10 9 10 12 11 10 10 10 9 9
3 5 5 5 6 7 7 7 7 6 5 4 3 4 3 5 5 8 7 6 6 7 8 9 8 10 10 9 11 11 10 9 9 9 8 8 9 10 10 11 11 10 10 10 10 9 9 9 9
4 6 5 5 7 7 7 7 6 5 4 3 5 7 7 7 8 9 9 8 8 9 9 10 9 9 10 10 10 10 11 10 10 9 9 8 8 9 9 9 9 9 9 8 7 7 8 9 9
5 6 6 7 8 7 6 6 6 4 7 7 7 7 7 8 8 8 8 8 9 9 10 10 10 10 10 10 10 10 10 10 10 9 9 9 9 9 9 9 10 10 9 9 9 9 9 9 8
6 7 6 7 7 8 7 6 4 3 6 6 6 6 6 7 7 7 6 8 8 9 9 9 9 8 8 8 9 9 8 9 9 8 7 7 9 9 9 9 8 8 9 10 9 8 9 9 9
5 5 8 7 8 8 6 7 5 4 6 5 6 6 6 6 6 6 7 7 7 8 8 8 8 7 8 7 8 8 8 8 7 7 9 9 10 10 10 9 8 8 10 10 9 8 9 10 9
6 7 6 4 5 7 7 7 4 5 5 4 5 5 5 6 5 5 5 6 6 6 6 6 6 6 6 7 7 8 8 9 10 10 10 10 10 10 10 10 9 9 9 9 10 9 9 9 10
2 4 3 4 5 4 5 7 4 4 3 1 1 3 1 4 0 0 0 0 1 1 2 3 4 4 4 4 4 4 4 5 5 5 5 5 4 4 4 5 6 8 9 9 10 10 10 10 10

GFSSGP_850_dewp_111.txt.gz
Dewpoint
-4 5 8 8 7 7 8 8 7 6 3 1 0 -1 -1 -1 1 8 13 13 13 10 8 7 9 9 9 9 10 10 11 10 9 9 9 11 12 11 4 12 14 13 11 12 13 6 -0 3 6
4 5 7 7 6 6 2 6 7 6 3 -0 -1 -2 0 5 11 11 13 13 13 12 7 5 7 8 9 9 8 8 9 10 10 10 10 12 12 9 9 13 14 14 7 7 9 -2 -1 2 2
4 6 5 7 6 7 3 4 4 1 -1 -1 -2 -3 1 10 13 11 12 13 14 14 10 7 6 7 6 5 5 5 7 9 9 11 9 10 13 9 10 13 13 10 3 -2 -2 -0 0 3 4
6 6 5 6 8 6 4 3 2 2 -0 -1 -3 -3 -4 1 13 13 12 10 14 14 13 11 7 6 6 5 5 5 6 8 8 11 10 10 13 9 11 12 12 4 -3 -1 -1 1 2 3 3
4 4 4 7 6 5 3 3 1 0 -1 -3 -5 -4 -4 3 10 12 12 11 10 13 14 12 9 9 9 9 7 6 5 9 8 9 11 10 13 12 9 10 12 -1 -4 -1 -1 -1 -0 1 2
4 3 4 4 4 3 2 1 -1 -2 -4 -5 -6 -6 -6 -4 11 11 11 11 12 14 14 14 13 11 11 11 9 6 4 5 8 9 10 11 12 13 12 9 12 -1 -4 -3 -2 -1 -1 2 3
3 3 3 4 4 3 1 -1 -4 -4 -4 -5 -5 -5 -6 -6 2 12 10 11 11 13 14 14 14 15 14 12 8 6 3 5 9 9 9 11 12 14 12 9 8 1 -4 -3 -1 0 1 2 3
2 2 4 3 3 2 -1 -3 -4 -5 -5 -5 -6 -6 -4 -1 4 9 11 11 11 11 12 14 15 15 13 10 9 7 10 8 10 10 9 11 12 13 13 10 7 5 -2 -1 0 1 1 2 3
-1 1 3 2 3 1 -3 -3 -4 -4 -4 -5 -5 -6 -0 -3 -1 8 12 11 11 11 11 12 13 13 14 11 10 7 11 12 11 11 10 11 12 14 13 10 4 7 -1 -0 1 2 2 2 3
-1 1 0 -0 -2 -2 -2 -2 -2 -3 -4 -4 -5 -6 -6 -4 -4 0 6 10 11 10 10 10 10 12 12 12 10 9 11 13 12 11 11 12 12 14 13 10 3 6 1 1 2 2 2 2 2
0 1 -1 -2 -2 -2 -1 -2 -3 -3 -3 -4 -5 -5 -5 -6 -6 -5 0 6 9 11 11 10 9 10 12 12 11 9 8 14 12 11 12 13 13 13 11 10 7 4 1 2 2 3 2 2 2
-1 -2 -1 -1 -2 -2 -2 -3 -2 -3 -4 -5 -5 -5 -6 -6 -6 -6 -3 -0 4 10 11 10 9 11 11 12 12 10 7 13 13 10 13 13 13 12 12 11 7 3 1 2 3 3 2 1 0
0 -1 -1 -1 -1 -1 -1 -0 -1 -1 -3 -6 -6 -5 -4 -5 -6 -6 -6 -2 -0 7 9 10 10 10 11 11 11 10 7 10 11 10 11 13 13 13 13 13 8 6 3 2 3 3 2 1 2
-0 0 0 -0 -0 0 0 -1 -1 -2 -3 -3 -4 -5 -5 -5 -5 -7 -7 -4 -2 4 8 8 10 10 10 10 11 10 10 9 8 6 8 12 12 12 13 13 8 9 6 4 4 3 2 1 3
0 1 1 0 0 1 0 1 1 -5 -4 -3 -3 -4 -4 -3 -4 -5 -7 -6 -3 2 6 8 8 8 8 10 10 8 7 8 10 6 7 9 12 13 13 13 9 8 7 5 6 4 3 1 3
1 0 2 -2 1 -0 -0 2 -2 -3 -2 -3 -3 -3 -3 -3 -4 -5 -5 -7 -5 -1 3 5 6 6 6 7 7 7 7 6 5 7 7 9 12 12 13 13 11 7 10 6 5 5 3 3 4
-0 -0 1 1 -0 -0 1 2 -1 -1 -2 -2 -1 -1 -1 -2 -4 -4 -4 -7 -7 -2 3 3 4 4 5 7 7 7 7 7 7 7 9 10 11 13 13 13 11 10 9 7 5 5 5 5 4
0 1 1 2 -1 -0 1 1 -0 -1 0 0 0 -0 0 -0 -4 -4 -5 -7 -7 -2 4 4 5 6 7 8 8 8 8 8 8 7 8 10 11 12 13 11 11 10 8 7 7 5 7 6 5
1 3 2 1 0 1 2 2 1 0 1 2 2 1 0 -2 -3 -3 -4 -6 -5 -2 2 3 6 6 8 8 8 8 7 8 10 9 9 11 11 10 10 9 7 8 11 5 6 6 7 7 7
2 3 2 1 1 2 2 3 2 1 2 1 1 1 -1 -1 -1 -1 -3 -6 -5 -1 1 2 6 6 6 7 9 9 9 10 11 10 10 11 9 8 11 7 5 5 5 5 7 7 7 7 8
2 3 2 2 2 2 4 4 3 2 2 2 1 -0 -1 -1 0 -1 -5 -4 0 0 2 5 7 7 7 7 9 10 9 10 11 11 11 10 10 10 9 9 7 8 8 8 8 7 7 8 7
4 0 2 2 5 5 3 5 2 4 3 2 2 2 2 0 -0 1 -1 0 4 2 3 7 8 9 8 8 9 9 9 9 9 10 10 11 10 9 8 10 10 8 10 9 7 8 8 8 9
3 3 4 5 6 5 4 6 3 4 4 4 3 2 3 3 2 2 2 2 3 4 6 8 9 8 8 9 9 10 9 9 9 10 9 11 11 11 11 10 10 10 10 9 9 10 10 10 10
3 4 5 5 6 6 5 6 2 5 5 4 3 3 5 3 2 4 3 3 4 4 6 7 8 8 8 8 7 9 10 10 10 10 9 10 11 10 10 10 10 8 7 7 7 9 10 10 10
4 6 4 4 5 6 7 7 5 5 3 5 4 5 8 7 7 7 8 5 6 6 6 7 8 8 4 7 10 10 9 10 10 10 10 10 10 10 10 9 9 9 8 8 9 9 10 9 9
5 5 6 7 5 6 7 7 6 4 6 7 7 6 6 7 7 7 8 7 5 7 6 6 9 9 9 10 10 10 10 10 10 10 10 9 8 8 9 9 9 10 9 9 9 9 8 8 8
5 7 6 7 6 7 7 6 4 3 5 6 6 6 6 7 7 6 6 6 8 9 8 9 9 9 9 9 8 9 9 10 10 9 9 8 8 8 7 7 8 9 9 9 9 9 9 9 10
5 5 7 7 8 8 7 7 5 4 4 5 6 5 5 6 6 6 7 7 7 8 8 8 8 9 9 8 7 8 8 8 9 9 8 9 9 10 10 10 9 9 9 9 9 9 10 10 10
6 7 7 6 5 7 7 7 3 3 3 5 4 5 4 4 4 5 6 6 7 7 7 7 7 5 7 7 8 9 9 9 9 9 8 9 9 10 10 10 10 10 9 9 9 10 10 9 9
4 5 4 6 6 3 5 6 3 4 3 3 3 3 1 1 1 0 0 0 1 3 5 5 5 6 6 6 6 6 6 7 8 8 8 8 7 6 6 6 8 9 10 10 10 10 10 10 10

GFSSGP_850_dewp_114.txt.gz
Dewpoint
-6 5 8 8 6 6 7 6 7 6 4 1 -0 -1 -1 -1 -0 4 10 13 12 13 12 13 11 11 11 11 10 11 10 8 8 9 9 9 12 11 5 12 9 13 13 13 7 6 12 7 4
2 7 8 6 5 3 -2 5 6 6 3 -1 -1 -2 -1 3 4 8 12 13 13 11 10 10 11 11 12 11 10 11 11 10 9 9 9 10 12 9 11 13 13 12 12 13 5 3 3 2 1
5 7 5 5 5 2 -2 3 4 2 0 -1 -3 -3 -0 8 13 13 14 14 13 11 8 7 10 10 11 10 10 9 10 10 10 9 10 12 12 8 11 13 13 11 7 -0 -3 -3 -1 1 4
6 6 5 6 7 4 0 2 2 0 -1 -2 -5 -4 -4 5 8 14 14 14 14 12 9 6 7 8 9 8 7 7 8 9 10 11 11 12 13 9 12 13 13 7 -0 -3 -3 -1 1 3 3
5 3 4 5 5 5 3 3 1 0 -1 -3 -5 -5 -6 -2 5 12 13 13 13 14 11 9 7 8 7 5 4 4 3 5 6 10 11 12 13 12 12 12 12 3 -2 -1 -0 0 2 1 2
2 1 -0 1 3 3 2 2 0 -2 -4 -4 -6 -5 -5 -5 3 12 12 13 13 14 14 11 9 7 7 7 7 6 5 4 6 6 10 11 12 12 12 11 12 -0 -1 -1 -1 -0 0 1 2
2 1 1 2 2 2 1 -1 -1 -4 -4 -4 -5 -5 -5 -5 -1 8 12 12 12 12 14 13 11 9 9 10 9 8 6 5 6 7 7 11 12 13 12 10 12 -0 -3 -2 -1 -1 -1 1 2
2 0 4 2 2 -1 -2 -3 -4 -5 -5 -5 -6 -6 -5 -3 -0 5 11 10 11 11 12 14 13 13 12 12 12 9 7 4 9 9 9 10 12 13 13 11 8 4 -4 -3 -1 -0 0 0 1
0 1 1 1 3 -1 -3 -2 -4 -3 -4 -5 -5 -6 -2 -3 -2 1 10 11 11 11 11 11 12 13 14 14 12 9 7 5 10 10 10 11 12 12 14 12 9 6 -3 -2 -0 0 1 1 1
-2 -2 -2 -1 -1 -2 -2 -2 -2 -3 -3 -4 -4 -6 -6 -6 -6 -4 0 7 11 11 11 11 10 11 11 12 12 10 6 7 9 11 11 9 12 11 13 13 11 6 -1 -1 0 1 1 2 2
0 -1 -1 -2 -2 -1 -2 -3 -3 -3 -3 -4 -5 -5 -6 -7 -7 -6 -6 -3 5 9 11 11 10 10 10 11 12 11 9 8 10 11 11 11 12 12 12 13 11 7 5 -0 1 2 1 1 1
-2 -1 -1 -1 -2 -1 -0 -1 -1 -2 -4 -6 -7 -6 -6 -6 -7 -8 -7 -6 -2 4 9 11 11 10 10 11 11 11 10 9 10 12 11 11 13 13 13 13 12 8 5 1 1 2 2 2 1
-0 -1 -1 -1 -1 -1 -1 -0 -1 -1 -6 -6 -6 -5 -5 -5 -7 -8 -9 -7 -6 0 5 9 11 11 10 11 11 11 11 10 10 10 11 10 12 13 13 13 11 11 6 2 1 2 3 2 1
-0 0 0 -1 -1 -0 0 -0 -1 -2 -6 -5 -5 -5 -4 -4 -5 -5 -7 -9 -7 -4 1 7 9 11 11 10 10 10 11 10 10 11 10 10 9 12 12 12 12 12 9 5 4 4 3 2 1
0 1 0 -1 -0 0 0 0 1 -5 -4 -4 -3 -3 -4 -3 -3 -3 -4 -8 -9 -6 -2 5 8 9 10 10 10 10 10 9 10 9 9 9 8 10 11 12 12 12 11 8 7 6 5 3 2
0 -1 -0 -3 1 -0 -1 1 -3 -4 -2 -2 -3 -3 -3 -2 -2 -2 -3 -4 -9 -8 -5 1 7 8 8 9 9 10 10 10 8 7 9 9 7 8 12 10 11 12 11 10 9 7 5 3 3
-1 0 1 1 -1 -0 0 1 -1 -2 -2 -1 -2 -2 -2 -0 -0 -1 -2 -4 -5 -9 -7 -2 3 6 7 7 7 8 10 8 7 7 6 6 6 8 12 11 11 12 12 12 10 8 6 5 4
1 1 1 2 -0 -0 1 1 -1 -1 -1 -1 -1 -1 -1 0 -0 -0 -0 -4 -5 -8 -8 -4 2 4 6 6 7 7 7 7 7 7 7 6 6 8 11 12 12 12 13 12 11 8 7 6 4
0 0 1 -0 -1 1 1 1 1 -0 0 1 1 1 1 1 -3 -2 -3 -3 -4 -6 -7 -5 1 4 5 6 6 7 7 7 8 8 8 8 7 9 11 12 12 13 12 9 11 11 9 7 6
1 2 1 0 -0 1 2 2 1 1 1 1 1 2 2 1 -2 -2 -1 -2 -3 -6 -6 -4 2 3 3 5 5 7 7 8 8 8 8 8 10 10 10 12 12 11 10 8 8 9 9 7 9
2 2 2 2 0 1 2 3 1 1 2 2 2 2 1 0 -1 -1 -0 -1 -2 -6 -6 -3 -1 2 3 4 6 6 8 9 9 8 10 10 10 10 10 11 10 10 10 7 8 8 9 7 8
3 1 1 1 3 6 2 5 1 3 3 2 2 3 2 2 3 1 -0 0 -6 -5 -5 -3 0 1 3 5 6 7 6 9 9 9 9 11 10 11 11 10 10 8 7 6 5 5 7 8 9
3 2 4 4 5 5 4 6 2 3 4 4 3 3 3 4 3 2 1 1 -1 -1 2 -3 1 4 6 7 8 8 9 10 9 10 11 11 11 10 11 11 10 9 8 4 4 7 6 7 8
1 4 4 4 6 6 4 6 3 6 5 4 3 4 5 7 4 2 2 3 2 1 3 3 3 7 8 8 9 9 10 9 9 10 9 10 10 10 11 11 9 10 10 9 9 8 8 8 9
4 6 3 2 6 5 7 7 6 5 4 6 6 7 7 6 6 7 6 4 3 3 2 4 5 6 8 8 8 8 8 9 9 9 10 10 10 10 11 11 11 11 9 9 9 8 8 8 9
5 6 6 5 5 6 6 6 6 4 3 6 6 6 4 5 5 6 7 8 6 4 5 5 6 7 8 9 9 10 10 10 10 10 10 10 10 10 10 10 10 9 9 9 9 9 8 8 8
5 7 5 7 5 7 7 6 4 2 3 5 5 5 5 5 4 4 5 7 8 6 6 7 7 8 9 10 10 9 10 10 10 10 10 10 10 10 10 10 10 9 9 9 9 8 8 8 8
5 5 7 7 7 8 7 6 5 3 3 3 4 4 4 4 6 4 4 6 7 8 8 8 9 9 9 9 9 9 9 9 9 9 9 9 9 9 9 9 8 8 8 9 9 9 9 9 9
6 7 7 7 6 7 7 6 3 3 3 3 4 3 3 3 3 5 6 5 7 7 7 7 7 8 9 8 9 9 9 9 9 9 9 9 9 10 10 10 10 10 10 10 9 9 9 9 9
4 5 5 5 6 4 5 6 4 3 3 3 2 2 1 1 1 1 2 3 4 4 6 6 6 7 7 7 7 7 8 8 9 9 9 9 8 7 6 7 9 9 10 9 10 9 10 9 9

GFSSGP_850_dewp_117.txt.gz
Dewpoint
4 7 8 7 5 5 5 3 7 6 5 1 -0 -0 -0 -1 -0 6 11 14 14 14 13 12 12 12 12 12 11 10 10 10 10 11 9 9 11 11 6 7 8 13 14 9 11 12 7 8 4
2 7 8 4 5 1 -4 4 6 5 3 -1 -1 -2 -1 2 10 12 13 15 14 14 14 13 11 11 11 12 11 11 10 9 8 8 8 9 11 10 9 11 13 14 13 10 11 2 5 1 -0
5 7 5 4 4 -1 -5 1 4 2 -1 -2 -3 -3 0 7 8 11 14 14 15 14 14 14 12 11 12 11 11 10 11 10 9 8 8 10 11 9 13 13 13 12 12 6 -1 -1 -1 -0 -0
7 6 4 5 3 3 -1 2 2 0 -1 -4 -5 -3 1 -2 2 8 13 14 14 13 12 13 11 11 11 11 10 10 10 10 9 10 12 12 12 10 13 13 13 11 4 -1 -3 -1 2 3 2
6 3 3 3 3 4 3 3 1 0 -1 -3 -5 -4 -5 -3 1 10 13 13 14 14 11 10 10 11 11 10 9 8 8 9 9 10 11 10 12 12 12 13 13 8 -2 -4 -2 1 3 3 2
1 -2 -1 -1 1 1 2 2 1 -1 -3 -4 -5 -5 -5 -5 -2 10 13 13 13 14 13 9 13 10 10 10 9 7 6 7 7 9 10 10 11 13 12 12 12 6 -2 -2 -1 1 2 2 2
1 -2 -4 -2 -1 0 -1 -2 -0 -2 -4 -4 -5 -5 -5 -5 -2 6 13 12 12 13 14 14 11 9 8 7 7 7 7 6 7 8 9 11 11 13 13 12 12 4 -2 -1 -1 -0 0 1 2
1 -1 2 1 1 -3 -2 -3 -4 -4 -4 -5 -6 -5 -5 -3 -3 -0 9 11 11 11 12 14 14 12 8 8 9 9 8 7 8 10 9 10 12 12 13 12 11 8 -3 -1 -1 -1 -0 1 2
0 -0 0 -1 1 -2 -2 -2 -3 -3 -4 -5 -5 -6 -6 -5 -5 -3 4 10 12 12 11 12 13 13 12 11 11 11 10 7 5 8 9 10 12 12 13 13 10 10 -3 -2 -2 -1 -0 1 1
-1 -3 -3 -2 -0 -2 -2 -2 -2 -3 -4 -4 -5 -6 -6 -6 -6 -6 -4 2 9 11 12 11 12 12 13 13 13 13 11 8 4 9 10 10 10 12 12 13 12 9 4 -3 -2 -0 1 1 1
-1 -2 -2 -2 -2 -1 -2 -2 -3 -3 -3 -5 -7 -10 -9 -9 -8 -8 -8 -5 -1 7 11 11 11 10 10 11 11 12 12 10 9 7 10 10 9 11 12 13 13 12 8 -0 -1 1 1 1 1
-3 -1 -1 -1 -1 -1 -1 -1 -1 -3 -5 -7 -6 -6 -6 -8 -10 -11 -11 -9 -7 -3 6 10 11 10 10 10 10 11 12 11 10 10 10 11 10 11 12 12 13 13 10 6 -0 1 1 2 2
-1 -1 -1 -1 -1 -2 -2 -1 -1 -2 -8 -7 -6 -5 -5 -7 -8 -10 -11 -13 -10 -7 -0 6 9 10 10 10 10 11 11 11 10 10 12 12 10 10 12 13 12 13 12 6 3 1 3 3 3
-0 0 -0 -1 -1 -1 -0 -1 -1 -4 -7 -6 -5 -4 -4 -4 -5 -6 -5 -10 -13 -11 -6 0 5 9 11 11 10 11 11 11 11 11 10 11 10 9 10 12 12 13 12 10 8 2 3 4 4
-0 -0 -1 -1 -0 -0 0 1 1 -7 -3 -4 -4 -4 -4 -5 -5 -4 -4 -3 -6 -12 -9 -5 0 7 10 10 10 11 10 11 11 10 10 10 11 10 10 11 11 11 12 12 11 8 5 5 5
-0 -2 -2 -4 -1 -1 -1 0 -3 -4 -2 -2 -3 -4 -4 -3 -5 -4 -2 -2 -2 -6 -11 -7 -3 5 9 10 11 10 11 10 11 10 9 9 9 9 9 10 11 11 12 11 12 10 10 7 5
-1 -0 1 0 -2 -0 0 1 -1 -3 -2 -1 -1 -1 -1 -1 -3 -4 -2 -1 -1 -4 -9 -8 -6 0 8 9 10 11 11 11 11 9 10 8 7 7 7 8 11 12 12 12 12 11 11 9 7
1 1 0 1 -1 -1 1 1 -0 -1 -1 -1 -1 -0 -0 -0 -1 -2 -2 -1 -1 -4 -7 -8 -8 -5 3 8 8 9 10 10 10 10 10 7 7 6 6 6 8 12 12 12 12 11 5 7 8
0 0 1 -0 -1 0 1 1 0 -1 -0 0 0 1 1 1 0 0 -1 -2 -1 -4 -6 -8 -8 -7 -2 4 8 8 7 7 7 8 7 7 7 7 7 7 7 8 12 12 12 12 9 7 9
1 2 2 -0 -1 1 1 1 0 0 1 1 1 2 2 2 1 -1 -2 -3 -3 -3 -4 -7 -7 -8 -5 4 6 6 5 5 5 6 6 7 7 7 8 8 8 10 12 12 12 12 9 8 8
2 2 1 1 0 0 2 3 1 -1 2 1 1 2 3 2 2 -0 -2 -2 -1 -1 -2 -5 -7 -7 -6 3 5 6 7 7 7 6 6 7 7 7 8 10 10 10 11 11 12 11 9 8 7
3 0 1 2 4 5 2 6 2 2 2 2 3 3 3 3 2 1 0 -1 -1 -2 -2 -4 -6 -6 -5 2 4 7 5 5 4 6 7 8 8 10 11 10 10 10 11 11 11 10 8 7 5
2 1 3 4 5 6 4 6 3 3 4 4 3 3 5 5 6 4 1 1 2 -3 -6 -6 -5 -5 -3 0 2 6 7 7 7 8 8 9 9 10 10 11 10 11 10 9 10 10 7 7 7
0 3 3 4 4 7 3 5 4 6 5 4 3 6 6 5 5 6 3 2 2 1 -0 -1 0 -3 -2 1 3 7 7 7 8 9 9 9 9 10 10 11 11 10 10 7 7 7 7 6 5
3 5 3 3 6 5 4 7 6 4 4 4 6 5 5 5 5 5 6 5 3 1 1 1 3 -3 -1 2 6 6 8 8 8 10 10 9 9 9 9 11 10 10 11 9 8 5 5 6 6
4 5 5 5 5 5 5 6 5 2 3 3 4 4 4 4 3 3 6 7 7 3 2 2 1 3 4 6 7 7 7 6 8 9 9 10 9 9 10 10 11 11 10 9 9 8 7 9 9
5 6 4 7 5 6 5 5 5 2 3 3 3 3 3 4 3 3 4 7 6 5 4 4 5 5 6 6 7 6 8 9 10 9 10 10 10 10 10 10 10 10 9 9 9 10 9 8 8
5 4 7 6 7 6 6 6 5 3 3 3 3 3 3 3 3 3 3 6 7 6 5 6 6 6 7 7 8 9 10 10 10 10 10 10 9 9 9 9 10 10 10 9 9 8 8 8 9
6 6 6 7 7 7 6 5 4 3 3 3 3 3 2 2 2 3 4 5 5 5 6 7 8 9 9 9 9 9 10 9 9 9 9 9 9 10 10 10 10 9 9 9 9 9 9 9 10
4 6 5 6 7 5 5 6 4 3 3 3 2 2 1 1 1 2 2 3 3 4 5 5 5 6 6 7 8 8 8 9 9 9 9 9 9 9 8 8 8 9 9 9 9 9 9 9 9

GFSSGP_850_dewp_120.txt.gz
Dewpoint
8 7 8 7 1 0 -4 -4 2 4 2 3 1 1 1 -0 1 6 15 15 15 15 16 14 14 12 11 10 10 12 12 11 10 12 13 10 10 10 5 3 6 4 3 5 11 11 11 8 2
7 7 8 3 -0 -5 -7 -0 2 3 2 1 0 -0 0 2 11 12 15 14 15 15 16 16 13 12 12 12 10 10 9 10 9 11 9 10 10 10 8 7 13 14 11 9 12 9 6 1 -1
6 8 4 1 -4 -6 -8 -2 1 2 -1 -1 -1 -2 2 3 4 9 12 14 15 15 15 16 13 12 12 12 11 10 10 10 8 8 8 9 10 11 11 12 14 14 12 7 6 0 -0 -1 -2
7 6 2 -0 -4 -3 -3 -0 2 0 -1 -3 -4 -2 1 -3 1 6 9 13 15 15 15 14 12 12 12 11 11 10 10 10 10 9 9 10 11 12 13 13 14 12 9 1 -4 -0 0 1 -0
6 3 -0 -3 -3 -1 -0 1 1 -0 -2 -3 -4 -3 -1 -3 1 8 12 13 15 15 15 14 12 12 12 12 11 11 10 10 9 10 11 12 12 12 13 13 13 12 7 0 -2 1 3 3 2
2 -1 -5 -6 -5 -2 -1 1 1 -0 -2 -4 -5 -4 -2 -4 -1 10 13 13 14 15 14 15 11 12 12 12 11 11 10 10 9 10 11 12 12 12 12 13 13 12 3 -3 -1 2 3 3 2
-3 -6 -9 -7 -7 -5 -5 -2 -3 -5 -3 -5 -5 -6 -3 -3 -3 7 12 13 13 14 14 14 13 11 11 11 11 10 10 9 9 9 10 11 12 12 13 13 12 11 -1 -2 -0 2 3 3 3
-1 -6 -5 -6 -7 -5 -2 -3 -4 -4 -7 -4 -5 -9 -6 -1 -4 -1 6 12 12 12 13 14 14 13 11 10 8 7 7 8 7 9 9 10 12 12 13 13 13 12 -1 -1 -0 1 2 3 4
-5 -8 -7 -7 -4 -4 -3 -4 -3 -3 -3 -4 -5 -5 -5 -6 -5 -5 -3 5 11 12 12 13 14 14 14 12 11 8 9 9 9 8 10 10 11 13 13 13 12 12 5 -1 -0 -0 1 2 4
-5 -7 -7 -4 -2 -3 -3 -3 -4 -5 -6 -6 -5 -5 -5 -5 -5 -6 -7 -5 4 10 12 12 12 13 13 13 11 11 11 12 9 9 13 11 14 14 14 13 13 12 10 -2 -1 -1 -0 1 8
-3 -6 -5 -3 -2 -1 -3 -3 -4 -5 -6 -8 -9 -10 -9 -6 -6 -9 -10 -9 -6 2 8 11 11 11 12 12 12 13 13 13 11 13 13 14 13 13 12 12 13 13 11 4 -2 -2 -1 2 10
-3 -2 -2 -2 -1 -2 -3 -4 -4 -5 -7 -8 -8 -6 -6 -5 -5 -5 -12 -14 -11 -6 2 7 10 11 11 11 10 12 12 12 12 10 12 13 13 12 12 12 12 13 12 9 8 8 8 9 3
-5 -3 -2 -2 -2 -2 -3 -3 -4 -4 -5 -5 -5 -4 -4 -3 -5 -7 -9 -14 -16 -13 -3 2 7 10 11 11 10 11 10 11 12 11 13 13 13 13 12 12 12 12 13 13 10 10 10 5 2
-2 -2 -2 -2 -2 -2 -2 -4 -2 -6 -4 -4 -3 -3 -3 -3 -3 -2 -3 -7 -12 -15 -13 -5 -1 5 9 11 10 10 10 11 12 11 11 12 12 12 12 12 13 13 11 12 12 8 9 3 4
-1 -2 -3 -2 -1 -2 0 -2 -1 -4 -4 -3 -4 -4 -3 -3 -2 -2 -3 -4 -5 -4 -11 -13 -7 -2 4 9 11 11 10 11 11 11 10 11 11 12 12 11 12 12 13 12 12 11 8 5 8
-2 -3 -3 -3 -2 -1 -1 -5 -5 -4 -3 -4 -4 -4 -3 -2 -2 -2 -1 -5 -5 -4 -4 -8 -12 -7 -1 6 9 11 11 12 11 11 11 10 10 11 11 11 11 12 12 12 12 12 12 9 5
-3 -2 0 -2 -2 -1 -0 -2 -4 -4 -4 -3 -3 -3 -3 -2 -1 -0 -1 -3 -3 -3 -4 -4 -8 -10 -5 2 8 11 11 11 11 11 11 10 9 9 9 9 9 11 11 12 12 12 11 11 7
-3 -1 -3 -2 -3 -2 -2 -1 -3 -3 -2 -2 -2 -2 -1 -1 -0 1 1 -0 -2 -2 -2 -2 -3 -9 -6 -2 7 11 11 11 11 11 11 10 10 9 7 7 7 7 9 11 12 12 12 12 8
-1 -1 -1 -3 -3 -1 -1 -0 -1 -2 -2 -1 -1 0 0 1 2 2 -1 -1 -1 -1 -3 -2 -4 -7 -7 0 5 9 11 11 11 11 10 10 9 9 7 7 7 7 8 10 12 12 12 12 11
0 -0 -2 -2 -2 -0 -0 0 -1 -1 -1 0 1 1 2 2 3 3 2 -0 -2 -3 -2 -2 -4 -6 -7 -2 2 6 9 9 10 9 8 8 9 8 7 7 7 9 10 12 12 12 12 12 11
-0 -0 -0 1 0 -0 1 2 -1 -2 0 1 1 3 3 3 4 3 3 1 -2 -3 -3 -3 -4 -6 -5 -0 -3 4 9 9 8 7 6 6 5 6 6 7 7 9 10 11 12 11 12 11 11
1 -1 0 2 3 5 1 6 2 1 1 2 3 4 4 5 5 5 5 3 1 -2 -3 -2 -2 -3 -4 -4 4 2 9 9 7 6 5 4 5 6 6 6 8 9 11 11 12 11 12 11 11
0 -0 1 2 3 5 3 6 3 3 4 4 4 4 6 5 5 5 6 6 3 -0 -1 -4 -3 -2 -2 -5 2 3 4 8 10 9 7 7 7 7 7 8 10 11 11 11 11 11 11 11 11
-1 1 3 3 4 6 3 5 7 5 5 4 4 4 5 5 5 4 4 6 6 1 0 -5 -5 -5 -5 -6 2 5 2 7 7 5 7 7 8 8 8 9 10 10 11 11 11 11 11 11 10
2 4 6 6 6 6 3 6 6 3 3 4 4 4 4 4 3 3 3 5 7 7 3 2 1 -3 -1 0 -2 -1 1 4 6 6 7 8 9 9 9 9 9 9 11 11 11 11 9 10 9
2 4 6 6 6 6 4 7 8 2 3 3 4 3 3 3 3 3 4 6 6 5 4 3 2 2 2 1 -2 0 3 6 7 7 8 8 9 9 9 9 9 9 10 10 11 9 7 8 9
6 6 4 6 5 6 5 7 4 2 3 3 3 3 3 3 3 3 3 5 6 7 5 3 3 8 7 3 3 7 7 8 7 7 8 7 8 9 9 9 9 9 9 10 10 10 10 8 7
5 4 8 7 7 7 5 6 7 5 5 4 3 3 3 2 3 3 3 5 6 6 6 5 6 6 6 6 6 7 7 6 6 8 9 9 9 9 10 10 10 10 10 9 9 9 10 9 8
6 7 6 6 7 6 5 6 5 5 4 4 1 1 1 2 2 3 3 3 5 5 5 5 6 6 6 7 8 8 8 9 9 9 9 10 9 9 9 9 9 9 9 9 9 9 9 9 8
4 5 4 6 7 5 5 6 3 3 3 3 2 1 1 1 1 2 2 3 4 4 4 4 5 6 6 6 6 8 9 9 9 9 9 9 9 9 9 9 9 9 9 9 9 9 9 9 9